[[{"header":{"parameterUnit":"m.s-1","parameterCategory":1,"la1":31.0,"la2":29.5877,"lo1":-88.7671,"lo2":-86.6584,"dx":0.0162,"dy":0.0185,"nx":115,"ny":88,"refTime":"2022-12-04T18:00:00:Z","depth":0,"parameterNumber":2,"parameterNumberName":"U-component_of_WINDS"},"data":[0.0,0.0,0.0,0.0,0.0,0.0,0.0,0.0,0.0,0.0,0.0,0.0,0.0,0.0,0.0,0.0,0.0,0.0,0.0,0.0,0.0,0.0,0.0,0.0,0.0,0.0,0.0,0.0,0.0,0.0,0.0,0.0,0.0,0.0,0.0,0.0,0.0,0.0,0.0,0.0,0.0,0.0,0.0,0.0,0.0,0.0,0.0,0.0,0.0,0.0,0.0,0.0,0.0,0.0,0.0,0.0,0.0,0.0,0.0,0.0,0.0,0.0,0.0,0.0,0.0,0.0,0.0,0.0,0.0,0.0,0.0,0.0,0.0,0.0,0.0,0.0,0.0,0.0,0.0,0.0,0.0,0.0,0.0,0.0,0.0,0.0,0.0,0.0,0.0,0.0,0.0,0.0,0.0,0.0,0.0,0.0,0.0,0.0,0.0,0.0,0.0,0.0,0.0,0.0,0.0,0.0,0.0,0.0,0.0,0.0,0.0,0.0,0.0,0.0,0.0,0.0,0.0,0.0,0.0,0.0,0.0,0.0,0.0,0.0,0.0,0.0,0.0,0.0,0.0,0.0,0.0,0.0,0.0,0.0,0.0,0.0,0.0,0.0,0.0,0.0,0.0,0.0,0.0,0.0,0.0,0.0,0.0,0.0,0.0,0.0,0.0,0.0,0.0,0.0,0.0,0.0,0.0,0.0,0.0,0.0,0.0,0.0,0.0,0.0,0.0,0.0,0.0,0.0,0.0,0.0,0.0,0.0,0.0,0.0,0.0,0.0,0.0,0.0,0.0,0.0,0.0,0.0,0.0,0.0,0.0,0.0,0.0,0.0,0.0,0.0,0.0,0.0,0.0,0.0,0.0,0.0,0.0,0.0,0.0,0.0,0.0,0.0,0.0,0.0,0.0,0.0,0.0,0.0,0.0,0.0,0.0,0.0,0.0,0.0,0.0,0.0,0.0,0.0,0.0,0.0,0.0,0.0,0.0,0.0,0.0,0.0,0.0,0.0,0.0,0.0,0.0,0.0,0.0,0.0,0.0,0.0,0.0,0.0,0.0,0.0,0.0,0.0,0.0,0.0,0.0,0.0,0.0,0.0,0.0,0.0,0.0,0.0,0.0,0.0,0.0,0.0,0.0,0.0,0.0,0.0,0.0,0.0,0.0,0.0,0.0,0.0,0.0,0.0,0.0,0.0,0.0,0.0,0.0,0.0,0.0,0.0,0.0,0.0,0.0,0.0,0.0,0.0,0.0,0.0,0.0,0.0,0.0,0.0,0.0,0.0,0.0,0.0,0.0,0.0,0.0,0.0,0.0,0.0,0.0,0.0,0.0,0.0,0.0,0.0,0.0,0.0,0.0,0.0,0.0,0.0,0.0,0.0,0.0,0.0,0.0,0.0,0.0,0.0,0.0,0.0,0.0,0.0,0.0,0.0,0.0,0.0,0.0,0.0,0.0,0.0,0.0,0.0,0.0,0.0,0.0,0.0,0.0,0.0,0.0,0.0,0.0,0.0,0.0,0.0,0.0,0.0,0.0,0.0,0.0,0.0,0.0,0.0,0.0,0.0,0.0,0.0,0.0,0.0,0.0,0.0,0.0,0.0,0.0,0.0,0.0,0.0,0.0,0.0,0.0,0.0,0.0,0.0,0.0,0.0,0.0,0.0,0.0,0.0,0.0,0.0,0.0,0.0,0.0,0.0,0.0,0.0,0.0,0.0,0.0,0.0,0.0,0.0,0.0,0.0,0.0,0.0,0.0,0.0,0.0,0.0,0.0,0.0,0.0,0.0,0.0,0.0,0.0,0.0,0.0,0.0,0.0,0.0,0.0,0.0,0.0,0.0,0.0,0.0,0.0,0.0,0.0,0.0,0.0,0.0,0.0,0.0,0.0,0.0,0.0,0.0,0.0,0.0,0.0,0.0,0.0,0.0,0.0,0.0,0.0,0.0,0.0,0.0,0.0,0.0,0.0,0.0,0.0,0.0,0.0,0.0,0.0,0.0,0.0,0.0,0.0,0.0,0.0,0.0,0.0,0.0,0.0,0.0,0.0,0.0,0.0,0.0,0.0,0.0,0.0,0.0,0.0,0.0,0.0,0.0,0.0,0.0,0.0,0.0,0.0,0.0,0.0,0.0,0.0,0.0,0.0,0.0,0.0,0.0,0.0,0.0,0.0,0.0,0.0,0.0,0.0,0.0,0.0,0.0,0.0,0.0,0.0,0.0,0.0,0.0,0.0,0.0,0.0,0.0,0.0,0.0,0.0,0.0,0.0,0.0,0.0,0.0,0.0,0.0,0.0,0.0,0.0,0.0,0.0,0.0,0.0,0.0,0.0,0.0,0.0,0.0,0.0,0.0,0.0,0.0,0.0,0.0,0.0,0.0,0.0,0.0,0.0,0.0,0.0,0.0,0.0,0.0,0.0,0.0,0.0,0.0,0.0,0.0,0.0,0.0,0.0,0.0,0.0,0.0,0.0,0.0,0.0,0.0,0.0,0.0,0.0,0.0,0.0,0.0,0.0,0.0,0.0,0.0,0.0,0.0,0.0,0.0,0.0,0.0,0.0,0.0,0.0,0.0,0.0,0.0,0.0,0.0,0.0,0.0,0.0,0.0,0.0,0.0,0.0,0.0,0.0,0.0,0.0,0.0,0.0,0.0,0.0,0.0,0.0,0.0,0.0,0.0,0.0,0.0,0.0,0.0,0.0,0.0,0.0,0.0,0.0,0.0,0.0,0.0,0.0,0.0,0.0,0.0,0.0,0.0,0.0,0.0,0.0,0.0,0.0,0.0,0.0,0.0,0.0,0.0,0.0,0.0,0.0,0.0,0.0,0.0,0.0,0.0,0.0,0.0,0.0,0.0,0.0,0.0,0.0,0.0,0.0,0.0,0.0,0.0,0.0,0.0,0.0,0.0,0.0,0.0,0.0,0.0,0.0,0.0,0.0,0.0,0.0,0.0,0.0,0.0,0.0,0.0,0.0,0.0,0.0,0.0,0.0,0.0,0.0,0.0,0.0,0.0,0.0,0.0,0.0,0.0,0.0,0.0,0.0,0.0,0.0,0.0,0.0,0.0,0.0,0.0,0.0,0.0,0.0,0.0,0.0,0.0,0.0,0.0,0.0,0.0,0.0,0.0,0.0,0.0,0.0,0.0,0.0,0.0,0.0,0.0,0.0,0.0,0.0,0.0,0.0,0.0,0.0,0.0,0.0,0.0,0.0,0.0,0.0,0.0,0.0,0.0,0.0,0.0,0.0,0.0,0.0,0.0,0.0,0.0,0.0,0.0,0.0,0.0,0.0,0.0,0.0,0.0,0.0,0.0,0.0,0.0,0.0,0.0,0.0,0.0,0.0,0.0,0.0,0.0,0.0,0.0,0.0,0.0,0.0,0.0,0.0,0.0,0.0,0.0,0.0,0.0,0.0,0.0,0.0,0.0,0.0,0.0,0.0,0.0,0.0,0.0,0.0,0.0,0.0,0.0,0.0,0.0,0.0,0.0,0.0,0.0,0.0,0.0,0.0,0.0,0.0,0.0,0.0,0.0,0.0,0.0,0.0,0.0,0.0,0.0,0.0,0.0,0.0,0.0,0.0,0.0,0.0,0.0,0.0,0.0,0.0,0.0,0.0,0.0,0.0,0.0,0.0,0.0,0.0,0.0,0.0,0.0,0.0,0.0,0.0,0.0,0.0,0.0,0.0,0.0,0.0,0.0,0.0,0.0,0.0,0.0,0.0,0.0,0.0,0.0,0.0,0.0,0.0,0.0,0.0,0.0,0.0,0.0,0.0,0.0,0.0,0.0,0.0,0.0,0.0,0.0,0.0,0.0,0.0,0.0,0.0,0.0,0.0,0.0,0.0,0.0,0.0,0.0,0.0,0.0,0.0,0.0,0.0,0.0,0.0,0.0,0.0,0.0,0.0,0.0,0.0,0.0,0.0,0.0,0.0,0.0,0.0,0.0,0.0,0.0,0.0,0.0,0.0,0.0,0.0,0.0,0.0,0.0,0.0,0.0,0.0,0.0,0.0,0.0,0.0,0.0,0.0,0.0,0.0,0.0,0.0,0.0,0.0,0.0,0.0,0.0,0.0,0.0,0.0,0.0,0.0,0.0,0.0,0.0,0.0,0.0,0.0,0.0,0.0,0.0,0.0,0.0,0.0,0.0,0.0,0.0,0.0,0.0,0.0,0.0,0.0,0.0,0.0,0.0,0.0,0.0,0.0,0.0,0.0,0.0,0.0,0.0,0.0,0.0,0.0,0.0,-1.6814,0.0,0.0,0.0,-1.447,0.0,0.0,0.0,0.0,0.0,0.0,0.0,0.0,0.0,0.0,0.0,0.0,0.0,0.0,0.0,0.0,0.0,0.0,0.0,0.0,0.0,0.0,0.0,0.0,0.0,0.0,0.0,0.0,0.0,0.0,0.0,0.0,0.0,0.0,0.0,0.0,0.0,0.0,0.0,0.0,0.0,0.0,0.0,0.0,0.0,0.0,0.0,0.0,0.0,0.0,0.0,0.0,0.0,0.0,0.0,0.0,0.0,0.0,0.0,0.0,0.0,0.0,0.0,0.0,0.0,0.0,0.0,0.0,0.0,0.0,0.0,0.0,0.0,0.0,0.0,0.0,0.0,0.0,0.0,0.0,0.0,0.0,0.0,0.0,0.0,0.0,0.0,0.0,0.0,0.0,0.0,0.0,0.0,0.0,0.0,0.0,0.0,0.0,0.0,0.0,0.0,0.0,0.0,0.0,0.0,0.0,0.0,0.0,0.0,0.0,-1.6694,-1.6675,-1.5854,-1.521,-1.48,0.0,0.0,0.0,0.0,0.0,0.0,0.0,0.0,0.0,0.0,0.0,0.0,0.0,0.0,0.0,0.0,0.0,0.0,0.0,0.0,0.0,0.0,0.0,0.0,0.0,0.0,0.0,0.0,0.0,0.0,0.0,0.0,0.0,0.0,0.0,0.0,0.0,0.0,0.0,0.0,0.0,0.0,0.0,0.0,0.0,0.0,0.0,0.0,0.0,0.0,0.0,0.0,0.0,0.0,0.0,0.0,0.0,0.0,0.0,0.0,0.0,0.0,0.0,0.0,0.0,0.0,0.0,0.0,0.0,0.0,0.0,0.0,0.0,0.0,0.0,0.0,0.0,0.0,0.0,0.0,0.0,0.0,0.0,0.0,0.0,0.0,0.0,0.0,0.0,0.0,0.0,0.0,0.0,0.0,0.0,0.0,0.0,0.0,0.0,0.0,0.0,0.0,0.0,0.0,0.0,0.0,0.0,0.0,0.0,0.0,0.0,0.0,-1.575,-1.5303,-1.5072,0.0,0.0,0.0,0.0,0.0,0.0,0.0,0.0,0.0,0.0,0.0,0.0,0.0,0.0,0.0,0.0,0.0,0.0,0.0,0.0,0.0,0.0,0.0,0.0,0.0,0.0,0.0,0.0,0.0,0.0,0.0,0.0,0.0,0.0,0.0,0.0,0.0,0.0,0.0,0.0,0.0,0.0,0.0,0.0,0.0,0.0,0.0,0.0,0.0,0.0,0.0,0.0,0.0,0.0,0.0,0.0,0.0,0.0,0.0,0.0,0.0,0.0,0.0,0.0,0.0,0.0,0.0,0.0,0.0,0.0,0.0,0.0,0.0,0.0,0.0,0.0,0.0,0.0,0.0,0.0,0.0,0.0,0.0,0.0,0.0,0.0,0.0,0.0,0.0,0.0,0.0,0.0,0.0,0.0,0.0,0.0,0.0,0.0,0.0,0.0,0.0,0.0,0.0,0.0,0.0,0.0,0.0,0.0,0.0,0.0,-1.5511,-1.5512,-1.5441,0.0,-1.4249,0.0,0.0,0.0,0.0,0.0,0.0,0.0,0.0,0.0,0.0,0.0,0.0,0.0,0.0,0.0,0.0,0.0,0.0,0.0,0.0,0.0,0.0,0.0,0.0,0.0,0.0,0.0,0.0,0.0,0.0,0.0,0.0,0.0,0.0,0.0,0.0,0.0,0.0,0.0,0.0,0.0,0.0,0.0,0.0,0.0,0.0,0.0,0.0,0.0,0.0,0.0,0.0,0.0,0.0,0.0,0.0,0.0,0.0,0.0,0.0,0.0,0.0,0.0,0.0,0.0,0.0,0.0,0.0,0.0,0.0,0.0,0.0,0.0,0.0,0.0,0.0,0.0,0.0,0.0,0.0,0.0,0.0,0.0,0.0,0.0,0.0,0.0,0.0,0.0,0.0,0.0,0.0,0.0,0.0,0.0,0.0,0.0,0.0,0.0,0.0,0.0,0.0,0.0,0.0,0.0,0.0,0.0,0.0,0.0,0.0,-1.5349,-1.541,-1.5405,-1.5008,0.0,0.0,0.0,0.0,0.0,0.0,0.0,0.0,0.0,0.0,0.0,0.0,0.0,0.0,0.0,0.0,0.0,0.0,0.0,0.0,0.0,0.0,0.0,0.0,0.0,0.0,0.0,0.0,0.0,0.0,0.0,0.0,0.0,0.0,0.0,0.0,0.0,0.0,0.0,0.0,0.0,0.0,0.0,0.0,0.0,0.0,0.0,0.0,0.0,0.0,0.0,0.0,0.0,0.0,0.0,0.0,0.0,0.0,0.0,0.0,0.0,0.0,0.0,0.0,0.0,0.0,0.0,0.0,0.0,0.0,0.0,0.0,0.0,0.0,0.0,0.0,0.0,0.0,0.0,0.0,0.0,0.0,0.0,0.0,0.0,0.0,0.0,0.0,0.0,0.0,0.0,0.0,0.0,0.0,0.0,0.0,0.0,0.0,0.0,0.0,0.0,0.0,0.0,0.0,0.0,0.0,0.0,0.0,0.0,0.0,-1.587,-1.5913,-1.5732,-1.5482,-1.5067,-1.4451,0.0,0.0,0.0,0.0,0.0,0.0,0.0,0.0,0.0,0.0,0.0,0.0,0.0,0.0,0.0,0.0,0.0,0.0,0.0,0.0,0.0,0.0,0.0,0.0,0.0,0.0,0.0,0.0,0.0,0.0,0.0,0.0,0.0,0.0,0.0,0.0,0.0,0.0,0.0,0.0,0.0,0.0,0.0,0.0,0.0,0.0,0.0,0.0,0.0,0.0,0.0,0.0,0.0,0.0,0.0,0.0,0.0,0.0,0.0,0.0,0.0,0.0,0.0,0.0,0.0,0.0,0.0,0.0,0.0,0.0,0.0,0.0,0.0,0.0,0.0,0.0,0.0,0.0,0.0,0.0,0.0,0.0,0.0,0.0,0.0,0.0,0.0,0.0,0.0,0.0,0.0,0.0,0.0,0.0,0.0,0.0,0.0,0.0,0.0,0.0,0.0,0.0,0.0,0.0,0.0,0.0,0.0,0.0,-1.6556,-1.7274,-1.7294,-1.6531,-1.5742,-1.5292,0.0,0.0,0.0,0.0,0.0,0.0,0.0,0.0,0.0,0.0,0.0,0.0,0.0,0.0,0.0,0.0,0.0,0.0,0.0,0.0,0.0,0.0,0.0,0.0,0.0,0.0,0.0,0.0,0.0,0.0,0.0,0.0,0.0,0.0,0.0,0.0,0.0,0.0,0.0,0.0,0.0,0.0,0.0,0.0,0.0,0.0,0.0,0.0,0.0,0.0,0.0,0.0,0.0,0.0,0.0,0.0,0.0,0.0,0.0,0.0,0.0,0.0,0.0,0.0,0.0,0.0,0.0,0.0,0.0,0.0,0.0,0.0,0.0,0.0,0.0,0.0,0.0,0.0,0.0,0.0,0.0,0.0,0.0,0.0,0.0,0.0,0.0,0.0,0.0,0.0,0.0,0.0,0.0,0.0,0.0,0.0,0.0,0.0,0.0,0.0,0.0,0.0,0.0,0.0,0.0,0.0,0.0,0.0,0.0,-1.7341,-1.7653,-1.7393,-1.658,-1.6273,-1.5868,0.0,0.0,0.0,0.0,0.0,0.0,0.0,0.0,0.0,0.0,0.0,0.0,0.0,0.0,0.0,0.0,0.0,0.0,0.0,0.0,0.0,0.0,0.0,0.0,0.0,0.0,0.0,0.0,0.0,0.0,0.0,0.0,0.0,0.0,0.0,0.0,0.0,0.0,0.0,0.0,0.0,0.0,0.0,0.0,0.0,0.0,0.0,0.0,0.0,0.0,0.0,0.0,0.0,0.0,0.0,0.0,0.0,0.0,0.0,0.0,0.0,0.0,0.0,0.0,0.0,0.0,0.0,0.0,0.0,0.0,0.0,0.0,0.0,0.0,0.0,0.0,0.0,0.0,0.0,0.0,0.0,0.0,0.0,0.0,0.0,0.0,0.0,0.0,0.0,0.0,0.0,0.0,0.0,0.0,0.0,0.0,0.0,0.0,0.0,0.0,0.0,0.0,0.0,0.0,0.0,0.0,0.0,0.0,0.0,-1.8547,-1.8339,-1.7908,-1.7338,-1.6822,-1.63,0.0,0.0,0.0,0.0,0.0,0.0,0.0,0.0,0.0,0.0,0.0,0.0,0.0,0.0,0.0,0.0,0.0,0.0,0.0,0.0,0.0,0.0,0.0,0.0,0.0,0.0,0.0,0.0,0.0,0.0,0.0,0.0,0.0,0.0,0.0,0.0,0.0,0.0,0.0,0.0,0.0,0.0,0.0,0.0,0.0,0.0,0.0,0.0,0.0,0.0,0.0,0.0,0.0,0.0,0.0,0.0,0.0,0.0,0.0,0.0,0.0,0.0,0.0,0.0,0.0,0.0,0.0,0.0,0.0,0.0,0.0,0.0,0.0,0.0,0.0,0.0,0.0,0.0,0.0,0.0,0.0,0.0,0.0,0.0,0.0,0.0,0.0,0.0,0.0,0.0,0.0,0.0,0.0,0.0,0.0,0.0,0.0,0.0,0.0,0.0,0.0,0.0,0.0,0.0,0.0,0.0,0.0,0.0,-1.8633,-2.0177,-1.9426,-1.8971,-1.8952,-1.7409,-1.654,0.0,0.0,0.0,0.0,0.0,0.0,0.0,0.0,0.0,0.0,0.0,0.0,0.0,0.0,0.0,0.0,0.0,0.0,0.0,0.0,0.0,0.0,0.0,0.0,0.0,0.0,0.0,0.0,0.0,0.0,0.0,0.0,0.0,0.0,0.0,0.0,0.0,0.0,0.0,0.0,0.0,0.0,0.0,0.0,0.0,0.0,0.0,0.0,0.0,0.0,0.0,0.0,0.0,0.0,0.0,0.0,0.0,0.0,0.0,0.0,0.0,0.0,0.0,0.0,0.0,0.0,0.0,0.0,0.0,0.0,0.0,0.0,0.0,0.0,0.0,0.0,0.0,0.0,0.0,0.0,0.0,0.0,0.0,0.0,0.0,0.0,0.0,0.0,0.0,0.0,0.0,0.0,0.0,0.0,0.0,0.0,0.0,0.0,0.0,0.0,0.0,0.0,0.0,0.0,0.0,0.0,0.0,0.0,0.0,-2.0288,-2.0046,-1.9615,-1.9025,-1.8503,-1.7667,0.0,0.0,0.0,0.0,0.0,0.0,0.0,0.0,0.0,0.0,0.0,0.0,0.0,0.0,0.0,0.0,0.0,0.0,0.0,0.0,0.0,0.0,0.0,0.0,0.0,0.0,0.0,0.0,0.0,0.0,0.0,0.0,0.0,0.0,0.0,0.0,0.0,0.0,0.0,0.0,0.0,0.0,0.0,0.0,0.0,0.0,0.0,0.0,0.0,0.0,0.0,0.0,0.0,0.0,0.0,0.0,0.0,0.0,0.0,0.0,0.0,0.0,0.0,0.0,0.0,0.0,0.0,0.0,0.0,0.0,0.0,0.0,0.0,0.0,0.0,0.0,0.0,0.0,0.0,0.0,0.0,0.0,0.0,0.0,0.0,0.0,0.0,0.0,0.0,0.0,0.0,0.0,0.0,0.0,0.0,0.0,0.0,0.0,0.0,0.0,0.0,0.0,0.0,0.0,0.0,0.0,0.0,0.0,0.0,-2.1716,-2.1408,-2.0974,-2.0423,-1.9818,-1.8827,-1.7477,0.0,0.0,0.0,0.0,0.0,0.0,0.0,0.0,0.0,0.0,0.0,0.0,0.0,0.0,0.0,0.0,0.0,0.0,0.0,0.0,0.0,0.0,0.0,0.0,0.0,0.0,0.0,0.0,0.0,0.0,0.0,0.0,0.0,0.0,0.0,0.0,0.0,0.0,0.0,0.0,0.0,0.0,0.0,0.0,0.0,0.0,0.0,0.0,0.0,0.0,0.0,0.0,0.0,0.0,0.0,0.0,0.0,0.0,0.0,0.0,0.0,0.0,0.0,0.0,0.0,0.0,0.0,0.0,0.0,0.0,0.0,0.0,0.0,0.0,0.0,0.0,0.0,0.0,0.0,0.0,0.0,0.0,0.0,0.0,0.0,0.0,0.0,0.0,0.0,0.0,0.0,0.0,0.0,0.0,0.0,0.0,0.0,0.0,0.0,0.0,0.0,0.0,0.0,0.0,0.0,0.0,0.0,0.0,-2.4144,-2.3451,-2.3028,-2.2816,-2.1332,-2.0069,0.0,0.0,0.0,0.0,0.0,0.0,0.0,0.0,0.0,0.0,0.0,0.0,0.0,0.0,0.0,0.0,0.0,0.0,0.0,0.0,0.0,0.0,0.0,0.0,0.0,0.0,0.0,0.0,0.0,0.0,0.0,0.0,0.0,0.0,0.0,0.0,0.0,0.0,0.0,0.0,0.0,0.0,0.0,0.0,0.0,0.0,0.0,0.0,0.0,0.0,0.0,0.0,0.0,0.0,0.0,0.0,0.0,0.0,0.0,0.0,0.0,0.0,0.0,0.0,0.0,0.0,0.0,0.0,0.0,0.0,0.0,0.0,0.0,0.0,0.0,0.0,0.0,0.0,0.0,0.0,0.0,0.0,0.0,0.0,0.0,0.0,0.0,0.0,0.0,0.0,0.0,0.0,0.0,0.0,0.0,0.0,0.0,0.0,0.0,0.0,0.0,0.0,0.0,0.0,0.0,0.0,0.0,0.0,0.0,-2.4956,-2.6,-2.5683,-2.3841,-2.334,-2.2117,0.0,0.0,0.0,0.0,0.0,0.0,0.0,0.0,0.0,0.0,0.0,0.0,0.0,0.0,0.0,0.0,0.0,0.0,0.0,0.0,0.0,0.0,0.0,0.0,0.0,0.0,0.0,0.0,0.0,0.0,0.0,0.0,0.0,0.0,0.0,0.0,0.0,0.0,0.0,0.0,0.0,0.0,0.0,0.0,0.0,0.0,0.0,0.0,0.0,0.0,0.0,0.0,0.0,0.0,0.0,0.0,0.0,0.0,0.0,0.0,0.0,0.0,0.0,0.0,0.0,0.0,0.0,0.0,0.0,0.0,0.0,0.0,0.0,0.0,0.0,0.0,0.0,0.0,0.0,0.0,0.0,0.0,0.0,0.0,0.0,0.0,0.0,0.0,0.0,0.0,0.0,0.0,0.0,0.0,0.0,0.0,0.0,0.0,0.0,0.0,0.0,0.0,0.0,0.0,0.0,0.0,0.0,0.0,-2.5297,-2.6867,-2.7879,-2.7676,-2.6137,-2.5124,-2.3577,0.0,0.0,0.0,0.0,0.0,0.0,0.0,0.0,0.0,0.0,0.0,0.0,0.0,0.0,0.0,0.0,0.0,0.0,0.0,0.0,0.0,0.0,0.0,0.0,0.0,0.0,0.0,0.0,0.0,0.0,0.0,0.0,0.0,0.0,0.0,0.0,0.0,0.0,0.0,0.0,0.0,0.0,0.0,0.0,0.0,0.0,0.0,0.0,0.0,0.0,0.0,0.0,0.0,0.0,0.0,0.0,0.0,0.0,0.0,0.0,0.0,0.0,0.0,0.0,0.0,0.0,0.0,0.0,0.0,0.0,0.0,0.0,0.0,0.0,0.0,0.0,0.0,0.0,0.0,0.0,0.0,0.0,0.0,0.0,0.0,0.0,0.0,0.0,0.0,0.0,0.0,0.0,0.0,0.0,0.0,0.0,0.0,0.0,0.0,0.0,0.0,0.0,0.0,0.0,0.0,0.0,0.0,0.0,-2.6579,-2.8995,-2.9127,-2.9142,-2.8942,-2.6761,-2.4725,0.0,0.0,0.0,0.0,0.0,0.0,0.0,0.0,0.0,0.0,0.0,0.0,0.0,0.0,0.0,0.0,0.0,0.0,0.0,0.0,0.0,0.0,0.0,0.0,0.0,0.0,0.0,0.0,0.0,0.0,0.0,0.0,0.0,0.0,0.0,0.0,0.0,0.0,0.0,0.0,0.0,0.0,0.0,0.0,0.0,0.0,0.0,0.0,0.0,0.0,0.0,0.0,0.0,0.0,0.0,0.0,0.0,0.0,0.0,0.0,0.0,0.0,0.0,0.0,0.0,0.0,0.0,0.0,0.0,0.0,0.0,0.0,0.0,0.0,0.0,0.0,0.0,0.0,0.0,0.0,0.0,0.0,0.0,0.0,0.0,0.0,0.0,0.0,0.0,0.0,0.0,0.0,0.0,0.0,0.0,0.0,0.0,0.0,0.0,0.0,0.0,0.0,0.0,0.0,0.0,0.0,0.0,0.0,-2.6889,-2.8662,-2.9365,-2.9715,-2.9684,-2.8116,-2.6117,0.0,0.0,0.0,0.0,0.0,0.0,0.0,0.0,0.0,0.0,0.0,0.0,0.0,0.0,0.0,0.0,0.0,0.0,0.0,0.0,0.0,0.0,0.0,0.0,0.0,0.0,0.0,0.0,0.0,0.0,0.0,0.0,0.0,0.0,0.0,0.0,0.0,0.0,0.0,0.0,0.0,0.0,0.0,0.0,0.0,0.0,0.0,0.0,-1.6714,0.0,0.0,0.0,0.0,0.0,0.0,0.0,0.0,0.0,0.0,0.0,0.0,0.0,0.0,0.0,0.0,0.0,0.0,0.0,0.0,0.0,0.0,0.0,0.0,0.0,0.0,0.0,0.0,0.0,0.0,0.0,0.0,0.0,0.0,0.0,0.0,0.0,0.0,0.0,0.0,0.0,0.0,0.0,0.0,0.0,0.0,0.0,0.0,0.0,0.0,0.0,0.0,0.0,0.0,0.0,0.0,0.0,0.0,0.0,-2.7521,-2.907,-2.9626,-2.9826,-2.9695,-2.8685,-2.6941,0.0,0.0,0.0,0.0,0.0,0.0,0.0,0.0,0.0,0.0,0.0,0.0,0.0,0.0,0.0,0.0,0.0,0.0,0.0,0.0,0.0,0.0,0.0,0.0,0.0,0.0,0.0,0.0,0.0,0.0,0.0,0.0,0.0,0.0,0.0,0.0,0.0,0.0,0.0,0.0,0.0,0.0,0.0,0.0,0.0,0.0,0.0,0.0,0.0,0.0,0.0,0.0,0.0,0.0,0.0,0.0,0.0,0.0,0.0,0.0,0.0,0.0,0.0,0.0,0.0,0.0,0.0,0.0,0.0,0.0,0.0,0.0,0.0,0.0,0.0,0.0,0.0,0.0,0.0,0.0,0.0,0.0,0.0,0.0,0.0,0.0,0.0,0.0,0.0,0.0,0.0,0.0,0.0,0.0,0.0,0.0,0.0,0.0,0.0,0.0,0.0,0.0,0.0,0.0,0.0,0.0,0.0,-2.6461,-2.8072,-2.9551,-2.9734,-2.968,-2.9438,-2.8791,-2.7312,-2.5002,0.0,0.0,0.0,0.0,0.0,0.0,0.0,0.0,0.0,0.0,0.0,0.0,0.0,0.0,0.0,0.0,0.0,0.0,0.0,0.0,0.0,0.0,0.0,0.0,0.0,0.0,0.0,0.0,0.0,0.0,0.0,0.0,0.0,0.0,0.0,0.0,0.0,0.0,-1.293,-1.5549,0.0,0.0,0.0,0.0,0.0,0.0,0.0,0.0,-1.8334,0.0,0.0,0.0,0.0,0.0,0.0,0.0,0.0,0.0,0.0,0.0,0.0,0.0,0.0,0.0,0.0,0.0,0.0,0.0,0.0,0.0,0.0,0.0,0.0,0.0,0.0,0.0,0.0,0.0,0.0,0.0,0.0,0.0,0.0,0.0,0.0,0.0,0.0,0.0,0.0,0.0,0.0,0.0,0.0,0.0,0.0,0.0,0.0,0.0,0.0,0.0,0.0,0.0,0.0,0.0,0.0,-2.4543,-2.6159,-2.7736,-2.9222,-2.9299,-2.9299,-2.9228,-2.8483,-2.6991,-2.4661,0.0,0.0,0.0,0.0,0.0,0.0,0.0,0.0,0.0,0.0,0.0,0.0,0.0,0.0,0.0,0.0,0.0,0.0,0.0,0.0,0.0,0.0,0.0,0.0,0.0,0.0,0.0,0.0,0.0,0.0,0.0,0.0,0.0,0.0,0.0,0.0,0.0,0.0,0.0,-1.7767,-2.0206,0.0,0.0,0.0,0.0,0.0,0.0,0.0,0.0,-1.8804,0.0,0.0,0.0,0.0,0.0,0.0,0.0,0.0,0.0,0.0,0.0,0.0,0.0,0.0,0.0,0.0,0.0,0.0,0.0,0.0,0.0,0.0,0.0,0.0,0.0,0.0,0.0,0.0,0.0,0.0,0.0,0.0,0.0,0.0,0.0,0.0,0.0,0.0,0.0,0.0,0.0,0.0,0.0,0.0,0.0,0.0,0.0,0.0,0.0,0.0,0.0,0.0,0.0,0.0,0.0,-2.502,-2.6655,-2.8207,-2.9653,-2.9396,-2.9381,-2.9735,-2.8619,-2.6896,0.0,0.0,0.0,0.0,0.0,0.0,0.0,0.0,0.0,0.0,0.0,0.0,0.0,0.0,0.0,0.0,0.0,0.0,0.0,0.0,0.0,0.0,0.0,0.0,0.0,0.0,0.0,0.0,0.0,0.0,0.0,0.0,0.0,0.0,0.0,0.0,0.0,0.0,0.0,0.0,-1.9112,-2.1058,-2.2759,0.0,0.0,0.0,0.0,0.0,0.0,-2.1475,-2.0224,0.0,0.0,0.0,0.0,0.0,0.0,0.0,0.0,0.0,0.0,0.0,0.0,0.0,0.0,0.0,0.0,0.0,0.0,0.0,0.0,0.0,0.0,0.0,0.0,0.0,0.0,0.0,0.0,0.0,0.0,0.0,0.0,0.0,0.0,0.0,0.0,0.0,0.0,0.0,0.0,0.0,0.0,0.0,0.0,0.0,0.0,0.0,0.0,0.0,0.0,0.0,0.0,0.0,0.0,0.0,-2.5551,-2.717,-2.8702,-3.0093,-2.9524,-2.9521,-3.0219,-2.8632,-2.6783,0.0,0.0,0.0,0.0,0.0,0.0,0.0,0.0,0.0,0.0,0.0,0.0,0.0,0.0,0.0,0.0,0.0,0.0,0.0,0.0,0.0,0.0,0.0,0.0,0.0,0.0,0.0,0.0,0.0,0.0,0.0,0.0,0.0,0.0,0.0,0.0,0.0,0.0,0.0,0.0,0.0,-2.1811,-2.4331,-2.4119,0.0,0.0,0.0,0.0,-2.3561,-2.2601,0.0,0.0,0.0,0.0,0.0,0.0,0.0,0.0,0.0,0.0,0.0,0.0,0.0,0.0,0.0,0.0,0.0,0.0,0.0,0.0,0.0,0.0,0.0,0.0,0.0,0.0,0.0,0.0,0.0,0.0,0.0,0.0,0.0,0.0,0.0,0.0,0.0,0.0,0.0,0.0,0.0,0.0,0.0,0.0,0.0,0.0,0.0,0.0,0.0,0.0,0.0,0.0,0.0,0.0,0.0,0.0,-2.5588,-2.7134,-2.8662,-3.0081,-2.945,-2.9414,-3.0166,-2.8037,-2.6415,0.0,0.0,0.0,0.0,0.0,0.0,0.0,0.0,0.0,0.0,0.0,0.0,0.0,0.0,0.0,0.0,0.0,0.0,0.0,0.0,0.0,0.0,0.0,0.0,0.0,0.0,0.0,0.0,0.0,0.0,0.0,0.0,0.0,0.0,0.0,0.0,0.0,0.0,0.0,0.0,0.0,-2.3538,-2.6056,-2.6345,-2.6515,0.0,0.0,-2.5364,-2.6059,-2.4199,0.0,0.0,0.0,0.0,0.0,0.0,0.0,0.0,0.0,0.0,0.0,0.0,0.0,0.0,0.0,0.0,0.0,0.0,0.0,0.0,0.0,0.0,0.0,0.0,0.0,0.0,0.0,0.0,0.0,0.0,0.0,0.0,0.0,0.0,0.0,0.0,0.0,0.0,0.0,0.0,0.0,0.0,0.0,0.0,0.0,0.0,0.0,0.0,0.0,0.0,0.0,0.0,0.0,0.0,0.0,-2.4644,-2.6231,-2.7742,-2.9297,-3.0779,-2.9659,-2.9592,-3.0834,-2.8603,-2.6809,0.0,0.0,0.0,0.0,0.0,0.0,0.0,0.0,0.0,0.0,0.0,0.0,0.0,0.0,0.0,0.0,0.0,0.0,0.0,0.0,0.0,0.0,0.0,0.0,0.0,0.0,0.0,0.0,0.0,0.0,0.0,0.0,0.0,0.0,0.0,0.0,0.0,0.0,0.0,0.0,0.0,0.0,-2.6418,-2.7094,0.0,0.0,0.0,-2.6771,-2.6636,0.0,0.0,0.0,0.0,0.0,0.0,0.0,0.0,0.0,0.0,0.0,0.0,0.0,0.0,0.0,0.0,0.0,0.0,0.0,0.0,0.0,0.0,0.0,0.0,0.0,0.0,0.0,0.0,0.0,0.0,0.0,0.0,0.0,0.0,0.0,0.0,0.0,0.0,0.0,0.0,0.0,0.0,0.0,0.0,0.0,0.0,0.0,0.0,0.0,0.0,0.0,0.0,0.0,0.0,0.0,0.0,0.0,-2.6686,-2.8202,-2.9776,-3.1292,-3.0044,-2.9977,-3.1305,-2.9492,0.0,0.0,0.0,0.0,0.0,0.0,0.0,0.0,0.0,0.0,0.0,0.0,0.0,0.0,0.0,0.0,0.0,0.0,0.0,0.0,0.0,0.0,0.0,0.0,0.0,0.0,0.0,-1.4099,0.0,0.0,0.0,0.0,0.0,0.0,0.0,0.0,0.0,0.0,0.0,0.0,0.0,0.0,-2.5129,-2.706,-2.7821,-2.8277,0.0,0.0,-2.7969,-2.7332,-2.654,-2.5664,0.0,0.0,0.0,0.0,0.0,0.0,0.0,0.0,0.0,0.0,0.0,0.0,0.0,0.0,0.0,0.0,0.0,0.0,0.0,0.0,0.0,0.0,0.0,0.0,0.0,0.0,0.0,0.0,0.0,0.0,0.0,0.0,0.0,0.0,0.0,0.0,0.0,0.0,0.0,0.0,0.0,0.0,0.0,0.0,0.0,0.0,0.0,0.0,0.0,0.0,0.0,0.0,0.0,0.0,-2.5048,-2.6686,-2.822,-2.9794,-3.1305,-3.0558,-3.0522,-3.136,-3.0503,-2.9308,0.0,0.0,0.0,0.0,0.0,0.0,0.0,0.0,0.0,0.0,0.0,0.0,0.0,0.0,0.0,0.0,0.0,0.0,0.0,0.0,0.0,0.0,0.0,0.0,0.0,0.0,0.0,0.0,0.0,0.0,0.0,0.0,0.0,0.0,0.0,0.0,0.0,0.0,0.0,0.0,0.0,-2.6201,-2.8688,-2.9028,-2.93,0.0,-2.955,-2.9011,-2.8934,-2.8242,-2.7169,-2.5572,0.0,0.0,0.0,0.0,0.0,0.0,0.0,0.0,0.0,0.0,0.0,0.0,0.0,0.0,0.0,0.0,0.0,0.0,0.0,0.0,0.0,0.0,0.0,0.0,0.0,0.0,0.0,0.0,0.0,0.0,0.0,0.0,0.0,0.0,0.0,0.0,0.0,0.0,0.0,0.0,0.0,0.0,0.0,0.0,0.0,0.0,0.0,0.0,0.0,0.0,0.0,0.0,0.0,-2.6242,-2.7379,-2.9432,-3.0779,-3.136,-3.1103,-3.1085,-3.1397,-3.1121,-2.9965,0.0,0.0,0.0,0.0,0.0,0.0,0.0,0.0,0.0,0.0,0.0,0.0,0.0,0.0,0.0,0.0,0.0,0.0,0.0,0.0,0.0,0.0,0.0,0.0,0.0,0.0,0.0,0.0,-2.0719,-2.1293,-1.9946,0.0,0.0,0.0,0.0,0.0,0.0,0.0,0.0,0.0,0.0,-2.6882,-2.8934,-2.96,0.0,0.0,-3.0115,-2.9717,-2.9184,-2.8857,-2.8261,-2.7117,-2.6492,0.0,0.0,0.0,0.0,0.0,0.0,0.0,0.0,0.0,0.0,0.0,0.0,0.0,0.0,0.0,0.0,0.0,0.0,0.0,0.0,0.0,0.0,0.0,0.0,0.0,0.0,0.0,0.0,0.0,0.0,0.0,0.0,0.0,0.0,0.0,0.0,0.0,0.0,0.0,0.0,0.0,0.0,0.0,0.0,0.0,0.0,0.0,0.0,0.0,0.0,0.0,0.0,-2.7001,-2.7816,-3.0166,-3.1403,-3.1403,-3.1635,-3.1751,-3.1751,-3.1751,-3.0846,0.0,0.0,0.0,0.0,0.0,0.0,0.0,0.0,0.0,0.0,0.0,0.0,0.0,0.0,0.0,0.0,0.0,0.0,0.0,0.0,0.0,0.0,0.0,0.0,0.0,0.0,0.0,0.0,-2.2081,-2.2233,-2.0819,0.0,0.0,0.0,0.0,0.0,0.0,0.0,0.0,0.0,0.0,-2.7887,-2.9311,-3.0031,-3.0404,-3.0404,-3.0404,-3.0192,-2.9583,-2.9506,-2.9217,-2.839,0.0,0.0,0.0,0.0,0.0,0.0,0.0,0.0,0.0,0.0,0.0,0.0,0.0,0.0,0.0,0.0,0.0,0.0,0.0,0.0,0.0,0.0,0.0,0.0,0.0,0.0,0.0,-1.6079,0.0,0.0,-1.7119,0.0,0.0,0.0,0.0,0.0,0.0,0.0,0.0,0.0,0.0,0.0,0.0,0.0,0.0,0.0,0.0,0.0,0.0,0.0,0.0,0.0,0.0,-2.7034,-2.7816,-3.024,-3.1452,-3.1433,-3.2173,-3.2564,-3.2583,-3.2564,-3.2173,-3.1323,0.0,0.0,0.0,0.0,0.0,0.0,0.0,0.0,0.0,0.0,0.0,0.0,0.0,0.0,0.0,0.0,0.0,0.0,0.0,0.0,0.0,0.0,0.0,0.0,0.0,0.0,-2.0222,-2.1693,-2.2398,0.0,0.0,0.0,0.0,0.0,0.0,0.0,0.0,0.0,-2.642,-2.7978,-2.9354,-3.0195,-3.0367,-3.0481,-3.0462,-3.0442,-3.0423,-3.0423,-3.0404,-3.0083,0.0,0.0,0.0,0.0,0.0,0.0,0.0,0.0,0.0,0.0,0.0,0.0,0.0,0.0,0.0,0.0,0.0,0.0,0.0,0.0,0.0,0.0,0.0,0.0,0.0,0.0,0.0,-2.0512,-2.112,0.0,0.0,0.0,0.0,0.0,0.0,0.0,0.0,0.0,0.0,0.0,-2.6297,-2.6324,0.0,0.0,0.0,0.0,0.0,0.0,0.0,0.0,0.0,0.0,0.0,0.0,-2.8858,-2.876,-3.1494,-3.2742,-3.2247,-3.2981,-3.339,-3.3403,-3.3403,-3.3018,-3.2216,0.0,0.0,0.0,0.0,0.0,0.0,0.0,0.0,0.0,0.0,0.0,0.0,0.0,0.0,0.0,0.0,0.0,0.0,0.0,0.0,0.0,0.0,0.0,0.0,0.0,-2.1789,0.0,0.0,0.0,0.0,0.0,0.0,0.0,0.0,0.0,0.0,-2.5036,-2.6814,-2.8771,-2.9524,-3.0412,-3.1821,-3.2039,-3.2064,0.0,0.0,0.0,0.0,0.0,0.0,0.0,0.0,0.0,0.0,0.0,0.0,0.0,-2.6139,-2.5034,-2.3929,-2.3709,-2.3719,-2.3714,0.0,0.0,0.0,0.0,0.0,0.0,0.0,0.0,0.0,0.0,0.0,0.0,0.0,0.0,-2.4306,-2.5084,-2.5611,0.0,0.0,0.0,0.0,0.0,0.0,0.0,0.0,-2.8495,-2.8461,-2.7993,-2.8248,-2.8411,-2.8482,-2.8214,-2.7457,0.0,0.0,0.0,0.0,0.0,0.0,0.0,0.0,-3.0027,-2.9887,-3.2397,-3.351,-3.3051,-3.378,-3.4376,-3.4651,-3.4348,-3.3675,-3.2572,-3.1047,-2.985,0.0,0.0,0.0,0.0,0.0,0.0,0.0,0.0,0.0,0.0,0.0,0.0,0.0,0.0,0.0,0.0,0.0,0.0,0.0,0.0,0.0,0.0,0.0,-2.3992,0.0,0.0,0.0,0.0,0.0,0.0,0.0,0.0,0.0,-2.5272,-2.6717,-2.8415,-3.0056,-3.0778,-3.1591,-3.2704,0.0,0.0,0.0,0.0,0.0,0.0,0.0,-3.259,-3.1789,-3.1661,-3.1302,-3.0198,-2.9575,-2.9316,-2.9605,0.0,0.0,-2.6703,-2.6268,-2.6258,-2.6271,-2.6271,-2.6279,-2.633,-2.633,-2.6485,0.0,0.0,0.0,0.0,-2.4563,0.0,0.0,0.0,-2.6719,-2.7263,0.0,-2.7807,0.0,0.0,0.0,0.0,-2.8032,-2.864,0.0,0.0,-2.958,-2.9849,-2.9366,-3.0107,-3.0521,-3.0558,-2.9761,-2.9796,-3.049,-2.9474,-2.8512,0.0,0.0,0.0,0.0,0.0,-3.0432,-3.1125,-3.2853,-3.3735,-3.3753,-3.4577,-3.5412,-3.6197,-3.5314,-3.4091,-3.2589,-3.2474,-3.2112,-3.132,-2.9129,0.0,0.0,0.0,0.0,0.0,0.0,0.0,0.0,0.0,0.0,0.0,0.0,0.0,0.0,0.0,0.0,0.0,0.0,0.0,0.0,-2.5637,0.0,0.0,0.0,0.0,0.0,0.0,0.0,0.0,0.0,-2.709,-2.5669,-2.8198,-3.0275,-3.0341,0.0,0.0,0.0,0.0,-3.2993,-3.3012,-3.294,-3.2893,-3.2919,-3.2919,-3.2638,-3.1828,0.0,0.0,-3.1705,-3.1737,-3.191,-3.2737,-3.2718,-3.1864,-2.8679,-2.8145,-2.813,-2.813,-2.8169,-2.8092,-2.8073,-2.8251,-2.8208,-2.8499,0.0,0.0,0.0,0.0,-2.5757,-2.5834,-2.585,-2.6772,-2.7398,-2.7874,-2.8956,0.0,0.0,0.0,0.0,0.0,0.0,-2.9365,-2.9954,-3.0918,-3.1354,-3.1359,-3.1877,-3.2399,-3.2981,-3.2458,-3.2631,-3.3367,-3.2528,-3.1415,-3.0129,0.0,0.0,0.0,0.0,-3.1271,-3.056,-3.3072,-3.4491,-3.4491,-3.5276,-3.582,-3.6075,-3.4724,-3.4002,-3.4101,-3.3022,-3.2324,-3.2069,-3.0941,0.0,0.0,0.0,0.0,0.0,0.0,0.0,0.0,0.0,0.0,0.0,0.0,0.0,0.0,0.0,0.0,0.0,0.0,0.0,-2.5523,-2.6942,-2.7343,0.0,0.0,0.0,0.0,0.0,0.0,0.0,0.0,0.0,-2.875,-3.0061,-3.1527,0.0,0.0,-3.3891,-3.4485,-3.4611,-3.4602,-3.4621,-3.4587,0.0,-3.458,-3.458,-3.4299,-3.3508,-3.2915,-3.2532,-3.2545,-3.2545,-3.2622,-3.2872,-3.2891,-3.2551,-3.1755,-3.1466,-3.1453,-3.1472,-3.1466,-3.1466,-3.1466,-3.1472,-3.1447,-3.048,-2.9248,-2.8164,-2.7686,-2.7688,-2.7901,-2.7943,-2.7929,-2.8527,-2.9089,-2.9617,-3.026,-3.0615,-3.077,-3.1207,0.0,0.0,0.0,-3.011,-3.0446,-3.1238,-3.1693,-3.1857,-3.2648,-3.328,-3.3735,-3.3352,-3.3574,-3.4355,-3.3688,-3.3073,-3.2437,0.0,-3.1483,-3.1379,-3.1997,-3.216,-3.1924,-3.3753,-3.5059,-3.5697,-3.651,-3.6783,-3.6443,-3.5478,-3.4899,-3.4706,-3.3811,-3.311,-3.2651,-3.2056,-3.0857,0.0,0.0,0.0,0.0,0.0,0.0,0.0,0.0,0.0,0.0,0.0,-1.8712,-1.9383,0.0,0.0,0.0,-2.5309,-2.6413,-2.7514,-2.8429,0.0,0.0,0.0,0.0,0.0,0.0,0.0,-2.8094,-2.9279,-3.0396,-3.1209,-3.1793,-3.2581,-3.3834,-3.4301,-3.4718,-3.5208,0.0,-3.5304,-3.5304,-3.527,-3.5262,-3.5262,-3.5262,-3.4983,-3.4193,-3.3379,-3.3023,-3.3337,-3.3377,-3.3506,-3.3768,-3.3877,-3.3884,-3.3884,-3.3916,-3.366,-3.3045,-3.2891,-3.2891,-3.2891,-3.2891,-3.2891,-3.2378,-3.2229,-3.046,-3.0055,-3.0604,-3.0393,-3.0632,-3.119,-3.1173,-3.1562,-3.2158,-3.1562,-3.207,-3.3372,-3.3271,0.0,-3.1275,-3.1275,-3.0903,-3.0311,-3.1038,-3.141,-3.1512,-3.2889,-3.3567,-3.3639,-3.324,-3.3416,-3.4098,-3.3658,-3.3806,-3.4546,-3.3124,-3.2723,-3.3352,-3.2773,-3.3102,-3.4475,-3.4697,-3.5543,-3.7045,-3.7855,-3.7923,-3.715,-3.7045,-3.627,-3.4814,-3.4658,-3.415,-3.3131,-3.2658,-3.1918,-3.0704,0.0,0.0,0.0,0.0,0.0,0.0,0.0,0.0,0.0,0.0,0.0,0.0,0.0,0.0,-2.788,-2.9421,0.0,-2.917,-2.9819,0.0,0.0,0.0,-2.8068,-2.7344,-2.7987,-2.8743,-2.9499,0.0,0.0,-3.3077,-3.335,-3.3595,-3.414,-3.4816,-3.5245,-3.5321,-3.5359,-3.5384,-3.552,-3.5447,-3.542,-3.5581,-3.5553,-3.534,-3.4638,-3.3681,-3.3698,-3.4338,-3.4498,-3.4759,-3.5392,-3.5568,-3.559,-3.559,-3.5587,-3.5109,-3.3596,-3.3237,-3.316,-3.3237,-3.3256,-3.3276,-3.3152,-3.3102,-3.2642,-3.2224,-3.1888,-3.1825,-3.1565,-3.119,-3.119,-3.1328,-3.1498,-3.1887,-3.2544,-3.3339,-3.2222,-3.1853,-3.2039,-3.2056,-3.1955,-3.1836,-3.2544,-3.3186,-3.3749,-3.4445,-3.5074,-3.5555,-3.5198,-3.5095,-3.5271,-3.4576,-3.4614,-3.5335,-3.4446,-3.3845,-3.3645,-3.4052,-3.414,-3.3928,-3.5082,-3.6096,-3.6908,-3.714,-3.7288,-3.7399,-3.6523,-3.5989,-3.5878,-3.4785,-3.402,-3.3776,-3.3183,-3.2439,-3.1491,-3.0349,0.0,0.0,0.0,0.0,0.0,0.0,0.0,0.0,0.0,-2.3958,-2.5562,0.0,-2.7728,0.0,-3.0013,-3.0148,-2.9934,-2.9619,0.0,0.0,-2.9824,-3.0035,-3.0442,-3.063,-3.0826,-3.1102,-3.1821,-3.275,-3.3971,-3.4666,-3.5333,-3.6072,-3.5325,-3.492,-3.5505,-3.5779,-3.615,-3.6673,-3.6936,-3.7101,-3.7043,-3.7101,-3.6986,-3.6842,-3.6673,-3.6706,-3.6878,-3.696,-3.7071,-3.7244,-3.729,-3.7298,-3.726,-3.683,-3.633,-3.5849,-3.5332,-3.4885,-3.4885,-3.4846,-3.4872,-3.4387,-3.4366,-3.4366,-3.415,-3.3728,-3.3068,-3.2544,-3.2188,-3.2188,-3.2171,-3.2205,-3.2611,-3.3,-3.3339,-3.2544,-3.2408,-3.2784,-3.278,-3.278,-3.2814,-3.3541,-3.41,-3.4527,-3.5109,-3.5591,-3.5985,-3.5773,-3.5652,-3.5635,-3.5218,-3.5218,-3.5652,-3.5218,-3.4901,-3.4755,-3.4776,-3.4764,-3.4693,-3.5821,-3.6575,-3.6882,-3.69,-3.7036,-3.7283,-3.6669,-3.6281,-3.6203,-3.5421,-3.4729,-3.4253,-3.4016,-3.3444,-3.2463,-3.1733,-3.0452,0.0,0.0,0.0,0.0,0.0,0.0,0.0,0.0,0.0,0.0,0.0,-2.9769,-3.065,-3.1054,-3.1127,-3.076,-3.0356,-3.0306,-3.0729,-3.0826,-3.1034,-3.1476,-3.1808,-3.2157,-3.2588,-3.33,-3.4149,-3.5123,-3.5631,-3.6064,-3.6575,-3.5876,-3.5564,-3.6279,-3.6651,-3.6977,-3.7414,-3.7603,-3.7693,-3.7693,-3.7693,-3.7693,-3.7693,-3.7729,-3.7747,-3.7774,-3.7772,-3.7808,-3.7827,-3.7836,-3.7852,-3.7833,-3.7559,-3.7245,-3.7172,-3.6879,-3.6344,-3.5654,-3.55,-3.55,-3.5887,-3.5887,-3.5887,-3.5887,-3.5785,-3.4518,-3.388,-3.3672,-3.3694,-3.3694,-3.3694,-3.3694,-3.3677,-3.3672,-3.3656,-3.3694,-3.3694,-3.3694,-3.3694,-3.3728,-3.4353,-3.4641,-3.4675,-3.5278,-3.5616,-3.5616,-3.5701,-3.5769,-3.5752,-3.5853,-3.5887,-3.5887,-3.5887,-3.6022,-3.6219,-3.5511,-3.5421,-3.6038,-3.6501,-3.6721,-3.6741,-3.6724,-3.6818,-3.6992,-3.6935,-3.6658,-3.6157,-3.6108,-3.5645,-3.4679,-3.4798,-3.4375,-3.3332,-3.2792,-3.1857,0.0,-2.9834,0.0,0.0,0.0,0.0,0.0,0.0,0.0,0.0,-3.1212,-3.1745,-3.1856,-3.2394,-3.2522,-3.1911,-3.177,-3.1745,-3.1843,-3.1874,-3.188,-3.2039,-3.2651,-3.3348,-3.4045,-3.4729,-3.5481,-3.6299,-3.6464,-3.6468,-3.6695,-3.6767,-3.6917,-3.7408,-3.7649,-3.7785,-3.787,-3.7991,-3.8247,-3.819,-3.8132,-3.8132,-3.8075,-3.8171,-3.8018,-3.8132,-3.8122,-3.8103,-3.8103,-3.8206,-3.8212,-3.8125,-3.812,-3.8046,-3.8059,-3.7928,-3.7386,-3.6301,-3.5962,-3.5808,-3.7483,-3.7459,-3.7466,-3.7466,-3.7449,-3.7178,-3.6326,-3.5177,-3.5177,-3.5177,-3.5177,-3.5194,-3.5177,-3.5177,-3.5177,-3.5177,-3.5177,-3.5177,-3.5177,-3.5194,-3.5312,-3.5402,-3.5397,-3.5532,-3.5616,-3.5633,-3.6265,-3.6552,-3.6592,-3.7178,-3.7483,-3.7483,-3.7459,-3.7519,-3.7631,0.0,0.0,0.0,-3.618,-3.5849,-3.5854,-3.5832,-3.6028,-3.6426,-3.6071,0.0,-3.631,-3.5774,-3.5412,-3.5238,-3.4629,0.0,0.0,0.0,0.0,0.0,0.0,0.0,0.0,0.0,0.0,0.0,-3.1034,-3.1524,-3.2015,-3.2845,-3.3623,-3.4234,-3.3848,-3.3788,-3.4252,-3.3733,-3.3623,-3.4234,-3.4325,-3.4582,-3.5257,-3.5477,-3.5679,-3.5807,-3.5954,-3.6358,-3.7125,-3.7272,-3.7529,-3.8062,-3.8416,-3.8609,-3.8683,-3.8394,-3.8452,-3.901,-3.938,-3.9757,-3.9814,-3.9728,-3.9632,-3.9814,-3.9804,-3.9766,-3.9737,-3.9747,-3.9766,-3.9728,-3.9814,-3.9784,-3.9762,-3.9327,-3.889,-3.893,-3.8451,-3.7877,-3.7584,-3.7526,-3.7526,-3.7898,-3.7898,-3.7898,-3.7898,0.0,-3.7898,-3.7459,-3.6732,-3.6715,-3.6755,-3.6715,-3.6732,-3.6732,-3.6755,-3.6732,-3.6715,-3.6732,-3.6715,-3.6732,-3.6732,-3.6755,-3.6715,-3.6732,-3.6732,-3.6755,-3.6749,-3.7144,-3.733,-3.7364,-3.7702,-3.7898,-3.7898,-3.7898,-3.7912,-3.7967,-3.7967,-3.7647,-3.7013,-3.6084,-3.5616,-3.5616,-3.5616,-3.5926,-3.6554,-3.6009,0.0,0.0,0.0,0.0,0.0,0.0,0.0,0.0,-3.437,-3.3792,-3.2762,-3.2655,-3.2438,-3.2002,-3.2529,-3.2841,-3.28,-3.3581,-3.3967,-3.3698,-3.4532,-3.5202,-3.5573,-3.5257,-3.5202,-3.5573,-3.5257,-3.5202,-3.5605,-3.5646,-3.5844,-3.6248,-3.6652,-3.6886,-3.696,-3.7221,-3.7661,-3.8028,-3.8083,-3.823,-3.8615,-3.8825,-3.8906,-3.8917,-3.8923,-3.9082,-3.9439,-3.9837,-4.0098,-4.0127,-4.0234,-4.0301,-4.0301,-4.032,-4.032,-4.032,-4.032,-4.032,-4.032,-4.032,-4.032,-4.0279,-3.9942,-3.9708,-3.9794,-3.9519,-3.9235,-3.9181,-3.8584,-3.8007,-3.8294,-3.8294,-3.8278,-3.8278,-3.8294,-3.8278,-3.8294,-3.8278,-3.8007,0.0,0.0,-3.7898,-3.7898,-3.7898,-3.7898,-3.7898,-3.7898,-3.7898,-3.7898,-3.7898,-3.7898,-3.7898,-3.7898,-3.7898,-3.7898,-3.7898,-3.8041,-3.8091,-3.8108,-3.8227,-3.8294,-3.8278,-3.8294,-3.8294,-3.8278,-3.8176,-3.7818,-3.7267,-3.631,-3.5802,-3.5802,-3.5667,-3.6022,-3.6859,-3.6299,-3.6673,-3.8099,-3.7558,-3.7249,-3.7249,-3.7694,-3.7295,-3.5959,-3.5783,-3.542,-3.4753,-3.4263,-3.3942,-3.3782,-3.4469,-3.4839,-3.4673,-3.548,-3.5711,-3.5104,-3.5809,-3.6343,-3.6454,-3.6486,-3.6541,-3.6688,-3.6725,-3.6725,-3.6707,-3.6707,-3.6743,-3.678,-3.7309,-3.7713,-3.7786,-3.8248,-3.8689,-3.8652,-3.867,-3.8707,-3.8707,-3.8723,-3.8707,-3.875,-3.9078,-3.9364,-3.9495,-3.9705,-3.9837,-3.9859,-3.9986,-4.0166,-4.0186,-4.0206,-4.0244,-4.0291,-4.032,-4.032,-4.032,-4.032,-4.031,-4.0308,-4.0269,-4.0342,-4.0466,-4.0502,-4.0499,-4.0385,-3.9411,-3.8565,-3.9774,-3.9791,-3.9791,-3.9791,-3.9791,-3.9808,-3.9791,-3.969,-3.8464,-3.7898,-3.7898,-3.7898,-3.7898,-3.7898,-3.7898,-3.7898,-3.7898,-3.7898,-3.7898,-3.7898,-3.7898,-3.7898,-3.7898,-3.7898,-3.7898,-3.7956,-3.8531,-3.8853,-3.8903,-3.9486,-3.9791,-3.9774,-3.9808,-3.9791,-3.974,-3.9157,-3.8809,-3.8674,-3.7337,-3.6643,-3.6626,-3.5977,-3.5994,-3.6768,-3.6751,-3.7062,-3.7993,-3.7387,-3.7013,-3.7103,-3.6502,-3.5776,-3.4976,-3.489,-3.438,-3.371,-3.3867,-3.3982,-3.398,-3.4347,-3.4558,-3.4581,-3.5328,-3.5811,-3.5786,-3.5984,-3.6421,-3.7064,-3.7268,-3.7621,-3.8248,-3.8288,-3.8251,-3.8303,-3.834,-3.8358,-3.8285,-3.8377,-3.8469,-3.8487,-3.8615,-3.8707,-3.8707,-3.8707,-3.8707,-3.8707,-3.8707,-3.8707,-3.8735,-3.8964,-3.9232,-3.9433,-3.952,-3.9544,-3.9575,-3.9568,-3.9728,-3.9924,-3.9965,-4.0027,-4.0234,-4.0282,-4.0282,-4.0301,-4.0301,-4.031,-4.0317,-4.0307,-4.0362,-4.0458,-4.0493,-4.0499,-4.05,-4.0189,-4.0054,-4.0113,-4.0113,-4.0113,-4.0113,-4.0113,-4.0113,-4.0113,-4.0062,-3.9402,-3.9073,-3.9073,-3.9114,-3.9089,-3.9089,-3.9073,-3.9089,-3.9089,-3.9089,-3.9073,-3.9089,-3.9073,-3.9089,-3.9073,-3.9032,-3.8991,-3.9,-3.9328,-3.948,-3.9514,-3.9834,-3.9986,-3.9986,-3.9986,-3.9986,-3.9969,-3.9724,-3.9783,-4.0138,-3.8345,-3.7567,-3.798,-3.7635,-3.8007,-3.914,-3.8826,-3.9131,-4.0282,-3.9621,-3.9255,-3.9321,-3.9323,-3.8807,-3.7706,-3.7557,-3.7195,-3.6485,-3.6242,-3.6127,-3.6132,-3.6452,-3.6839,-3.7224,-3.7458,-3.76,-3.7644,-3.7267,-3.7174,-3.7553,-3.782,-3.8144,-3.851,-3.8546,-3.8528,-3.8575,-3.8593,-3.8643,-3.8673,-3.8707,-3.8707,-3.8707,-3.8707,-3.8707,-3.8707,-3.8707,-3.8707,-3.8707,-3.8707,-3.8707,-3.8707,-3.881,-3.8939,-3.9045,-3.9178,-3.9253,-3.9285,-3.9427,-3.9551,-3.967,-3.9682,-3.9785,-4.0017,-4.0087,-4.0147,-4.0282,-4.032,-4.031,-4.0308,-4.0307,-4.0342,-4.0424,-4.0485,-4.0491,-4.0495,-4.05,-4.0496,-4.0113,-4.0113,-4.0113,-4.0113,-4.0113,-4.0113,-4.0113,-4.0113,-4.0096,-4.0113,-4.0113,-4.0113,-4.0113,-4.0113,-4.0113,-4.0096,-4.0113,-4.0113,-4.007,-4.0062,-4.0045,-4.002,-4.0011,-3.9884,-3.9833,-3.9833,-3.9849,-3.9875,-3.9849,-3.9875,-3.9849,-3.9833,-3.9833,-3.9875,-3.9884,-4.0011,-4.035,-4.0815,-3.9259,-3.8684,-3.9233,-3.9089,-3.9631,-4.0798,-4.0544,-4.0976,-4.2194,-4.1593,-4.1204,-4.1221,-4.1593,-4.1288,-4.0197,-4.0087,-3.9842,-3.9276,-3.8734,-3.8396,-3.8396,-3.8679,-3.9112,-3.9643,-3.9484,-3.9316,-3.9277,-3.8803,-3.8236,-3.8008,-3.845,-3.8743,-3.8631,-3.8642,-3.8761,-3.8956,-3.8643,-3.8638,-3.8863,-3.8786,-3.8673,-3.8673,-3.8707,-3.8707,-3.8707,-3.8707,-3.8707,-3.8707,-3.8707,-3.8707,-3.8707,-3.8707,-3.8707,-3.8735,-3.8862,-3.9007,-3.9017,-3.917,-3.9311,-3.9389,-3.9414,-3.9539,-3.9728,-3.9807,-3.987,-4.0046,-4.0157,-4.0196,-4.0215,-4.0281,-4.0317,-4.0381,-4.0424,-4.0449,-4.0485,-4.0507,-4.05,-4.0113,-4.0113,-4.0113,-4.0113,-4.0113,-4.0113,-4.0113,-4.0113,-4.0113,-4.0113,-4.0113,-4.0113,-4.0113,-4.0113,-4.0113,-4.0113,-4.0113,-4.0113,-4.0037,-3.9935,-3.9926,-3.9875,-3.9781,-3.9729,-3.9729,-3.9729,-3.9703,-3.9703,-3.972,-3.9703,-3.972,-3.9729,-3.9729,-3.9755,-3.9901,-3.9943,-4.0011,-4.0214,-4.0011,-3.9943,-3.996,-3.9326,-3.9394,-4.0164,-4.0832,-4.1474,-4.2337,-4.1593,-4.1221,-4.117,-4.0721,-4.0299,-4.0164,-4.0121,-4.007,-4.0054,-3.9927,-3.9893,-3.9876,-3.9935,-4.0001,-4.0027,-4.0077,-4.0059,-4.005,-4.0268,-3.9715,-3.874,-3.9272,-3.9607,-3.9085,-3.922,-3.9642,-4.0115,-3.9183,-3.8704,-3.928,-3.8967,-3.8556,-3.8707,-3.8692,-3.8707,-3.8692,-3.8692,-3.8707,-3.8707,-3.8707,-3.8707,-3.8707,-3.8707,-3.8707,-3.8707,-3.8753,-3.875,-3.8765,-3.875,-3.8921,-3.9101,-3.9142,-3.9277,-3.9452,-3.9532,-3.9587,-3.9773,-3.9815,-3.9935,-4.0027,-4.0118,-4.0281,-4.0262,-4.0298,-4.0334,-4.0388,-4.0458,-4.0507,-4.0113,-4.0113,-4.0113,-4.0113,-4.0113,-4.0113,-4.0113,-4.0113,-4.0113,-4.0113,-4.0113,-4.0113,-4.0113,-4.0113,-4.0113,-4.0113,-4.0113,-4.0113,-4.0087,-4.0011,-4.0011,-3.9918,-3.9807,-3.9729,-3.9668,-3.959,-3.959,-3.959,-3.959,-3.959,-3.9537,-3.9484,-3.9537,-3.9616,-3.9718,-4.0244,-4.0575,-4.0644,-4.1066,-4.1259,-4.1268,-4.1059,-4.1525,-4.2642,-4.3047,-4.3318,-4.3589,-4.3362,-4.3172,-4.3012,-4.2743,-4.2389,-4.194,-4.1933,-4.1758,-4.1431,-4.1407,-4.1407,-4.1407,-4.139,-4.1416,-4.1373,-4.1407,-4.1407,-4.1416,-4.1554,-4.1151,-4.0249,-4.0324,-4.0276,-3.9601,-3.9463,-3.9635,-3.9813,-3.8993,-3.8532,-3.885,-3.8684,-3.8481,-3.853,-3.853,-3.8546,-3.8575,-3.8658,-3.8692,-3.8707,-3.8707,-3.8692,-3.8707,-3.8707,-3.8707,-3.8707,-3.8707,-3.8707,-3.8707,-3.8707,-3.8765,-3.8822,-3.8866,-3.895,-3.9178,-3.9259,-3.9331,-3.9628,-3.9693,-3.9751,-3.9903,-3.9965,-4.0068,-4.0099,-4.0224,-4.0316,-4.0398,-4.0468,-4.051,-4.0282,-4.0113,-4.0113,-4.0113,-4.0113,-4.0113,-4.0113,-4.007,-4.0045,-4.0045,-4.002,-4.0037,-4.0062,-4.0037,-4.0045,-4.0037,-4.0037,-4.0011,-3.9961,-3.9961,-3.9935,-3.9858,-3.9746,-3.9625,-3.9537,-3.9458,-3.9432,-3.9448,-3.9432,-3.9432,-3.9395,-3.9325,-3.9379,-3.9458,-3.9578,-4.0273,-4.0714,-4.0959,-4.148,-4.195,-4.228,-4.2446,-4.305,-4.4125,-4.4412,-4.4542,-4.4598,-4.4598,-4.4514,-4.431,-4.431,-4.4046,-4.3485,-4.3491,-4.3322,-4.2997,-4.2956,-4.2912,-4.2956,-4.2912,-4.2956,-4.2912,-4.2939,-4.2912,-4.2939,-4.2939,-4.2472,-4.1578,-4.1482,-4.117,-4.0377,-4.0016,-3.9986,-4.0273,-3.9564,-3.8997,-3.9372,-3.9223,-3.9004,-3.8765,-3.8818,-3.8634,-3.8517,-3.8544,-3.8593,-3.8593,-3.8611,-3.8643,-3.8624,-3.864,-3.8658,-3.8692,-3.8707,-3.8707,-3.8707,-3.8707,-3.8707,-3.8707,-3.8723,-3.8795,-3.895,-3.896,-3.9082,-3.9344,-3.9439,-3.9623,-3.9829,-3.9903,-3.9933,-3.9946,-4.0059,-4.0243,-4.0336,-4.0407,-4.0432,-4.0747,-4.018,-4.013,-4.0197,-4.013,-4.0146,-4.013,-4.018,-3.9994,-3.9926,-3.9926,-3.9926,-3.9884,-3.9901,-3.9901,-3.9884,-3.9901,-3.9781,-3.9694,-3.9606,-3.9563,-3.9475,-3.9342,-3.9342,-3.9325,-3.9342,-3.9325,-3.9325,-3.9299,-3.9299,-3.9299,-3.9315,-3.9325,-3.9395,-3.9541,-3.9727,-4.0041,-4.0833,-4.1094,-4.1613,-4.2752,-4.292,-4.3077,-4.3407,-4.3956,-4.4395,-4.4542,-4.457,-4.4514,-4.431,-4.4281,-4.4207,-4.4059,-4.414,-4.4249,-4.4356,-4.4418,-4.4418,-4.4367,-4.4378,-4.4378,-4.4429,-4.431,-4.4429,-4.4276,-4.4276,-4.3735,-4.2431,-4.2603,-4.2389,-4.1529,-4.092,-4.1178,-4.2063,-4.1162,-4.0727,-4.1433,-4.0652,-4.0267,-3.9717,-3.9533,-3.9331,-3.8636,-3.8399,-3.8597,-3.8631,-3.8524,-3.8595,-3.875,-3.8674,-3.8758,-3.886,-3.8875,-3.8762,-3.8744,-3.8891,-3.8836,-3.9038,-3.9221,-3.8891,-3.8744,-3.875,-3.8995,-3.9231,-3.9581,-3.9815,-3.9857,-3.9914,-3.9981,-3.9992,-3.9924,-4.0058,-4.0196,-4.0262,-4.0252,-4.1745,-4.1508,-4.1491,-4.1491,-4.1484,-4.1001,-4.0798,-4.0747,-4.0265,-3.9986,-3.9901,-3.9884,-3.9833,-3.9772,-3.9668,-3.9746,-3.9875,-3.9755,-3.9677,-3.9625,-3.9642,-3.9563,-3.9432,-3.9405,-3.9395,-3.9315,-3.9315,-3.9315,-3.9315,-3.9315,-3.9315,-3.9315,-3.9315,-3.9557,-4.0076,-4.0623,-4.1061,-4.1421,-4.2267,-4.2817,-4.2817,-4.3169,-4.3465,-4.3626,-4.3975,-4.4212,-4.4286,-4.4286,-4.4229,-4.4039,-4.4056,-4.4027,-4.3998,-4.4097,-4.4212,-4.4286,-4.4355,-4.4412,-4.4412,-4.4525,-4.4598,-4.4598,-4.4598,-4.4598,-4.4598,-4.4581,-4.4344,-4.383,-4.3352,-4.2971,-4.2369,-4.1362,-4.0739,-4.0993,-4.0578,-4.025,-4.0488,-4.0564,-4.0472,-4.0254,-4.0233,-4.0157,-3.9901,-3.9899,-3.9951,-3.9951,-3.9932,-3.9878,-3.9947,-3.9979,-3.9955,-4.0079,-4.0182,-4.0215,-4.0233,-3.9753,-3.9588,-4.0047,-4.0286,-4.027,-4.0178,-4.0049,-4.0259,-4.0337,-4.0458,-4.0527,-4.0741,-4.0685,-4.0605,-4.0209,-4.0141,-4.0087,-4.0017,-4.009,-4.0001,-4.2169,-4.2169,-4.2186,-4.2169,-4.2119,-4.1647,-4.1444,-4.1367,-4.0853,-4.0438,-4.0175,-4.0141,-3.9955,-3.9659,-3.9537,-3.959,-3.9746,-3.9642,-3.9573,-3.9573,-3.9573,-3.9537,-3.9448,-3.9432,-3.9395,-3.9342,-3.9315,-3.9315,-3.9315,-3.9315,-3.9315,-3.9315,-3.9315,-3.9531,-4.0105,-4.0652,-4.1012,-4.1416,-4.2309,-4.2558,-4.2363,-4.2663,-4.2962,-4.3111,-4.341,-4.3776,-4.408,-4.4097,-4.4027,-4.3927,-4.3881,-4.3881,-4.3881,-4.3969,-4.4056,-4.4114,-4.4224,-4.431,-4.4338,-4.4485,-4.4598,-4.4598,-4.4598,-4.4598,-4.4598,-4.4598,-4.4468,-4.4181,-4.3775,-4.3209,-4.2381,-4.1302,-4.0624,-4.0635,-4.0488,-4.0334,-4.0375,-4.0802,-4.0978,-4.0908,-4.0672,-4.0617,-4.0652,-4.0651,-4.065,-4.0704,-4.0704,-4.0722,-4.0756,-4.0825,-4.0873,-4.0906,-4.0918,-4.1113,-4.1242,-4.102,-4.0506,-4.0836,-4.0985,-4.115,-4.1297,-4.1242,-4.1287,-4.1431,-4.1527,-4.1578,-4.1567,-4.1513,-4.1166,-4.0677,-4.0504,-4.0455,-4.022,-3.9897,-3.9791,-4.1988,-4.2038,-4.1937,-4.2099,-4.2132,-4.1998,-4.1921,-4.1904,-4.1683,-4.1205,-4.0704,-4.0644,-4.0311,-3.9734,-3.9658,-3.9551,-3.9601,-3.9428,-3.9352,-3.9352,-3.9325,-3.9342,-3.9342,-3.9342,-3.9342,-3.9315,-3.9315,-3.9315,-3.9315,-3.9315,-3.9315,-3.9315,-3.9315,-3.9398,-3.9381,-3.968,-3.9928,-4.0591,-4.1006,-4.1138,-4.1359,-4.1756,-4.1856,-4.1806,-4.2381,-4.3161,-4.4035,-4.4068,-4.3981,-4.3898,-4.3852,-4.3898,-4.3852,-4.3881,-4.3956,-4.4068,-4.4196,-4.4281,-4.431,-4.4418,-4.4451,-4.4445,-4.4496,-4.4327,-4.4293,-4.4412,-4.4181,-4.3538,-4.3386,-4.2871,-4.1636,-4.1188,-4.1123,-4.142,-4.117,-4.1218,-4.1393,-4.1839,-4.2054,-4.1591,-4.1089,-4.0601,-4.0546,-4.0782,-4.089,-4.0908,-4.0854,-4.0908,-4.1087,-4.1176,-4.0971,-4.1072,-4.1432,-4.1849,-4.2086,-4.2249,-4.1791,-4.1462,-4.148,-4.1572,-4.1754,-4.1772,-4.1912,-4.205,-4.2239,-4.2289,-4.2048,-4.1961,-4.1726,-4.1328,-4.112,-4.0692,-4.0283,-3.9922,-3.9618,-4.3427,-4.3427,-4.3411,-4.3427,-4.3344,-4.2875,-4.2657,-4.259,-4.21,-4.1666,-4.14,-4.1339,-4.1161,-4.0763,-4.0348,-4.0115,-4.0066,-3.9591,-3.9315,-3.9288,-3.9315,-3.9315,-3.9315,-3.9315,-3.9315,-3.9315,-3.9315,-3.9315,-3.9315,-3.9315,-3.9315,-3.9315,-3.9315,-3.958,-4.0044,-4.0498,-4.111,-4.1823,-4.2369,-4.2734,-4.2886,-4.2886,-4.2886,-4.2936,-4.3135,-4.3442,-4.3713,-4.3747,-4.3747,-4.3704,-4.3687,-4.3687,-4.3704,-4.3704,-4.3717,-4.3776,-4.3939,-4.4068,-4.4117,-4.381,-4.3681,-4.3663,-4.3335,-4.3058,-4.3081,-4.3504,-4.342,-4.2844,-4.3064,-4.2811,-4.1593,-4.1204,-4.1027,-4.06,-4.0808,-4.1001,-4.1094,-4.1415,-4.1615,-4.1629,-4.1609,-4.1662,-4.1704,-4.1804,-4.192,-4.1975,-4.1994,-4.2049,-4.214,-4.2141,-4.2414,-4.2466,-4.2627,-4.253,-4.2748,-4.2875,-4.2636,-4.2361,-4.2304,-4.2231,-4.2323,-4.2395,-4.2551,-4.2652,-4.2847,-4.2853,-4.2615,-4.2459,-4.2291,-4.1749,-4.1267,-4.0783,-4.0274,-3.9917,-3.9642,-4.3923,-4.3923,-4.3923,-4.3939,-4.3873,-4.3406,-4.3222,-4.3172,-4.2756,-4.232,-4.2064,-4.1986,-4.1759,-4.1375,-4.0945,-4.0779,-4.068,-4.0044,-3.9588,-3.9353,-3.9311,-3.9315,-3.9315,-3.9315,-3.9315,-3.9315,-3.9315,-3.9315,-3.9315,-3.9315,-3.9315,-3.9315,-3.9315,-3.968,-4.0359,-4.0812,-4.1392,-4.2059,-4.2489,-4.2771,-4.2771,-4.2771,-4.2787,-4.2787,-4.3035,-4.3168,-4.3201,-4.3416,-4.3615,-4.3615,-4.3615,-4.3615,-4.3615,-4.3615,-4.3615,-4.3595,-4.3543,-4.3523,-4.3526,-4.3048,-4.274,-4.2705,-4.2422,-4.2186,-4.2254,-4.2658,-4.2645,-4.2409,-4.2665,-4.2479,-4.1474,-4.1204,-4.0865,-4.018,-4.0377,-4.0604,-4.0778,-4.1042,-4.1326,-4.1473,-4.1711,-4.1909,-4.2015,-4.2118,-4.238,-4.24,-4.2537,-4.2653,-4.2692,-4.2864,-4.3031,-4.3123,-4.3068,-4.3102,-4.3336,-4.3408,-4.3408,-4.3315,-4.3222,-4.313,-4.3094,-4.3094,-4.3163,-4.3143,-4.3277,-4.3365,-4.3206,-4.3308,-4.3197,-4.2375,-4.161,-4.1241,-4.0848,-4.0142,-3.9719,-4.3598,-4.3615,-4.3598,-4.3628,-4.3628,-4.3578,-4.3545,-4.3595,-4.3545,-4.3131,-4.2667,-4.2601,-4.2179,-4.1605,-4.1387,-4.1259,-4.1201,-4.0478,-3.978,-3.9353,-3.9219,-3.9199,-3.9288,-3.9191,-3.9121,-3.9164,-3.9191,-3.9148,-3.8985,-3.9117,-3.9224,-3.9056,-3.9101,-3.9534,-4.0005,-4.0304,-4.0675,-4.1276,-4.1494,-4.1564,-4.1548,-4.1511,-4.1511,-4.1576,-4.2157,-4.244,-4.2542,-4.2969,-4.3402,-4.3568,-4.3615,-4.3549,-4.3532,-4.3532,-4.3466,-4.3284,-4.2978,-4.277,-4.2622,-4.2172,-4.1864,-4.1886,-4.1735,-4.1764,-4.1651,-4.1833,-4.192,-4.1752,-4.2028,-4.1905,-4.1245,-4.1026,-4.0704,-4.0265,-4.0171,-4.0353,-4.0676,-4.0754,-4.0902,-4.123,-4.1415,-4.1459,-4.1459,-4.1525,-4.163,-4.1678,-4.1934,-4.2136,-4.2218,-4.2476,-4.2899,-4.303,-4.2994,-4.316,-4.325,-4.3429,-4.3428,-4.3445,-4.348,-4.3479,-4.3479,-4.3479,-4.3479,-4.3496,-4.3531,-4.3679,-4.3721,-4.3667,-4.3571,-4.3007,-4.2418,-4.1983,-4.1357,-4.064,-3.9867,-4.3615,-4.3615,-4.3615,-4.3615,-4.3615,-4.3615,-4.3615,-4.3615,-4.3615,-4.3466,-4.33,-4.33,-4.2867,-4.2246,-4.1694,-4.1179,-4.0696,-3.9982,-3.9251,-3.8732,-3.8631,-3.891,-3.9095,-3.8772,-3.8546,-3.8562,-3.8562,-3.8339,-3.7972,-3.8434,-3.8421,-3.7927,-3.845,-3.8745,-3.8958,-3.948,-4.0014,-4.0654,-4.1245,-4.1469,-4.1453,-4.1453,-4.1485,-4.1517,-4.1693,-4.1757,-4.1757,-4.1933,-4.2617,-4.3539,-4.3615,-4.3333,-4.2857,-4.2791,-4.2593,-4.2096,-4.1917,-4.1837,-4.1788,-4.1311,-4.1009,-4.1017,-4.0638,-4.029,-4.0306,-4.0836,-4.0802,-4.0611,-4.0788,-4.0942,-4.0415,-4.0298,-4.0155,-4.0138,-4.0113,-4.0146,-4.0279,-4.0279,-4.0353,-4.0483,-4.0784,-4.0932,-4.1024,-4.1213,-4.1393,-4.1437,-4.1547,-4.1696,-4.176,-4.1867,-4.2236,-4.2496,-4.2614,-4.2882,-4.3105,-4.3305,-4.3412,-4.3411,-4.3464,-4.3479,-4.3479,-4.3479,-4.3479,-4.3496,-4.3496,-4.3597,-4.358,-4.354,-4.3416,-4.3339,-4.2868,-4.2279,-4.1736,-4.1059,-4.0262,-4.3615,-4.3615,-4.3615,-4.3615,-4.3615,-4.3615,-4.3615,-4.3615,-4.3615,-4.3615,-4.3539,-4.3265,-4.2974,-4.2568,-4.1851,-4.131,-4.0798,-4.0118,-3.9455,-3.8793,-3.801,-3.7958,-3.8245,-3.8023,-3.7908,-3.7937,-3.7924,-3.7926,-3.7854,-3.7956,-3.7891,-3.7919,-3.7923,-3.8128,-3.8537,-3.9077,-3.974,-4.0451,-4.1146,-4.1492,-4.1492,-4.1492,-4.1525,-4.1492,-4.1492,-4.1398,-4.113,-4.11,-4.1598,-4.2488,-4.2678,-4.2509,-4.2143,-4.2075,-4.1776,-4.107,-4.1003,-4.095,-4.0673,-4.0288,-3.9972,-3.9818,-3.9501,-3.9395,-3.9348,-3.9804,-4.0,-3.9816,-4.0103,-4.0141,-4.001,-3.9935,-3.9986,-4.0011,-4.0062,-4.0113,-4.0113,-4.0121,-4.0113,-4.0171,-4.0328,-4.0524,-4.0507,-4.0784,-4.0861,-4.0932,-4.1047,-4.1157,-4.123,-4.1366,-4.1565,-4.1867,-4.2074,-4.2221,-4.24,-4.2595,-4.2864,-4.2958,-4.3304,-4.3357,-4.3391,-4.3409,-4.3479,-4.3479,-4.3479,-4.3479,-4.3479,-4.3479,-4.3456,-4.3302,-4.2945,-4.2598,-4.2103,-4.135,-4.0543,-4.3615,-4.3615,-4.3615,-4.3615,-4.3615,-4.3598,-4.3539,-4.3462,-4.3432,-4.3372,-4.3174,-4.271,-4.2349,-4.2332,-4.1529,-4.1295,-4.1131,-4.0355,-3.9734,-3.8747,-3.7585,-3.6963,-3.7385,-3.7547,-3.7407,-3.7359,-3.7375,-3.7695,-3.781,-3.7558,-3.7682,-3.7732,-3.748,-3.7712,-3.8185,-3.8842,-3.9581,-4.0252,-4.0747,-4.101,-4.1042,-4.1042,-4.1008,-4.0992,-4.0823,-4.053,-4.0158,-4.0066,-4.0367,-4.1011,-4.1332,-4.1486,-4.1395,-4.1279,-4.0811,-4.0189,-3.9891,-3.967,-3.9316,-3.9098,-3.8865,-3.8516,-3.881,-3.8871,-3.8523,-3.8969,-3.9338,-3.9255,-3.9547,-3.9744,-3.9831,-3.9935,-3.9944,-3.991,-3.9986,-4.0087,-4.007,-4.007,-4.0113,-4.0113,-4.0096,-4.0096,-4.0113,-4.0113,-4.0146,-4.0483,-4.0604,-4.0683,-4.0761,-4.0861,-4.1094,-4.1388,-4.1499,-4.1503,-4.1652,-4.1817,-4.2118,-4.2382,-4.2902,-4.3124,-4.3214,-4.3267,-4.3427,-4.3479,-4.3479,-4.3479,-4.3479,-4.3479,-4.3479,-4.3442,-4.3204,-4.2928,-4.2543,-4.1607,-4.0728,-4.3615,-4.3615,-4.3615,-4.3615,-4.3615,-4.3615,-4.3265,-4.2803,-4.282,-4.2538,-4.2045,-4.1803,-4.1459,-4.0992,-4.0805,-4.0409,-4.0021,-3.9677,-3.9013,-3.7813,-3.7015,-3.658,-3.686,-3.7229,-3.7126,-3.7018,-3.7745,-3.7735,-3.7242,-3.7299,-3.7213,-3.696,-3.6923,-3.7033,-3.7615,-3.7867,-3.8436,-3.944,-3.9824,-3.9925,-3.997,-3.9985,-3.9955,-3.9879,-3.9423,-3.8796,-3.8213,-3.8061,-3.8137,-3.8742,-4.0126,-4.0765,-4.0071,-3.9848,-3.9339,-3.851,-3.8182,-3.8035,-3.79,-3.7892,-3.778,-3.7693,-3.7809,-3.7751,-3.7677,-3.8181,-3.8535,-3.8645,-3.9034,-3.9388,-3.959,-3.9703,-3.9755,-3.9781,-3.9875,-3.9952,-3.9961,-4.0037,-4.0113,-4.0113,-4.0113,-4.0113,-4.0113,-4.0113,-4.0113,-4.0138,-4.0171,-4.0229,-4.0336,-4.0441,-4.0642,-4.0949,-4.0955,-4.1024,-4.1208,-4.1338,-4.1587,-4.1892,-4.2362,-4.2713,-4.279,-4.3105,-4.3268,-4.3374,-4.3479,-4.3479,-4.3479,-4.3479,-4.3479,-4.3479,-4.3479,-4.3277,-4.2818,-4.1847,-4.1058,-4.2943,-4.2648,-4.2974,-4.2943,-4.2648,-4.2617,-4.2412,-4.2126,-4.2094,-4.1884,-4.1492,-4.1209,-4.0839,-4.0493,-4.0161,-3.9753,-3.9481,-3.9373,-3.8871,-3.8053,-3.7509,-3.724,-3.7079,-3.7439,-3.7537,-3.7051,-3.7203,-3.7288,-3.7387,-3.7105,-3.6963,-3.6836,-3.6357,-3.6412,-3.6881,-3.7,-3.7693,-3.8687,-3.8945,-3.9065,-3.9328,-3.9388,-3.9185,-3.8886,-3.8287,-3.7629,-3.7079,-3.7019,-3.7004,-3.7413,-3.8589,-3.9278,-3.8668,-3.845,-3.7951,-3.7201,-3.728,-3.7145,-3.7071,-3.7191,-3.7265,-3.6966,-3.7191,-3.7161,-3.7191,-3.7501,-3.7994,-3.8294,-3.8618,-3.8936,-3.9352,-3.9599,-3.9651,-3.9642,-3.9746,-3.9824,-3.9833,-3.9986,-4.0113,-4.0113,-4.0113,-4.0113,-4.0113,-4.0113,-4.0113,-4.0113,-4.0113,-4.0171,-4.0171,-4.0254,-4.0279,-4.0434,-4.0458,-4.0538,-4.0761,-4.0949,-4.1157,-4.1432,-4.1778,-4.2053,-4.216,-4.2617,-4.3087,-4.3232,-4.3375,-4.3479,-4.3479,-4.3479,-4.3479,-4.3479,-4.3479,-4.3479,-4.3057,-4.2011,-4.137,-4.2045,-4.1558,-4.219,-4.2094,-4.1558,-4.1525,-4.1492,-4.136,-4.136,-4.1227,-4.1093,-4.0581,-4.027,-4.0181,-3.9717,-3.9424,-3.9388,-3.9343,-3.896,-3.8332,-3.8212,-3.7928,-3.7753,-3.7848,-3.8032,-3.7614,-3.7518,-3.7738,-3.7843,-3.733,-3.7045,-3.7105,-3.6133,-3.6028,-3.642,-3.657,-3.709,-3.8108,-3.8257,-3.8437,-3.8856,-3.891,-3.8631,-3.8033,-3.7584,-3.6971,-3.6477,-3.6327,-3.6342,-3.6372,-3.6851,-3.7047,-3.7121,-3.7192,-3.6995,-3.6351,-3.6692,-3.6662,-3.643,-3.6662,-3.6753,-3.6321,-3.6723,-3.6784,-3.6554,-3.6829,-3.7354,-3.7764,-3.8096,-3.8407,-3.905,-3.9239,-3.9372,-3.9468,-3.959,-3.9651,-3.9703,-3.9884,-3.9995,-4.0062,-4.0087,-4.0113,-4.0113,-4.0113,-4.0113,-4.0113,-4.0113,-4.0113,-4.0113,-4.0096,-4.0146,-4.0171,-4.0229,-4.0254,-4.0458,-4.0531,-4.0731,-4.0943,-4.1225,-4.1428,-4.1604,-4.2074,-4.2559,-4.305,-4.325,-4.3339,-4.3427,-4.3463,-4.3463,-4.3462,-4.3479,-4.3479,-4.291,-4.2103,-4.1572,-4.1624,-4.1492,-4.1624,-4.1591,-4.1492,-4.1492,-4.1127,-4.0703,-4.0684,-4.0305,-3.9824,-3.9646,-3.9646,-3.9553,-3.9532,-3.9388,-3.9388,-3.9358,-3.908,-3.8542,-3.8437,-3.8242,-3.8272,-3.7928,-3.8182,-3.8886,-3.8781,-3.8646,-3.8302,-3.7689,-3.7389,-3.715,-3.6193,-3.5938,-3.6387,-3.6522,-3.6742,-3.7505,-3.756,-3.7649,-3.7829,-3.7878,-3.7644,-3.709,-3.6836,-3.6402,-3.5863,-3.5684,-3.5669,-3.5684,-3.5759,-3.5839,-3.6029,-3.6393,-3.6305,-3.5931,-3.5878,-3.5941,-3.5814,-3.5782,-3.5797,-3.5683,-3.5953,-3.5985,-3.5921,-3.6272,-3.6878,-3.6998,-3.7401,-3.7822,-3.8407,-3.8546,-3.8827,-3.9121,-3.9379,-3.9441,-3.9511,-3.9668,-3.9807,-3.9884,-3.9986,-4.0087,-4.0062,-4.0062,-4.0087,-4.0087,-4.0113,-4.0113,-4.0113,-4.0113,-4.0096,-4.0121,-4.0121,-4.0121,-4.0171,-4.0221,-4.0303,-4.0451,-4.07,-4.0873,-4.1134,-4.1516,-4.1969,-4.2342,-4.2808,-4.3105,-4.3214,-4.3286,-4.3393,-4.3375,-4.3427,-4.3479,-4.2894,-4.2237,-4.1445,-4.0771,-4.0478,-4.0839,-4.0771,-4.0428,-4.0409,-4.0235,-3.995,-3.9915,-3.9737,-3.9481,-3.9388,-3.9388,-3.9388,-3.9388,-3.9388,-3.9388,-3.9388,-3.9179,-3.8901,-3.8586,-3.8631,-3.8766,-3.8227,-3.8571,-3.9155,-3.9343,-3.9239,-3.8886,-3.8257,-3.7928,-3.7629,-3.6641,-3.6357,-3.6593,-3.6182,-3.6477,-3.6969,-3.6901,-3.6802,-3.7104,-3.7218,-3.6958,-3.6656,-3.6432,-3.6148,-3.5639,-3.5489,-3.5504,-3.5504,-3.5504,-3.5489,-3.5609,-3.5729,-3.5848,-3.5564,-3.5489,-3.5504,-3.5504,-3.5519,-3.5672,-3.5983,-3.6013,-3.6207,-3.6454,-3.6808,-3.6892,-3.6985,-3.709,-3.7517,-3.7809,-3.7854,-3.801,-3.8282,-3.8634,-3.8854,-3.898,-3.9335,-3.9468,-3.9599,-3.9729,-3.9833,-3.9986,-3.9986,-4.0037,-4.0062,-4.0087,-4.0113,-4.0096,-4.0113,-4.0113,-4.0113,-4.0113,-4.0113,-4.0113,-4.0113,-4.0113,-4.0171,-4.0271,-4.0451,-4.0628,-4.1013,-4.1225,-4.1459,-4.1976,-4.25,-4.2808,-4.2828,-4.305,-4.3268,-4.3322,-4.3266,-4.2919,-4.2369,-4.1487,-3.995,-3.9445,-4.0041,-3.995,-3.9445,-3.9388,-3.9424,-3.9388,-3.9424,-3.9424,-3.9388,-3.9388,-3.9388,-3.9388,-3.9388,-3.9388,-3.9388,-3.9388,-3.9358,-3.9275,-3.8916,-3.8945,-3.9095,-3.9005,-3.8916,-3.9269,-3.9316,-3.9337,-3.9179,-3.8575,-3.8351,-3.7928,-3.7078,-3.666,-3.6697,-3.6,-3.6219,-3.6137,-3.6143,-3.6026,-3.6419,-3.664,-3.6599,-3.6257,-3.6201,-3.5932,-3.5484,-3.5472,-3.5489,-3.5489,-3.5489,-3.5489,-3.5489,-3.5489,-3.5489,-3.5489,-3.5489,-3.5549,-3.5714,-3.5744,-3.6058,-3.6596,-3.6671,-3.6941,-3.715,-3.7218,-3.7327,-3.7388,-3.7404,-3.7528,-3.7713,-3.7537,-3.7548,-3.7769,-3.804,-3.8165,-3.8266,-3.8507,-3.8761,-3.898,-3.9292,-3.9573,-3.9713,-3.9858,-3.9884,-3.9986,-4.0011,-4.007,-4.007,-4.0113,-4.0113,-4.0113,-4.0113,-4.0113,-4.0113,-4.0113,-4.0113,-4.0121,-4.0146,-4.0246,-4.0328,-4.0458,-4.0659,-4.0855,-4.1001,-4.1486,-4.1916,-4.2344,-4.2462,-4.2693,-4.3013,-4.3051,-4.2741,-4.2066,-4.1183,-3.9481,-3.9409,-3.9517,-3.9481,-3.9424,-3.9388,-3.9388,-3.9388,-3.9388,-3.9388,-3.9388,-3.9388,-3.9388,-3.9388,-3.9388,-3.9388,-3.9388,-3.9388,-3.9343,-3.9224,-3.9119,-3.9053,-3.9313,-3.9379,-3.9113,-3.9286,-3.9192,-3.9265,-3.9145,-3.8552,-3.8154,-3.7946,-3.7277,-3.6596,-3.6221,-3.5784,-3.5602,-3.5259,-3.5093,-3.5108,-3.5211,-3.5303,-3.5248,-3.5241,-3.5311,-3.5395,-3.5309,-3.5407,-3.5489,-3.5489,-3.5489,-3.5489,-3.5489,-3.5489,-3.5489,-3.5489,-3.5564,-3.5759,-3.6193,-3.6342,-3.6626,-3.7165,-3.73,-3.7345,-3.7569,-3.7554,-3.7484,-3.7379,-3.7394,-3.7496,-3.7738,-3.7634,-3.7763,-3.7668,-3.7608,-3.7551,-3.7576,-3.7879,-3.8112,-3.8282,-3.8562,-3.9098,-3.9435,-3.9609,-3.9755,-3.9858,-3.9935,-3.9969,-4.002,-4.0037,-4.0113,-4.0113,-4.0113,-4.0113,-4.0113,-4.0113,-4.0113,-4.0113,-4.0113,-4.0113,-4.0171,-4.0246,-4.0196,-4.036,-4.049,-4.0737,-4.1303,-4.1656,-4.1825,-4.2098,-4.244,-4.2541,-4.2563,-4.1741,-4.0833,-3.9388,-3.9388,-3.9388,-3.9388,-3.9388,-3.9388,-3.9388,-3.9388,-3.9388,-3.9388,-3.9388,-3.9388,-3.9388,-3.9388,-3.9388,-3.9388,-3.9388,-3.9388,-3.9113,-3.8817,-3.8737,-3.8686,-3.8519,-3.8549,-3.8623,-3.9023,-3.898,-3.8943,-3.8862,-3.8713,-3.836,-3.7902,-3.727,-3.6527,-3.5972,-3.5467,-3.5125,-3.4852,-3.4698,-3.4668,-3.475,-3.4783,-3.4802,-3.4887,-3.5067,-3.5133,-3.5213,-3.5407,-3.5489,-3.5489,-3.5489,-3.5489,-3.5609,-3.5818,-3.6058,-3.6088,-3.6432,-3.6567,-3.6537,-3.6836,-3.733,-3.7778,-3.8003,-3.8153,-3.8332,-3.8182,-3.7958,-3.7958,-3.7599,-3.7485,-3.7419,-3.7043,-3.6843,-3.6795,-3.6956,-3.6939,-3.6951,-3.7294,-3.756,-3.7706,-3.7851,-3.8351,-3.8838,-3.9169,-3.9425,-3.9729,-3.9781,-3.9833,-3.9884,-3.991,-4.0011,-4.0113,-4.0113,-4.0113,-4.0113,-4.0113,-4.0113,-4.0113,-4.0113,-4.0113,-4.0113,-4.0096,-4.0113,-4.0113,-4.0229,-4.0531,-4.0849,-4.1042,-4.1253,-4.1547,-4.1849,-4.1916,-4.1946,-4.1312,-4.0422,-3.9388,-3.9388,-3.9388,-3.9388,-3.9388,-3.9388,-3.9388,-3.9388,-3.9388,-3.9388,-3.9388,-3.9388,-3.9388,-3.9388,-3.9388,-3.9388,-3.9388,-3.9352,-3.8981,-3.8546,-3.8341,-3.8307,-3.8309,-3.8229,-3.842,-3.8782,-3.876,-3.8723,-3.8723,-3.8598,-3.8355,-3.8032,-3.7629,-3.6969,-3.6245,-3.5648,-3.5171,-3.4612,-3.4515,-3.4515,-3.4597,-3.4631,-3.4683,-3.4817,-3.4949,-3.5082,-3.5129,-3.5213,-3.5311,-3.5326,-3.5392,-3.5466,-3.5735,-3.6129,-3.6522,-3.6731,-3.721,-3.7419,-3.733,-3.7494,-3.7973,-3.8392,-3.8661,-3.8811,-3.9104,-3.8886,-3.8646,-3.8646,-3.8347,-3.7734,-3.7154,-3.6944,-3.661,-3.6401,-3.614,-3.6146,-3.6212,-3.6569,-3.6753,-3.6753,-3.6951,-3.7458,-3.7953,-3.8523,-3.9007,-3.9494,-3.9651,-3.9651,-3.9729,-3.9781,-3.9858,-3.9961,-4.0011,-4.0011,-4.0037,-4.0037,-4.0062,-4.0113,-4.0113,-4.0113,-4.0113,-4.0113,-4.0113,-4.0113,-4.0113,-4.0221,-4.0483,-4.0604,-4.0707,-4.0949,-4.1139,-4.1321,-4.12,-4.0652,-3.9978,-3.9388,-3.9388,-3.9388,-3.9388,-3.9388,-3.9388,-3.9388,-3.9388,-3.9388,-3.9388,-3.9388,-3.9388,-3.9388,-3.9388,-3.9373,-3.9373,-3.9388,-3.9213,-3.8956,-3.8854,-3.8833,-3.859,-3.8458,-3.8458,-3.8642,-3.8708,-3.8612,-3.8553,-3.8478,-3.8389,-3.8397,-3.8361,-3.7879,-3.7608,-3.6997,-3.6102,-3.5354,-3.4801,-3.4486,-3.4414,-3.4448,-3.4448,-3.4448,-3.4481,-3.4631,-3.4731,-3.4765,-3.4916,-3.5001,-3.5049,-3.5299,-3.5621,-3.6026,-3.6526,-3.6903,-3.7336,-3.7938,-3.8162,-3.8177,-3.8257,-3.8631,-3.9095,-3.929,-3.9245,-3.9343,-3.9373,-3.9298,-3.9245,-3.8925,-3.8631,-3.8123,-3.7689,-3.6926,-3.6244,-3.5864,-3.5746,-3.5782,-3.575,-3.591,-3.5814,-3.6164,-3.6814,-3.7191,-3.778,-3.8311,-3.8799,-3.9239,-3.9249,-3.9573,-3.9677,-3.9703,-3.9781,-3.9858,-3.9901,-3.9926,-3.9977,-4.0011,-4.0062,-4.0087,-4.0087,-4.0113,-4.0113,-4.0113,-4.0113,-4.0113,-4.0113,-4.0096,-4.0279,-4.0402,-4.0328,-4.0458,-4.0754,-4.0683,-4.0212,-3.9425,-3.9388,-3.9388,-3.9388,-3.9388,-3.9388,-3.9388,-3.9388,-3.9388,-3.9388,-3.9388,-3.9388,-3.9388,-3.9388,-3.9373,-3.9265,-3.9213,-3.9177,-3.9017,-3.8663,-3.8436,-3.8385,-3.8289,-3.8208,-3.8288,-3.8412,-3.8427,-3.8352,-3.8329,-3.8277,-3.824,-3.824,-3.8167,-3.7875,-3.7244,-3.6678,-3.6272,-3.5581,-3.5131,-3.4632,-3.4428,-3.438,-3.438,-3.438,-3.4414,-3.4597,-3.4698,-3.4731,-3.4835,-3.4902,-3.5086,-3.55,-3.5918,-3.6353,-3.699,-3.7501,-3.7858,-3.8475,-3.8743,-3.8838,-3.8919,-3.917,-3.9239,-3.9373,-3.9388,-3.9388,-3.9388,-3.9388,-3.9373,-3.9343,-3.8931,-3.7883,-3.7494,-3.703,-3.6207,-3.5714,-3.5549,-3.5489,-3.5489,-3.5522,-3.5636,-3.599,-3.6492,-3.6814,-3.7055,-3.7576,-3.8067,-3.8507,-3.8909,-3.9222,-3.9547,-3.9573,-3.9625,-3.9703,-3.9772,-3.9798,-3.9858,-3.9961,-4.0011,-4.0054,-4.0087,-4.007,-4.0113,-4.0113,-4.0113,-4.0113,-4.0113,-4.0113,-4.0113,-4.0121,-4.0196,-4.0221,-4.0303,-4.0086,-3.9813,-3.9064,-3.9373,-3.9301,-3.9301,-3.9352,-3.9388,-3.9388,-3.9388,-3.9388,-3.9388,-3.9388,-3.9388,-3.9388,-3.9352,-3.9265,-3.9177,-3.9053,-3.898,-3.8752,-3.8385,-3.8245,-3.8193,-3.8038,-3.7906,-3.7941,-3.8277,-3.8202,-3.8202,-3.8202,-3.824,-3.8202,-3.8,-3.7719,-3.7445,-3.7014,-3.6997,-3.6272,-3.5778,-3.5348,-3.5029,-3.4345,-3.4185,-3.4264,-3.4147,-3.4147,-3.4332,-3.4597,-3.4718,-3.4888,-3.5102,-3.536,-3.5785,-3.6379,-3.6837,-3.739,-3.8053,-3.846,-3.8792,-3.909,-3.9213,-3.9301,-3.9409,-3.9388,-3.9388,-3.9388,-3.9388,-3.9388,-3.9388,-3.9394,-3.923,-3.8646,-3.7479,-3.7195,-3.6701,-3.5848,-3.5654,-3.5489,-3.5489,-3.5489,-3.5489,-3.5554,-3.5878,-3.6085,-3.6133,-3.6399,-3.6951,-3.7546,-3.8238,-3.859,-3.8827,-3.9185,-3.9458,-3.9511,-3.959,-3.9642,-3.9668,-3.9755,-3.9858,-3.9952,-4.0003,-4.0037,-4.0045,-4.007,-4.0113,-4.0113,-4.0113,-4.0113,-4.0113,-4.0113,-4.0113,-4.0113,-4.0146,-4.0171,-3.9983,-3.9699,-3.9046,-3.9301,-3.9104,-3.9104,-3.9228,-3.9352,-3.9388,-3.9373,-3.9337,-3.9352,-3.9337,-3.9337,-3.9337,-3.9265,-3.9141,-3.9017,-3.8907,-3.8708,-3.8538,-3.8375,-3.8448,-3.8084,-3.8084,-3.8188,-3.8246,-3.8127,-3.8165,-3.8037,-3.7924,-3.7962,-3.7758,-3.7438,-3.713,-3.6835,-3.7009,-3.7878,-3.7483,-3.657,-3.5526,-3.5233,-3.4304,-3.3633,-3.3791,-3.3638,-3.3534,-3.385,-3.4149,-3.4249,-3.4714,-3.4957,-3.5311,-3.5817,-3.6539,-3.7365,-3.7541,-3.8105,-3.8832,-3.8957,-3.9156,-3.9352,-3.9388,-3.9352,-3.9388,-3.9388,-3.9388,-3.9388,-3.9388,-3.9388,-3.9394,-3.8931,-3.8242,-3.7494,-3.6896,-3.6267,-3.5774,-3.5579,-3.5489,-3.5489,-3.5489,-3.5489,-3.5489,-3.5489,-3.5522,-3.5554,-3.5733,-3.6321,-3.7011,-3.7822,-3.8294,-3.8479,-3.8772,-3.9104,-3.9405,-3.9484,-3.9484,-3.9537,-3.9642,-3.9746,-3.9849,-3.9926,-3.9961,-3.9995,-4.002,-4.0045,-4.0087,-4.0113,-4.0113,-4.0113,-4.0113,-4.0113,-4.0113,-4.0113,-4.0087,-3.9876,-3.9647,-3.9134,-3.909,-3.8892,-3.8907,-3.8943,-3.898,-3.9031,-3.9017,-3.9017,-3.898,-3.9017,-3.9017,-3.8995,-3.898,-3.887,-3.8723,-3.8627,-3.8464,-3.7696,-3.7667,-3.8716,-3.7859,-3.8222,-3.8351,-3.8135,-3.7848,-3.7491,-3.7323,-3.6986,-3.6385,-3.6674,-3.6464,-3.6068,-3.6002,-3.6174,-3.6219,-3.5881,-3.5107,-3.4437,-3.3942,-3.332,-3.2638,-3.2747,-3.2846,-3.2574,-3.3143,-3.3545,-3.3601,-3.4231,-3.4685,-3.5105,-3.5665,-3.6239,-3.7183,-3.7475,-3.7734,-3.8435,-3.8664,-3.8811,-3.8958,-3.9017,-3.9156,-3.9228,-3.9388,-3.9352,-3.9388,-3.9388,-3.9388,-3.9224,-3.8671,-3.8028,-3.7494,-3.6866,-3.6252,-3.5714,-3.5489,-3.5489,-3.5489,-3.5489,-3.5489,-3.5489,-3.5489,-3.5489,-3.5489,-3.5489,-3.5941,-3.6164,-3.689,-3.7706,-3.8067,-3.8351,-3.8673,-3.9148,-3.9352,-3.9352,-3.9388,-3.9468,-3.9563,-3.9668,-3.9746,-3.9807,-3.9884,-3.9961,-3.9995,-4.002,-4.0045,-4.0113,-4.0113,-4.0113,-4.0113,-4.0113,-4.0113,-4.0113,-4.0011,-3.9859,-3.9613,-3.887,-3.8723,-3.8686,-3.8649,-3.8598,-3.8745,-3.8782,-3.8782,-3.8782,-3.8782,-3.8819,-3.8819,-3.8745,-3.8598,-3.8263,-3.7962,-3.7848,-3.6975,-3.664,-3.7813,-3.699,-3.7043,-3.7374,-3.7632,-3.6911,-3.657,-3.6399,-3.6148,-3.5775,-3.5669,-3.5467,-3.5196,-3.491,-3.4705,-3.475,-3.4781,-3.4796,-3.4219,-3.3632,-3.2878,-3.2243,-3.2067,-3.2339,-3.2317,-3.2701,-3.3281,-3.3355,-3.3758,-3.4362,-3.4942,-3.5386,-3.5836,-3.6732,-3.6985,-3.7014,-3.7424,-3.7691,-3.7729,-3.7776,-3.78,-3.7852,-3.8017,-3.8767,-3.9265,-3.9301,-3.9265,-3.9265,-3.9041,-3.843,-3.7848,-3.7252,-3.666,-3.5944,-3.5407,-3.5424,-3.5424,-3.5392,-3.5392,-3.5457,-3.5457,-3.5504,-3.5504,-3.5489,-3.5489,-3.5636,-3.5733,-3.591,-3.6769,-3.7594,-3.7867,-3.8153,-3.8551,-3.8887,-3.8871,-3.9007,-3.9255,-3.9362,-3.9458,-3.9537,-3.9573,-3.9755,-3.9833,-3.9893,-3.9944,-3.9986,-4.0011,-4.0087,-4.0113,-4.0087,-4.0113,-4.0113,-4.0113,-4.0113,-3.9994,-3.9817,-3.8649,-3.8478,-3.8478,-3.8366,-3.824,-3.836,-3.8546,-3.8657,-3.862,-3.8546,-3.8598,-3.842,-3.8234,-3.8098,-3.7448,-3.7063,-3.6766,-3.5963,-3.6006,-3.5926,-3.5926,-3.6034,-3.6102,-3.6128,-3.6088,-3.5804,-3.5534,-3.544,-3.5467,-3.5102,-3.4759,-3.4384,-3.381,-3.3641,-3.3872,-3.4258,-3.4326,-3.354,-3.3274,-3.238,-3.1545,-3.1978,-3.2142,-3.2304,-3.279,-3.3395,-3.3754,-3.4233,-3.4848,-3.5292,-3.5534,-3.5954,-3.6171,-3.594,-3.5872,-3.5976,-3.6322,-3.6441,-3.6448,-3.6501,-3.6376,-3.6736,-3.7797,-3.8598,-3.8833,-3.8642,-3.8708,-3.8347,-3.7777,-3.736,-3.6897,-3.6115,-3.5314,-3.5246,-3.5311,-3.5311,-3.5246,-3.5279,-3.5392,-3.5457,-3.5472,-3.5504,-3.5489,-3.5489,-3.5669,-3.5854,-3.6045,-3.6394,-3.708,-3.7208,-3.749,-3.7735,-3.8039,-3.825,-3.8463,-3.8662,-3.8925,-3.8952,-3.9158,-3.9265,-3.9478,-3.9677,-3.9755,-3.9807,-3.9833,-3.991,-3.9986,-4.0062,-4.0087,-4.0087,-4.0096,-4.0113,-4.0113,-4.0096,-3.9901,-3.8464,-3.8277,-3.8277,-3.7924,-3.7246,-3.6738,-3.6869,-3.7309,-3.6816,-3.6529,-3.6529,-3.6529,-3.6685,-3.6385,-3.6134,-3.6015,-3.5669,-3.5386,-3.5695,-3.5639,-3.5402,-3.6054,-3.6301,-3.6208,-3.588,-3.5374,-3.4952,-3.4614,-3.3992,-3.3882,-3.3869,-3.3411,-3.3253,-3.3124,-3.3283,-3.3586,-3.3081,-3.2754,-3.2769,-3.2053,-3.134,-3.1679,-3.1867,-3.2318,-3.2793,-3.3413,-3.3824,-3.4323,-3.4977,-3.5631,-3.5245,-3.5526,-3.6941,-3.6383,-3.6011,-3.6279,-3.6361,-3.628,-3.5871,-3.5762,-3.5573,-3.5274,-3.5958,-3.6438,-3.6953,-3.7377,-3.7601,-3.7448,-3.6988,-3.6567,-3.6256,-3.5651,-3.5104,-3.5049,-3.5115,-3.5115,-3.5082,-3.5148,-3.5276,-3.5538,-3.5571,-3.5741,-3.5696,-3.5759,-3.5938,-3.6103,-3.6334,-3.6553,-3.6738,-3.6936,-3.6971,-3.723,-3.7512,-3.778,-3.7725,-3.7854,-3.8197,-3.8479,-3.8634,-3.8871,-3.9158,-3.9362,-3.9547,-3.9599,-3.9556,-3.9703,-3.9926,-3.991,-3.9773,-4.002,-4.007,-4.0096,-4.0096,-4.007,-4.0054,-3.7924,-3.7271,-3.7567,-3.7193,-3.632,-3.5494,-3.544,-3.5816,-3.5682,-3.5628,-3.5628,-3.5669,-3.5628,-3.5628,-3.5359,-3.5128,-3.5047,-3.4343,-3.4302,-3.4556,-3.4916,-3.5154,-3.5611,-3.5953,-3.5483,-3.4999,-3.4658,-3.4318,-3.3532,-3.3199,-3.3124,-3.3167,-3.3124,-3.3136,-3.3167,-3.3177,-3.2676,-3.2378,-3.2135,-3.1775,-3.1599,-3.1587,-3.2089,-3.2303,-3.2817,-3.3269,-3.3646,-3.4186,-3.4806,-3.5384,-3.4848,-3.5232,-3.6315,-3.5862,-3.5478,-3.566,-3.5634,-3.5503,-3.5241,-3.4955,-3.466,-3.4254,-3.4059,-3.3993,-3.4615,-3.5159,-3.6052,-3.6548,-3.61,-3.57,-3.5512,-3.5276,-3.5056,-3.485,-3.4883,-3.4883,-3.4949,-3.5016,-3.5278,-3.5585,-3.58,-3.6033,-3.6096,-3.6129,-3.6312,-3.6671,-3.6866,-3.6974,-3.7076,-3.7098,-3.6936,-3.6901,-3.7142,-3.7403,-3.7323,-3.7318,-3.7642,-3.7918,-3.7924,-3.8226,-3.8678,-3.8898,-3.8936,-3.9044,-3.9179,-3.9286,-3.9339,-3.9418,-3.9375,-3.9627,-3.9825,-3.9841,-3.9893,-4.0045,-4.0045,-3.7063,-3.5709,-3.6399,-3.6201,-3.5467,-3.4662,-3.4314,-3.4384,-3.4951,-3.5373,-3.5305,-3.5346,-3.5224,-3.491,-3.4538,-3.4301,-3.4134,-3.3611,-3.3381,-3.3217,-3.3933,-3.435,-3.4572,-3.4482,-3.4958,-3.4848,-3.4645,-3.4401,-3.3954,-3.3684,-3.3483,-3.3262,-3.3332,-3.3382,-3.335,-3.3325,-3.2943,-3.2554,-3.2654,-3.2629,-3.2064,-3.229,-3.2867,-3.2604,-3.2893,-3.3269,-3.3432,-3.3759,-3.4198,-3.455,-3.4864,-3.5123,-3.5403,-3.5448,-3.5183,-3.4981,-3.5168,-3.4889,-3.4679,-3.4379,-3.3741,-3.3186,-3.2558,-3.2536,-3.3184,-3.3764,-3.471,-3.5325,-3.4974,-3.5072,-3.5,-3.4937,-3.4766,-3.4902,-3.5053,-3.5166,-3.5375,-3.5492,-3.5745,-3.6024,-3.6181,-3.6416,-3.6701,-3.673,-3.6918,-3.7295,-3.7509,-3.7539,-3.7689,-3.7653,-3.7305,-3.7002,-3.7086,-3.7305,-3.7091,-3.7126,-3.7278,-3.741,-3.7407,-3.7546,-3.7953,-3.8153,-3.8278,-3.8379,-3.8463,-3.8502,-3.8569,-3.8624,-3.8778,-3.9092,-3.9312,-3.9487,-3.9618,-3.9653,-3.9893,-3.5975,-3.5548,-3.5169,-3.4868,-3.4579,-3.3768,-3.3454,-3.3411,-3.3598,-3.3797,-3.3725,-3.3755,-3.3797,-3.3839,-3.3683,-3.3539,-3.3368,-3.3326,-3.3167,-3.3312,-3.3671,-3.411,-3.4462,-3.4726,-3.4931,-3.5056,-3.4944,-3.4655,-3.4424,-3.4299,-3.4286,-3.4286,-3.4211,-3.4022,-3.359,-3.3621,-3.3357,-3.2842,-3.3106,-3.3006,-3.2328,-3.2629,-3.3093,-3.3282,-3.3633,-3.3784,-3.3997,-3.4336,-3.455,-3.4738,-3.5165,-3.5604,-3.6128,-3.5981,-3.5742,-3.5395,-3.5207,-3.4856,-3.4387,-3.3997,-3.3495,-3.2805,-3.2349,-3.2329,-3.2521,-3.287,-3.3294,-3.3737,-3.4108,-3.4328,-3.4568,-3.4548,-3.4646,-3.4942,-3.5292,-3.5549,-3.579,-3.5988,-3.6236,-3.6457,-3.6615,-3.6902,-3.7169,-3.7421,-3.7595,-3.7829,-3.8078,-3.8272,-3.8676,-3.8691,-3.8098,-3.7732,-3.7338,-3.7334,-3.7116,-3.7023,-3.7213,-3.7126,-3.708,-3.7186,-3.7312,-3.7442,-3.7618,-3.7634,-3.7693,-3.7748,-3.7806,-3.7835,-3.8051,-3.8435,-3.8657,-3.8767,-3.8695,-3.8707,-3.9242,-3.5183,-3.447,-3.4008,-3.3823,-3.3738,-3.3283,-3.3124,-3.3124,-3.3124,-3.3124,-3.3124,-3.3124,-3.3124,-3.3124,-3.3124,-3.3124,-3.3124,-3.3124,-3.3124,-3.3312,-3.3746,-3.4161,-3.455,-3.4989,-3.5328,-3.5445,-3.5219,-3.4994,-3.4818,-3.4655,-3.4618,-3.4627,-3.459,-3.4397,-3.3865,-3.3771,-3.3633,-3.3149,-3.3445,-3.3144,-3.2616,-3.3106,-3.3332,-3.3633,-3.3621,-3.3796,-3.3935,-3.4173,-3.4349,-3.4613,-3.5019,-3.547,-3.5943,-3.6132,-3.5994,-3.5646,-3.537,-3.5132,-3.4474,-3.3909,-3.3483,-3.2842,-3.2277,-3.232,-3.1851,-3.2209,-3.2856,-3.3248,-3.3248,-3.3482,-3.4158,-3.4373,-3.4711,-3.5025,-3.5552,-3.5973,-3.6089,-3.6189,-3.6593,-3.7072,-3.7275,-3.7508,-3.7843,-3.8273,-3.8433,-3.8484,-3.8704,-3.8745,-3.9179,-3.9388,-3.8886,-3.8467,-3.8078,-3.7599,-3.7301,-3.7203,-3.7198,-3.7061,-3.6905,-3.6797,-3.6909,-3.6923,-3.6966,-3.6966,-3.6996,-3.6996,-3.7041,-3.7101,-3.7383,-3.7764,-3.7937,-3.8035,-3.7921,-3.7835,-3.8206,-3.4387,-3.3154,-3.3124,-3.3124,-3.3124,-3.3124,-3.3124,-3.3124,-3.3124,-3.3124,-3.3124,-3.3124,-3.3124,-3.3124,-3.3124,-3.3124,-3.3124,-3.3124,-3.3124,-3.3432,-3.3972,-3.4211,-3.4675,-3.5265,-3.5495,-3.5637,-3.5528,-3.5219,-3.4923,-3.4957,-3.4911,-3.4587,-3.4479,-3.4382,-3.3868,-3.3626,-3.3546,-3.3133,-3.3052,-3.3045,-3.3213,-3.352,-3.3407,-3.3262,-3.3124,-3.3124,-3.3244,-3.3445,-3.3759,-3.411,-3.465,-3.5169,-3.5608,-3.5956,-3.5881,-3.5596,-3.5483,-3.5107,-3.4575,-3.406,-3.3596,-3.3081,-3.2579,-3.2152,-3.1766,-3.198,-3.2602,-3.275,-3.275,-3.3013,-3.3734,-3.4214,-3.4617,-3.5296,-3.589,-3.6476,-3.6505,-3.6519,-3.7026,-3.758,-3.7784,-3.7982,-3.8355,-3.884,-3.8972,-3.909,-3.9177,-3.9301,-3.9388,-3.9388,-3.9149,-3.8925,-3.8736,-3.8207,-3.7789,-3.7584,-3.7608,-3.7432,-3.7322,-3.6821,-3.6496,-3.664,-3.6597,-3.629,-3.6321,-3.6352,-3.6321,-3.6352,-3.6692,-3.7041,-3.7205,-3.7265,-3.7055,-3.6995,-3.7145,-3.3386,-3.3124,-3.3124,-3.3124,-3.3124,-3.3124,-3.3124,-3.3124,-3.3124,-3.3124,-3.3124,-3.3124,-3.3124,-3.3124,-3.3124,-3.3124,-3.3124,-3.3124,-3.342,-3.3809,-3.3765,-3.4003,-3.4379,-3.479,-3.5331,-3.5609,-3.5692,-3.5635,-3.5189,-3.5431,-3.5561,-3.5285,-3.505,-3.4723,-3.4189,-3.3861,-3.3326,-3.2941,-3.268,-3.2649,-3.2853,-3.3064,-3.3169,-3.3136,-3.3124,-3.3124,-3.3174,-3.3169,-3.3219,-3.3432,-3.3909,-3.4663,-3.5169,-3.5592,-3.5533,-3.5357,-3.5282,-3.4831,-3.4324,-3.3922,-3.3458,-3.3156,-3.2792,-3.2792,-3.2596,-3.2608,-3.2953,-3.2922,-3.2949,-3.3053,-3.3551,-3.3848,-3.4274,-3.5585,-3.6466,-3.6994,-3.731,-3.7325,-3.7543,-3.7786,-3.7904,-3.8125,-3.8392,-3.8634,-3.8708,-3.8848,-3.9031,-3.9141,-3.9192,-3.9265,-3.9352,-3.9284,-3.9143,-3.9254,-3.9,-3.8377,-3.8217,-3.7988,-3.7708,-3.7218,-3.6818,-3.6523,-3.6378,-3.6194,-3.5872,-3.5765,-3.5733,-3.5846,-3.5878,-3.6196,-3.643,-3.6492,-3.6274,-3.6258,-3.6461]},{"header":{"parameterUnit":"m.s-1","parameterCategory":1,"la1":31.0,"la2":29.5877,"lo1":-88.7671,"lo2":-86.6584,"dx":0.0162,"dy":0.0185,"nx":115,"ny":88,"refTime":"2022-12-04T18:00:00:Z","depth":0,"parameterNumber":3,"parameterNumberName":"V-component_of_WINDS"},"data":[0.0,0.0,0.0,0.0,0.0,0.0,0.0,0.0,0.0,0.0,0.0,0.0,0.0,0.0,0.0,0.0,0.0,0.0,0.0,0.0,0.0,0.0,0.0,0.0,0.0,0.0,0.0,0.0,0.0,0.0,0.0,0.0,0.0,0.0,0.0,0.0,0.0,0.0,0.0,0.0,0.0,0.0,0.0,0.0,0.0,0.0,0.0,0.0,0.0,0.0,0.0,0.0,0.0,0.0,0.0,0.0,0.0,0.0,0.0,0.0,0.0,0.0,0.0,0.0,0.0,0.0,0.0,0.0,0.0,0.0,0.0,0.0,0.0,0.0,0.0,0.0,0.0,0.0,0.0,0.0,0.0,0.0,0.0,0.0,0.0,0.0,0.0,0.0,0.0,0.0,0.0,0.0,0.0,0.0,0.0,0.0,0.0,0.0,0.0,0.0,0.0,0.0,0.0,0.0,0.0,0.0,0.0,0.0,0.0,0.0,0.0,0.0,0.0,0.0,0.0,0.0,0.0,0.0,0.0,0.0,0.0,0.0,0.0,0.0,0.0,0.0,0.0,0.0,0.0,0.0,0.0,0.0,0.0,0.0,0.0,0.0,0.0,0.0,0.0,0.0,0.0,0.0,0.0,0.0,0.0,0.0,0.0,0.0,0.0,0.0,0.0,0.0,0.0,0.0,0.0,0.0,0.0,0.0,0.0,0.0,0.0,0.0,0.0,0.0,0.0,0.0,0.0,0.0,0.0,0.0,0.0,0.0,0.0,0.0,0.0,0.0,0.0,0.0,0.0,0.0,0.0,0.0,0.0,0.0,0.0,0.0,0.0,0.0,0.0,0.0,0.0,0.0,0.0,0.0,0.0,0.0,0.0,0.0,0.0,0.0,0.0,0.0,0.0,0.0,0.0,0.0,0.0,0.0,0.0,0.0,0.0,0.0,0.0,0.0,0.0,0.0,0.0,0.0,0.0,0.0,0.0,0.0,0.0,0.0,0.0,0.0,0.0,0.0,0.0,0.0,0.0,0.0,0.0,0.0,0.0,0.0,0.0,0.0,0.0,0.0,0.0,0.0,0.0,0.0,0.0,0.0,0.0,0.0,0.0,0.0,0.0,0.0,0.0,0.0,0.0,0.0,0.0,0.0,0.0,0.0,0.0,0.0,0.0,0.0,0.0,0.0,0.0,0.0,0.0,0.0,0.0,0.0,0.0,0.0,0.0,0.0,0.0,0.0,0.0,0.0,0.0,0.0,0.0,0.0,0.0,0.0,0.0,0.0,0.0,0.0,0.0,0.0,0.0,0.0,0.0,0.0,0.0,0.0,0.0,0.0,0.0,0.0,0.0,0.0,0.0,0.0,0.0,0.0,0.0,0.0,0.0,0.0,0.0,0.0,0.0,0.0,0.0,0.0,0.0,0.0,0.0,0.0,0.0,0.0,0.0,0.0,0.0,0.0,0.0,0.0,0.0,0.0,0.0,0.0,0.0,0.0,0.0,0.0,0.0,0.0,0.0,0.0,0.0,0.0,0.0,0.0,0.0,0.0,0.0,0.0,0.0,0.0,0.0,0.0,0.0,0.0,0.0,0.0,0.0,0.0,0.0,0.0,0.0,0.0,0.0,0.0,0.0,0.0,0.0,0.0,0.0,0.0,0.0,0.0,0.0,0.0,0.0,0.0,0.0,0.0,0.0,0.0,0.0,0.0,0.0,0.0,0.0,0.0,0.0,0.0,0.0,0.0,0.0,0.0,0.0,0.0,0.0,0.0,0.0,0.0,0.0,0.0,0.0,0.0,0.0,0.0,0.0,0.0,0.0,0.0,0.0,0.0,0.0,0.0,0.0,0.0,0.0,0.0,0.0,0.0,0.0,0.0,0.0,0.0,0.0,0.0,0.0,0.0,0.0,0.0,0.0,0.0,0.0,0.0,0.0,0.0,0.0,0.0,0.0,0.0,0.0,0.0,0.0,0.0,0.0,0.0,0.0,0.0,0.0,0.0,0.0,0.0,0.0,0.0,0.0,0.0,0.0,0.0,0.0,0.0,0.0,0.0,0.0,0.0,0.0,0.0,0.0,0.0,0.0,0.0,0.0,0.0,0.0,0.0,0.0,0.0,0.0,0.0,0.0,0.0,0.0,0.0,0.0,0.0,0.0,0.0,0.0,0.0,0.0,0.0,0.0,0.0,0.0,0.0,0.0,0.0,0.0,0.0,0.0,0.0,0.0,0.0,0.0,0.0,0.0,0.0,0.0,0.0,0.0,0.0,0.0,0.0,0.0,0.0,0.0,0.0,0.0,0.0,0.0,0.0,0.0,0.0,0.0,0.0,0.0,0.0,0.0,0.0,0.0,0.0,0.0,0.0,0.0,0.0,0.0,0.0,0.0,0.0,0.0,0.0,0.0,0.0,0.0,0.0,0.0,0.0,0.0,0.0,0.0,0.0,0.0,0.0,0.0,0.0,0.0,0.0,0.0,0.0,0.0,0.0,0.0,0.0,0.0,0.0,0.0,0.0,0.0,0.0,0.0,0.0,0.0,0.0,0.0,0.0,0.0,0.0,0.0,0.0,0.0,0.0,0.0,0.0,0.0,0.0,0.0,0.0,0.0,0.0,0.0,0.0,0.0,0.0,0.0,0.0,0.0,0.0,0.0,0.0,0.0,0.0,0.0,0.0,0.0,0.0,0.0,0.0,0.0,0.0,0.0,0.0,0.0,0.0,0.0,0.0,0.0,0.0,0.0,0.0,0.0,0.0,0.0,0.0,0.0,0.0,0.0,0.0,0.0,0.0,0.0,0.0,0.0,0.0,0.0,0.0,0.0,0.0,0.0,0.0,0.0,0.0,0.0,0.0,0.0,0.0,0.0,0.0,0.0,0.0,0.0,0.0,0.0,0.0,0.0,0.0,0.0,0.0,0.0,0.0,0.0,0.0,0.0,0.0,0.0,0.0,0.0,0.0,0.0,0.0,0.0,0.0,0.0,0.0,0.0,0.0,0.0,0.0,0.0,0.0,0.0,0.0,0.0,0.0,0.0,0.0,0.0,0.0,0.0,0.0,0.0,0.0,0.0,0.0,0.0,0.0,0.0,0.0,0.0,0.0,0.0,0.0,0.0,0.0,0.0,0.0,0.0,0.0,0.0,0.0,0.0,0.0,0.0,0.0,0.0,0.0,0.0,0.0,0.0,0.0,0.0,0.0,0.0,0.0,0.0,0.0,0.0,0.0,0.0,0.0,0.0,0.0,0.0,0.0,0.0,0.0,0.0,0.0,0.0,0.0,0.0,0.0,0.0,0.0,0.0,0.0,0.0,0.0,0.0,0.0,0.0,0.0,0.0,0.0,0.0,0.0,0.0,0.0,0.0,0.0,0.0,0.0,0.0,0.0,0.0,0.0,0.0,0.0,0.0,0.0,0.0,0.0,0.0,0.0,0.0,0.0,0.0,0.0,0.0,0.0,0.0,0.0,0.0,0.0,0.0,0.0,0.0,0.0,0.0,0.0,0.0,0.0,0.0,0.0,0.0,0.0,0.0,0.0,0.0,0.0,0.0,0.0,0.0,0.0,0.0,0.0,0.0,0.0,0.0,0.0,0.0,0.0,0.0,0.0,0.0,0.0,0.0,0.0,0.0,0.0,0.0,0.0,0.0,0.0,0.0,0.0,0.0,0.0,0.0,0.0,0.0,0.0,0.0,0.0,0.0,0.0,0.0,0.0,0.0,0.0,0.0,0.0,0.0,0.0,0.0,0.0,0.0,0.0,0.0,0.0,0.0,0.0,0.0,0.0,0.0,0.0,0.0,0.0,0.0,0.0,0.0,0.0,0.0,0.0,0.0,0.0,0.0,0.0,0.0,0.0,0.0,0.0,0.0,0.0,0.0,0.0,0.0,0.0,0.0,0.0,0.0,0.0,0.0,0.0,0.0,0.0,0.0,0.0,0.0,0.0,0.0,0.0,0.0,0.0,0.0,0.0,0.0,0.0,0.0,0.0,0.0,0.0,0.0,0.0,0.0,0.0,0.0,0.0,0.0,0.0,0.0,0.0,0.0,0.0,0.0,0.0,0.0,0.0,0.0,0.0,0.0,0.0,0.0,0.0,0.0,0.0,0.0,0.0,0.0,0.0,0.0,0.0,0.0,0.0,0.0,0.0,0.0,0.0,0.0,0.0,0.0,0.0,0.0,0.0,0.0,0.0,0.0,0.0,0.0,0.0,0.0,0.0,0.0,0.0,0.0,0.0,0.0,0.0,0.0,0.0,0.0,0.0,0.0,0.0,0.0257,0.0,0.0,0.0,0.0253,0.0,0.0,0.0,0.0,0.0,0.0,0.0,0.0,0.0,0.0,0.0,0.0,0.0,0.0,0.0,0.0,0.0,0.0,0.0,0.0,0.0,0.0,0.0,0.0,0.0,0.0,0.0,0.0,0.0,0.0,0.0,0.0,0.0,0.0,0.0,0.0,0.0,0.0,0.0,0.0,0.0,0.0,0.0,0.0,0.0,0.0,0.0,0.0,0.0,0.0,0.0,0.0,0.0,0.0,0.0,0.0,0.0,0.0,0.0,0.0,0.0,0.0,0.0,0.0,0.0,0.0,0.0,0.0,0.0,0.0,0.0,0.0,0.0,0.0,0.0,0.0,0.0,0.0,0.0,0.0,0.0,0.0,0.0,0.0,0.0,0.0,0.0,0.0,0.0,0.0,0.0,0.0,0.0,0.0,0.0,0.0,0.0,0.0,0.0,0.0,0.0,0.0,0.0,0.0,0.0,0.0,0.0,0.0,0.0,0.0,0.0419,0.04,0.0398,0.0382,0.0355,0.0,0.0,0.0,0.0,0.0,0.0,0.0,0.0,0.0,0.0,0.0,0.0,0.0,0.0,0.0,0.0,0.0,0.0,0.0,0.0,0.0,0.0,0.0,0.0,0.0,0.0,0.0,0.0,0.0,0.0,0.0,0.0,0.0,0.0,0.0,0.0,0.0,0.0,0.0,0.0,0.0,0.0,0.0,0.0,0.0,0.0,0.0,0.0,0.0,0.0,0.0,0.0,0.0,0.0,0.0,0.0,0.0,0.0,0.0,0.0,0.0,0.0,0.0,0.0,0.0,0.0,0.0,0.0,0.0,0.0,0.0,0.0,0.0,0.0,0.0,0.0,0.0,0.0,0.0,0.0,0.0,0.0,0.0,0.0,0.0,0.0,0.0,0.0,0.0,0.0,0.0,0.0,0.0,0.0,0.0,0.0,0.0,0.0,0.0,0.0,0.0,0.0,0.0,0.0,0.0,0.0,0.0,0.0,0.0,0.0,0.0,0.0,0.0619,0.0534,0.0428,0.0,0.0,0.0,0.0,0.0,0.0,0.0,0.0,0.0,0.0,0.0,0.0,0.0,0.0,0.0,0.0,0.0,0.0,0.0,0.0,0.0,0.0,0.0,0.0,0.0,0.0,0.0,0.0,0.0,0.0,0.0,0.0,0.0,0.0,0.0,0.0,0.0,0.0,0.0,0.0,0.0,0.0,0.0,0.0,0.0,0.0,0.0,0.0,0.0,0.0,0.0,0.0,0.0,0.0,0.0,0.0,0.0,0.0,0.0,0.0,0.0,0.0,0.0,0.0,0.0,0.0,0.0,0.0,0.0,0.0,0.0,0.0,0.0,0.0,0.0,0.0,0.0,0.0,0.0,0.0,0.0,0.0,0.0,0.0,0.0,0.0,0.0,0.0,0.0,0.0,0.0,0.0,0.0,0.0,0.0,0.0,0.0,0.0,0.0,0.0,0.0,0.0,0.0,0.0,0.0,0.0,0.0,0.0,0.0,0.0,0.1051,0.1034,0.0927,0.0,0.0498,0.0,0.0,0.0,0.0,0.0,0.0,0.0,0.0,0.0,0.0,0.0,0.0,0.0,0.0,0.0,0.0,0.0,0.0,0.0,0.0,0.0,0.0,0.0,0.0,0.0,0.0,0.0,0.0,0.0,0.0,0.0,0.0,0.0,0.0,0.0,0.0,0.0,0.0,0.0,0.0,0.0,0.0,0.0,0.0,0.0,0.0,0.0,0.0,0.0,0.0,0.0,0.0,0.0,0.0,0.0,0.0,0.0,0.0,0.0,0.0,0.0,0.0,0.0,0.0,0.0,0.0,0.0,0.0,0.0,0.0,0.0,0.0,0.0,0.0,0.0,0.0,0.0,0.0,0.0,0.0,0.0,0.0,0.0,0.0,0.0,0.0,0.0,0.0,0.0,0.0,0.0,0.0,0.0,0.0,0.0,0.0,0.0,0.0,0.0,0.0,0.0,0.0,0.0,0.0,0.0,0.0,0.0,0.0,0.0,0.0,0.1377,0.1348,0.1162,0.0967,0.0,0.0,0.0,0.0,0.0,0.0,0.0,0.0,0.0,0.0,0.0,0.0,0.0,0.0,0.0,0.0,0.0,0.0,0.0,0.0,0.0,0.0,0.0,0.0,0.0,0.0,0.0,0.0,0.0,0.0,0.0,0.0,0.0,0.0,0.0,0.0,0.0,0.0,0.0,0.0,0.0,0.0,0.0,0.0,0.0,0.0,0.0,0.0,0.0,0.0,0.0,0.0,0.0,0.0,0.0,0.0,0.0,0.0,0.0,0.0,0.0,0.0,0.0,0.0,0.0,0.0,0.0,0.0,0.0,0.0,0.0,0.0,0.0,0.0,0.0,0.0,0.0,0.0,0.0,0.0,0.0,0.0,0.0,0.0,0.0,0.0,0.0,0.0,0.0,0.0,0.0,0.0,0.0,0.0,0.0,0.0,0.0,0.0,0.0,0.0,0.0,0.0,0.0,0.0,0.0,0.0,0.0,0.0,0.0,0.0,0.1843,0.1813,0.1671,0.1423,0.1235,0.109,0.0,0.0,0.0,0.0,0.0,0.0,0.0,0.0,0.0,0.0,0.0,0.0,0.0,0.0,0.0,0.0,0.0,0.0,0.0,0.0,0.0,0.0,0.0,0.0,0.0,0.0,0.0,0.0,0.0,0.0,0.0,0.0,0.0,0.0,0.0,0.0,0.0,0.0,0.0,0.0,0.0,0.0,0.0,0.0,0.0,0.0,0.0,0.0,0.0,0.0,0.0,0.0,0.0,0.0,0.0,0.0,0.0,0.0,0.0,0.0,0.0,0.0,0.0,0.0,0.0,0.0,0.0,0.0,0.0,0.0,0.0,0.0,0.0,0.0,0.0,0.0,0.0,0.0,0.0,0.0,0.0,0.0,0.0,0.0,0.0,0.0,0.0,0.0,0.0,0.0,0.0,0.0,0.0,0.0,0.0,0.0,0.0,0.0,0.0,0.0,0.0,0.0,0.0,0.0,0.0,0.0,0.0,0.0,0.218,0.2409,0.2411,0.2066,0.1759,0.1557,0.0,0.0,0.0,0.0,0.0,0.0,0.0,0.0,0.0,0.0,0.0,0.0,0.0,0.0,0.0,0.0,0.0,0.0,0.0,0.0,0.0,0.0,0.0,0.0,0.0,0.0,0.0,0.0,0.0,0.0,0.0,0.0,0.0,0.0,0.0,0.0,0.0,0.0,0.0,0.0,0.0,0.0,0.0,0.0,0.0,0.0,0.0,0.0,0.0,0.0,0.0,0.0,0.0,0.0,0.0,0.0,0.0,0.0,0.0,0.0,0.0,0.0,0.0,0.0,0.0,0.0,0.0,0.0,0.0,0.0,0.0,0.0,0.0,0.0,0.0,0.0,0.0,0.0,0.0,0.0,0.0,0.0,0.0,0.0,0.0,0.0,0.0,0.0,0.0,0.0,0.0,0.0,0.0,0.0,0.0,0.0,0.0,0.0,0.0,0.0,0.0,0.0,0.0,0.0,0.0,0.0,0.0,0.0,0.0,0.263,0.2658,0.2541,0.2293,0.2088,0.1861,0.0,0.0,0.0,0.0,0.0,0.0,0.0,0.0,0.0,0.0,0.0,0.0,0.0,0.0,0.0,0.0,0.0,0.0,0.0,0.0,0.0,0.0,0.0,0.0,0.0,0.0,0.0,0.0,0.0,0.0,0.0,0.0,0.0,0.0,0.0,0.0,0.0,0.0,0.0,0.0,0.0,0.0,0.0,0.0,0.0,0.0,0.0,0.0,0.0,0.0,0.0,0.0,0.0,0.0,0.0,0.0,0.0,0.0,0.0,0.0,0.0,0.0,0.0,0.0,0.0,0.0,0.0,0.0,0.0,0.0,0.0,0.0,0.0,0.0,0.0,0.0,0.0,0.0,0.0,0.0,0.0,0.0,0.0,0.0,0.0,0.0,0.0,0.0,0.0,0.0,0.0,0.0,0.0,0.0,0.0,0.0,0.0,0.0,0.0,0.0,0.0,0.0,0.0,0.0,0.0,0.0,0.0,0.0,0.0,0.3125,0.2946,0.2796,0.2649,0.2402,0.2182,0.0,0.0,0.0,0.0,0.0,0.0,0.0,0.0,0.0,0.0,0.0,0.0,0.0,0.0,0.0,0.0,0.0,0.0,0.0,0.0,0.0,0.0,0.0,0.0,0.0,0.0,0.0,0.0,0.0,0.0,0.0,0.0,0.0,0.0,0.0,0.0,0.0,0.0,0.0,0.0,0.0,0.0,0.0,0.0,0.0,0.0,0.0,0.0,0.0,0.0,0.0,0.0,0.0,0.0,0.0,0.0,0.0,0.0,0.0,0.0,0.0,0.0,0.0,0.0,0.0,0.0,0.0,0.0,0.0,0.0,0.0,0.0,0.0,0.0,0.0,0.0,0.0,0.0,0.0,0.0,0.0,0.0,0.0,0.0,0.0,0.0,0.0,0.0,0.0,0.0,0.0,0.0,0.0,0.0,0.0,0.0,0.0,0.0,0.0,0.0,0.0,0.0,0.0,0.0,0.0,0.0,0.0,0.0,0.3202,0.3558,0.3316,0.3196,0.3193,0.2699,0.2435,0.0,0.0,0.0,0.0,0.0,0.0,0.0,0.0,0.0,0.0,0.0,0.0,0.0,0.0,0.0,0.0,0.0,0.0,0.0,0.0,0.0,0.0,0.0,0.0,0.0,0.0,0.0,0.0,0.0,0.0,0.0,0.0,0.0,0.0,0.0,0.0,0.0,0.0,0.0,0.0,0.0,0.0,0.0,0.0,0.0,0.0,0.0,0.0,0.0,0.0,0.0,0.0,0.0,0.0,0.0,0.0,0.0,0.0,0.0,0.0,0.0,0.0,0.0,0.0,0.0,0.0,0.0,0.0,0.0,0.0,0.0,0.0,0.0,0.0,0.0,0.0,0.0,0.0,0.0,0.0,0.0,0.0,0.0,0.0,0.0,0.0,0.0,0.0,0.0,0.0,0.0,0.0,0.0,0.0,0.0,0.0,0.0,0.0,0.0,0.0,0.0,0.0,0.0,0.0,0.0,0.0,0.0,0.0,0.0,0.36,0.3512,0.337,0.3226,0.3034,0.2818,0.0,0.0,0.0,0.0,0.0,0.0,0.0,0.0,0.0,0.0,0.0,0.0,0.0,0.0,0.0,0.0,0.0,0.0,0.0,0.0,0.0,0.0,0.0,0.0,0.0,0.0,0.0,0.0,0.0,0.0,0.0,0.0,0.0,0.0,0.0,0.0,0.0,0.0,0.0,0.0,0.0,0.0,0.0,0.0,0.0,0.0,0.0,0.0,0.0,0.0,0.0,0.0,0.0,0.0,0.0,0.0,0.0,0.0,0.0,0.0,0.0,0.0,0.0,0.0,0.0,0.0,0.0,0.0,0.0,0.0,0.0,0.0,0.0,0.0,0.0,0.0,0.0,0.0,0.0,0.0,0.0,0.0,0.0,0.0,0.0,0.0,0.0,0.0,0.0,0.0,0.0,0.0,0.0,0.0,0.0,0.0,0.0,0.0,0.0,0.0,0.0,0.0,0.0,0.0,0.0,0.0,0.0,0.0,0.0,0.3829,0.3775,0.3651,0.3509,0.3339,0.3108,0.2768,0.0,0.0,0.0,0.0,0.0,0.0,0.0,0.0,0.0,0.0,0.0,0.0,0.0,0.0,0.0,0.0,0.0,0.0,0.0,0.0,0.0,0.0,0.0,0.0,0.0,0.0,0.0,0.0,0.0,0.0,0.0,0.0,0.0,0.0,0.0,0.0,0.0,0.0,0.0,0.0,0.0,0.0,0.0,0.0,0.0,0.0,0.0,0.0,0.0,0.0,0.0,0.0,0.0,0.0,0.0,0.0,0.0,0.0,0.0,0.0,0.0,0.0,0.0,0.0,0.0,0.0,0.0,0.0,0.0,0.0,0.0,0.0,0.0,0.0,0.0,0.0,0.0,0.0,0.0,0.0,0.0,0.0,0.0,0.0,0.0,0.0,0.0,0.0,0.0,0.0,0.0,0.0,0.0,0.0,0.0,0.0,0.0,0.0,0.0,0.0,0.0,0.0,0.0,0.0,0.0,0.0,0.0,0.0,0.423,0.4109,0.4035,0.3998,0.3642,0.3381,0.0,0.0,0.0,0.0,0.0,0.0,0.0,0.0,0.0,0.0,0.0,0.0,0.0,0.0,0.0,0.0,0.0,0.0,0.0,0.0,0.0,0.0,0.0,0.0,0.0,0.0,0.0,0.0,0.0,0.0,0.0,0.0,0.0,0.0,0.0,0.0,0.0,0.0,0.0,0.0,0.0,0.0,0.0,0.0,0.0,0.0,0.0,0.0,0.0,0.0,0.0,0.0,0.0,0.0,0.0,0.0,0.0,0.0,0.0,0.0,0.0,0.0,0.0,0.0,0.0,0.0,0.0,0.0,0.0,0.0,0.0,0.0,0.0,0.0,0.0,0.0,0.0,0.0,0.0,0.0,0.0,0.0,0.0,0.0,0.0,0.0,0.0,0.0,0.0,0.0,0.0,0.0,0.0,0.0,0.0,0.0,0.0,0.0,0.0,0.0,0.0,0.0,0.0,0.0,0.0,0.0,0.0,0.0,0.0,0.4569,0.4614,0.45,0.415,0.4063,0.38,0.0,0.0,0.0,0.0,0.0,0.0,0.0,0.0,0.0,0.0,0.0,0.0,0.0,0.0,0.0,0.0,0.0,0.0,0.0,0.0,0.0,0.0,0.0,0.0,0.0,0.0,0.0,0.0,0.0,0.0,0.0,0.0,0.0,0.0,0.0,0.0,0.0,0.0,0.0,0.0,0.0,0.0,0.0,0.0,0.0,0.0,0.0,0.0,0.0,0.0,0.0,0.0,0.0,0.0,0.0,0.0,0.0,0.0,0.0,0.0,0.0,0.0,0.0,0.0,0.0,0.0,0.0,0.0,0.0,0.0,0.0,0.0,0.0,0.0,0.0,0.0,0.0,0.0,0.0,0.0,0.0,0.0,0.0,0.0,0.0,0.0,0.0,0.0,0.0,0.0,0.0,0.0,0.0,0.0,0.0,0.0,0.0,0.0,0.0,0.0,0.0,0.0,0.0,0.0,0.0,0.0,0.0,0.0,0.466,0.4979,0.4979,0.5005,0.5051,0.4628,0.4184,0.0,0.0,0.0,0.0,0.0,0.0,0.0,0.0,0.0,0.0,0.0,0.0,0.0,0.0,0.0,0.0,0.0,0.0,0.0,0.0,0.0,0.0,0.0,0.0,0.0,0.0,0.0,0.0,0.0,0.0,0.0,0.0,0.0,0.0,0.0,0.0,0.0,0.0,0.0,0.0,0.0,0.0,0.0,0.0,0.0,0.0,0.0,0.0,0.0,0.0,0.0,0.0,0.0,0.0,0.0,0.0,0.0,0.0,0.0,0.0,0.0,0.0,0.0,0.0,0.0,0.0,0.0,0.0,0.0,0.0,0.0,0.0,0.0,0.0,0.0,0.0,0.0,0.0,0.0,0.0,0.0,0.0,0.0,0.0,0.0,0.0,0.0,0.0,0.0,0.0,0.0,0.0,0.0,0.0,0.0,0.0,0.0,0.0,0.0,0.0,0.0,0.0,0.0,0.0,0.0,0.0,0.0,0.0,0.5136,0.5603,0.5431,0.5665,0.6251,0.5323,0.4638,0.0,0.0,0.0,0.0,0.0,0.0,0.0,0.0,0.0,0.0,0.0,0.0,0.0,0.0,0.0,0.0,0.0,0.0,0.0,0.0,0.0,0.0,0.0,0.0,0.0,0.0,0.0,0.0,0.0,0.0,0.0,0.0,0.0,0.0,0.0,0.0,0.0,0.0,0.0,0.0,0.0,0.0,0.0,0.0,0.0,0.0,0.0,0.0,0.0,0.0,0.0,0.0,0.0,0.0,0.0,0.0,0.0,0.0,0.0,0.0,0.0,0.0,0.0,0.0,0.0,0.0,0.0,0.0,0.0,0.0,0.0,0.0,0.0,0.0,0.0,0.0,0.0,0.0,0.0,0.0,0.0,0.0,0.0,0.0,0.0,0.0,0.0,0.0,0.0,0.0,0.0,0.0,0.0,0.0,0.0,0.0,0.0,0.0,0.0,0.0,0.0,0.0,0.0,0.0,0.0,0.0,0.0,0.0,0.6301,0.6947,0.6948,0.6997,0.7126,0.5912,0.5254,0.0,0.0,0.0,0.0,0.0,0.0,0.0,0.0,0.0,0.0,0.0,0.0,0.0,0.0,0.0,0.0,0.0,0.0,0.0,0.0,0.0,0.0,0.0,0.0,0.0,0.0,0.0,0.0,0.0,0.0,0.0,0.0,0.0,0.0,0.0,0.0,0.0,0.0,0.0,0.0,0.0,0.0,0.0,0.0,0.0,0.0,0.0,0.0,0.1205,0.0,0.0,0.0,0.0,0.0,0.0,0.0,0.0,0.0,0.0,0.0,0.0,0.0,0.0,0.0,0.0,0.0,0.0,0.0,0.0,0.0,0.0,0.0,0.0,0.0,0.0,0.0,0.0,0.0,0.0,0.0,0.0,0.0,0.0,0.0,0.0,0.0,0.0,0.0,0.0,0.0,0.0,0.0,0.0,0.0,0.0,0.0,0.0,0.0,0.0,0.0,0.0,0.0,0.0,0.0,0.0,0.0,0.0,0.0,0.6926,0.7721,0.7524,0.7609,0.7957,0.7019,0.6251,0.0,0.0,0.0,0.0,0.0,0.0,0.0,0.0,0.0,0.0,0.0,0.0,0.0,0.0,0.0,0.0,0.0,0.0,0.0,0.0,0.0,0.0,0.0,0.0,0.0,0.0,0.0,0.0,0.0,0.0,0.0,0.0,0.0,0.0,0.0,0.0,0.0,0.0,0.0,0.0,0.0,0.0,0.0,0.0,0.0,0.0,0.0,0.0,0.0,0.0,0.0,0.0,0.0,0.0,0.0,0.0,0.0,0.0,0.0,0.0,0.0,0.0,0.0,0.0,0.0,0.0,0.0,0.0,0.0,0.0,0.0,0.0,0.0,0.0,0.0,0.0,0.0,0.0,0.0,0.0,0.0,0.0,0.0,0.0,0.0,0.0,0.0,0.0,0.0,0.0,0.0,0.0,0.0,0.0,0.0,0.0,0.0,0.0,0.0,0.0,0.0,0.0,0.0,0.0,0.0,0.0,0.0,0.6967,0.7522,0.8404,0.8037,0.8161,0.886,0.829,0.7414,0.6292,0.0,0.0,0.0,0.0,0.0,0.0,0.0,0.0,0.0,0.0,0.0,0.0,0.0,0.0,0.0,0.0,0.0,0.0,0.0,0.0,0.0,0.0,0.0,0.0,0.0,0.0,0.0,0.0,0.0,0.0,0.0,0.0,0.0,0.0,0.0,0.0,0.0,0.0,0.0706,0.107,0.0,0.0,0.0,0.0,0.0,0.0,0.0,0.0,0.1947,0.0,0.0,0.0,0.0,0.0,0.0,0.0,0.0,0.0,0.0,0.0,0.0,0.0,0.0,0.0,0.0,0.0,0.0,0.0,0.0,0.0,0.0,0.0,0.0,0.0,0.0,0.0,0.0,0.0,0.0,0.0,0.0,0.0,0.0,0.0,0.0,0.0,0.0,0.0,0.0,0.0,0.0,0.0,0.0,0.0,0.0,0.0,0.0,0.0,0.0,0.0,0.0,0.0,0.0,0.0,0.0,0.7503,0.8029,0.8745,0.9671,0.9626,0.9626,0.9779,0.9358,0.8575,0.7451,0.0,0.0,0.0,0.0,0.0,0.0,0.0,0.0,0.0,0.0,0.0,0.0,0.0,0.0,0.0,0.0,0.0,0.0,0.0,0.0,0.0,0.0,0.0,0.0,0.0,0.0,0.0,0.0,0.0,0.0,0.0,0.0,0.0,0.0,0.0,0.0,0.0,0.0,0.0,0.173,0.2079,0.0,0.0,0.0,0.0,0.0,0.0,0.0,0.0,0.2309,0.0,0.0,0.0,0.0,0.0,0.0,0.0,0.0,0.0,0.0,0.0,0.0,0.0,0.0,0.0,0.0,0.0,0.0,0.0,0.0,0.0,0.0,0.0,0.0,0.0,0.0,0.0,0.0,0.0,0.0,0.0,0.0,0.0,0.0,0.0,0.0,0.0,0.0,0.0,0.0,0.0,0.0,0.0,0.0,0.0,0.0,0.0,0.0,0.0,0.0,0.0,0.0,0.0,0.0,0.0,0.8069,0.8725,0.9506,1.0464,1.0194,1.0117,1.0348,0.975,0.8869,0.0,0.0,0.0,0.0,0.0,0.0,0.0,0.0,0.0,0.0,0.0,0.0,0.0,0.0,0.0,0.0,0.0,0.0,0.0,0.0,0.0,0.0,0.0,0.0,0.0,0.0,0.0,0.0,0.0,0.0,0.0,0.0,0.0,0.0,0.0,0.0,0.0,0.0,0.0,0.0,0.2199,0.2539,0.3097,0.0,0.0,0.0,0.0,0.0,0.0,0.3114,0.2752,0.0,0.0,0.0,0.0,0.0,0.0,0.0,0.0,0.0,0.0,0.0,0.0,0.0,0.0,0.0,0.0,0.0,0.0,0.0,0.0,0.0,0.0,0.0,0.0,0.0,0.0,0.0,0.0,0.0,0.0,0.0,0.0,0.0,0.0,0.0,0.0,0.0,0.0,0.0,0.0,0.0,0.0,0.0,0.0,0.0,0.0,0.0,0.0,0.0,0.0,0.0,0.0,0.0,0.0,0.0,0.8518,0.9157,0.9988,1.0916,1.0419,1.0309,1.0738,0.9894,0.8961,0.0,0.0,0.0,0.0,0.0,0.0,0.0,0.0,0.0,0.0,0.0,0.0,0.0,0.0,0.0,0.0,0.0,0.0,0.0,0.0,0.0,0.0,0.0,0.0,0.0,0.0,0.0,0.0,0.0,0.0,0.0,0.0,0.0,0.0,0.0,0.0,0.0,0.0,0.0,0.0,0.0,0.2968,0.3691,0.3524,0.0,0.0,0.0,0.0,0.3811,0.3504,0.0,0.0,0.0,0.0,0.0,0.0,0.0,0.0,0.0,0.0,0.0,0.0,0.0,0.0,0.0,0.0,0.0,0.0,0.0,0.0,0.0,0.0,0.0,0.0,0.0,0.0,0.0,0.0,0.0,0.0,0.0,0.0,0.0,0.0,0.0,0.0,0.0,0.0,0.0,0.0,0.0,0.0,0.0,0.0,0.0,0.0,0.0,0.0,0.0,0.0,0.0,0.0,0.0,0.0,0.0,0.0,0.8655,0.9443,1.022,1.0949,1.0683,1.0669,1.0942,0.9997,0.9192,0.0,0.0,0.0,0.0,0.0,0.0,0.0,0.0,0.0,0.0,0.0,0.0,0.0,0.0,0.0,0.0,0.0,0.0,0.0,0.0,0.0,0.0,0.0,0.0,0.0,0.0,0.0,0.0,0.0,0.0,0.0,0.0,0.0,0.0,0.0,0.0,0.0,0.0,0.0,0.0,0.0,0.3308,0.4039,0.4084,0.414,0.0,0.0,0.4159,0.439,0.4022,0.0,0.0,0.0,0.0,0.0,0.0,0.0,0.0,0.0,0.0,0.0,0.0,0.0,0.0,0.0,0.0,0.0,0.0,0.0,0.0,0.0,0.0,0.0,0.0,0.0,0.0,0.0,0.0,0.0,0.0,0.0,0.0,0.0,0.0,0.0,0.0,0.0,0.0,0.0,0.0,0.0,0.0,0.0,0.0,0.0,0.0,0.0,0.0,0.0,0.0,0.0,0.0,0.0,0.0,0.0,0.8336,0.9128,0.9892,1.0591,1.1202,1.0795,1.0807,1.1223,1.0269,0.9428,0.0,0.0,0.0,0.0,0.0,0.0,0.0,0.0,0.0,0.0,0.0,0.0,0.0,0.0,0.0,0.0,0.0,0.0,0.0,0.0,0.0,0.0,0.0,0.0,0.0,0.0,0.0,0.0,0.0,0.0,0.0,0.0,0.0,0.0,0.0,0.0,0.0,0.0,0.0,0.0,0.0,0.0,0.4125,0.4352,0.0,0.0,0.0,0.451,0.4607,0.0,0.0,0.0,0.0,0.0,0.0,0.0,0.0,0.0,0.0,0.0,0.0,0.0,0.0,0.0,0.0,0.0,0.0,0.0,0.0,0.0,0.0,0.0,0.0,0.0,0.0,0.0,0.0,0.0,0.0,0.0,0.0,0.0,0.0,0.0,0.0,0.0,0.0,0.0,0.0,0.0,0.0,0.0,0.0,0.0,0.0,0.0,0.0,0.0,0.0,0.0,0.0,0.0,0.0,0.0,0.0,0.0,0.9483,1.023,1.0874,1.139,1.0935,1.0948,1.1355,1.0625,0.0,0.0,0.0,0.0,0.0,0.0,0.0,0.0,0.0,0.0,0.0,0.0,0.0,0.0,0.0,0.0,0.0,0.0,0.0,0.0,0.0,0.0,0.0,0.0,0.0,0.0,0.0,0.2486,0.0,0.0,0.0,0.0,0.0,0.0,0.0,0.0,0.0,0.0,0.0,0.0,0.0,0.0,0.3896,0.4316,0.4625,0.4859,0.0,0.0,0.4806,0.4819,0.459,0.4381,0.0,0.0,0.0,0.0,0.0,0.0,0.0,0.0,0.0,0.0,0.0,0.0,0.0,0.0,0.0,0.0,0.0,0.0,0.0,0.0,0.0,0.0,0.0,0.0,0.0,0.0,0.0,0.0,0.0,0.0,0.0,0.0,0.0,0.0,0.0,0.0,0.0,0.0,0.0,0.0,0.0,0.0,0.0,0.0,0.0,0.0,0.0,0.0,0.0,0.0,0.0,0.0,0.0,0.0,0.8901,0.9483,1.0236,1.0881,1.1355,1.1122,1.1109,1.1375,1.1102,1.0559,0.0,0.0,0.0,0.0,0.0,0.0,0.0,0.0,0.0,0.0,0.0,0.0,0.0,0.0,0.0,0.0,0.0,0.0,0.0,0.0,0.0,0.0,0.0,0.0,0.0,0.0,0.0,0.0,0.0,0.0,0.0,0.0,0.0,0.0,0.0,0.0,0.0,0.0,0.0,0.0,0.0,0.4121,0.4769,0.4988,0.5133,0.0,0.5177,0.5083,0.5069,0.4948,0.473,0.4337,0.0,0.0,0.0,0.0,0.0,0.0,0.0,0.0,0.0,0.0,0.0,0.0,0.0,0.0,0.0,0.0,0.0,0.0,0.0,0.0,0.0,0.0,0.0,0.0,0.0,0.0,0.0,0.0,0.0,0.0,0.0,0.0,0.0,0.0,0.0,0.0,0.0,0.0,0.0,0.0,0.0,0.0,0.0,0.0,0.0,0.0,0.0,0.0,0.0,0.0,0.0,0.0,0.0,0.9389,0.9864,1.0676,1.1202,1.1375,1.1282,1.1275,1.1389,1.1289,1.0869,0.0,0.0,0.0,0.0,0.0,0.0,0.0,0.0,0.0,0.0,0.0,0.0,0.0,0.0,0.0,0.0,0.0,0.0,0.0,0.0,0.0,0.0,0.0,0.0,0.0,0.0,0.0,0.0,0.3747,0.3754,0.3517,0.0,0.0,0.0,0.0,0.0,0.0,0.0,0.0,0.0,0.0,0.4438,0.4842,0.5119,0.0,0.0,0.5344,0.524,0.5113,0.5056,0.4951,0.469,0.4522,0.0,0.0,0.0,0.0,0.0,0.0,0.0,0.0,0.0,0.0,0.0,0.0,0.0,0.0,0.0,0.0,0.0,0.0,0.0,0.0,0.0,0.0,0.0,0.0,0.0,0.0,0.0,0.0,0.0,0.0,0.0,0.0,0.0,0.0,0.0,0.0,0.0,0.0,0.0,0.0,0.0,0.0,0.0,0.0,0.0,0.0,0.0,0.0,0.0,0.0,0.0,0.0,0.9761,1.009,1.0942,1.143,1.143,1.1475,1.1557,1.1557,1.1557,1.1189,0.0,0.0,0.0,0.0,0.0,0.0,0.0,0.0,0.0,0.0,0.0,0.0,0.0,0.0,0.0,0.0,0.0,0.0,0.0,0.0,0.0,0.0,0.0,0.0,0.0,0.0,0.0,0.0,0.4217,0.4045,0.3741,0.0,0.0,0.0,0.0,0.0,0.0,0.0,0.0,0.0,0.0,0.4823,0.5069,0.5261,0.5395,0.5395,0.5395,0.5358,0.5216,0.5203,0.5152,0.5006,0.0,0.0,0.0,0.0,0.0,0.0,0.0,0.0,0.0,0.0,0.0,0.0,0.0,0.0,0.0,0.0,0.0,0.0,0.0,0.0,0.0,0.0,0.0,0.0,0.0,0.0,0.0,0.8237,0.0,0.0,0.9031,0.0,0.0,0.0,0.0,0.0,0.0,0.0,0.0,0.0,0.0,0.0,0.0,0.0,0.0,0.0,0.0,0.0,0.0,0.0,0.0,0.0,0.0,0.984,1.009,1.0969,1.1409,1.1402,1.171,1.1893,1.1899,1.1893,1.171,1.1362,0.0,0.0,0.0,0.0,0.0,0.0,0.0,0.0,0.0,0.0,0.0,0.0,0.0,0.0,0.0,0.0,0.0,0.0,0.0,0.0,0.0,0.0,0.0,0.0,0.0,0.0,0.4529,0.4562,0.443,0.0,0.0,0.0,0.0,0.0,0.0,0.0,0.0,0.0,0.4926,0.5091,0.5275,0.5562,0.5491,0.5409,0.5405,0.5402,0.5399,0.5399,0.5395,0.5304,0.0,0.0,0.0,0.0,0.0,0.0,0.0,0.0,0.0,0.0,0.0,0.0,0.0,0.0,0.0,0.0,0.0,0.0,0.0,0.0,0.0,0.0,0.0,0.0,0.0,0.0,0.0,1.0116,1.1408,0.0,0.0,0.0,0.0,0.0,0.0,0.0,0.0,0.0,0.0,0.0,1.1571,1.1412,0.0,0.0,0.0,0.0,0.0,0.0,0.0,0.0,0.0,0.0,0.0,0.0,1.0539,1.0468,1.1463,1.1917,1.1737,1.2004,1.2194,1.2158,1.2158,1.2017,1.1765,0.0,0.0,0.0,0.0,0.0,0.0,0.0,0.0,0.0,0.0,0.0,0.0,0.0,0.0,0.0,0.0,0.0,0.0,0.0,0.0,0.0,0.0,0.0,0.0,0.0,0.5534,0.0,0.0,0.0,0.0,0.0,0.0,0.0,0.0,0.0,0.0,0.4781,0.5151,0.5527,0.5539,0.5568,0.5898,0.5794,0.5654,0.0,0.0,0.0,0.0,0.0,0.0,0.0,0.0,0.0,0.0,0.0,0.0,0.0,0.414,0.3741,0.347,0.3358,0.3281,0.3175,0.0,0.0,0.0,0.0,0.0,0.0,0.0,0.0,0.0,0.0,0.0,0.0,0.0,0.0,1.2653,1.4048,1.4306,0.0,0.0,0.0,0.0,0.0,0.0,0.0,0.0,1.4285,1.3958,1.3128,1.3135,1.306,1.2905,1.2158,1.1443,0.0,0.0,0.0,0.0,0.0,0.0,0.0,0.0,1.1152,1.1137,1.1952,1.2321,1.2152,1.2378,1.2512,1.2612,1.2587,1.2382,1.2097,1.1492,1.1012,0.0,0.0,0.0,0.0,0.0,0.0,0.0,0.0,0.0,0.0,0.0,0.0,0.0,0.0,0.0,0.0,0.0,0.0,0.0,0.0,0.0,0.0,0.0,0.6597,0.0,0.0,0.0,0.0,0.0,0.0,0.0,0.0,0.0,0.4998,0.5345,0.5717,0.5978,0.5948,0.5962,0.6172,0.0,0.0,0.0,0.0,0.0,0.0,0.0,0.593,0.5748,0.569,0.559,0.5325,0.5148,0.5037,0.5087,0.0,0.0,0.4199,0.4072,0.4012,0.3926,0.3926,0.3869,0.3788,0.3788,0.3811,0.0,0.0,0.0,0.0,1.1097,0.0,0.0,0.0,1.4357,1.5073,0.0,1.6095,0.0,0.0,0.0,0.0,1.5859,1.6369,0.0,0.0,1.6693,1.6931,1.6194,1.6304,1.6442,1.6248,1.4275,1.3461,1.3535,1.1983,1.1016,0.0,0.0,0.0,0.0,0.0,1.1682,1.1948,1.2406,1.2613,1.262,1.2756,1.2976,1.3219,1.3072,1.2831,1.255,1.2303,1.2046,1.171,1.071,0.0,0.0,0.0,0.0,0.0,0.0,0.0,0.0,0.0,0.0,0.0,0.0,0.0,0.0,0.0,0.0,0.0,0.0,0.0,0.0,0.793,0.0,0.0,0.0,0.0,0.0,0.0,0.0,0.0,0.0,0.5944,0.5106,0.5801,0.6366,0.6242,0.0,0.0,0.0,0.0,0.6115,0.6118,0.6291,0.6431,0.6399,0.6399,0.6307,0.5971,0.0,0.0,0.5662,0.5596,0.5627,0.5772,0.5769,0.5547,0.4703,0.4584,0.455,0.455,0.4556,0.4544,0.454,0.4538,0.4562,1.4364,0.0,0.0,0.0,0.0,1.2772,1.327,1.444,1.4423,1.507,1.6134,1.676,0.0,0.0,0.0,0.0,0.0,0.0,1.6277,1.6011,1.6569,1.654,1.5978,1.5419,1.5323,1.5555,1.4155,1.36,1.3864,1.3183,1.2494,1.1868,0.0,0.0,0.0,0.0,1.2004,1.1731,1.2654,1.3154,1.3154,1.3453,1.3616,1.3713,1.3199,1.301,1.3133,1.2676,1.2368,1.227,1.1607,0.0,0.0,0.0,0.0,0.0,0.0,0.0,0.0,0.0,0.0,0.0,0.0,0.0,0.0,0.0,0.0,0.0,0.0,0.0,0.8664,0.8917,0.8884,0.0,0.0,0.0,0.0,0.0,0.0,0.0,0.0,0.0,0.6308,0.6527,0.6773,0.0,0.0,0.6818,0.6938,0.6806,0.6648,0.6651,0.6723,0.0,0.6761,0.6761,0.6667,0.6438,0.6212,0.6029,0.5958,0.5848,0.5752,0.5796,0.58,0.5703,0.5492,0.5442,0.5405,0.5408,0.5442,0.5442,0.5442,0.5408,0.5439,1.6722,1.5716,1.4505,1.4451,1.5151,1.4796,1.5132,1.5922,1.5854,1.6291,1.71,1.7471,1.7676,1.772,1.8018,0.0,0.0,0.0,1.6906,1.6703,1.7005,1.6985,1.6716,1.6546,1.6638,1.682,1.573,1.5345,1.5656,1.5043,1.4552,1.4104,0.0,1.2481,1.2321,1.2564,1.2628,1.2535,1.3168,1.3634,1.3882,1.4106,1.4212,1.4172,1.3797,1.3615,1.3627,1.3233,1.3042,1.3192,1.2466,1.1884,0.0,0.0,0.0,0.0,0.0,0.0,0.0,0.0,0.0,0.0,0.0,0.6489,0.6698,0.0,0.0,0.0,0.8745,0.9256,0.9777,0.9823,0.0,0.0,0.0,0.0,0.0,0.0,0.0,0.7956,0.8361,0.8501,0.8035,0.8037,0.786,0.7192,0.7057,0.7064,0.7203,0.0,0.7022,0.7022,0.7096,0.7134,0.7134,0.7134,0.7038,0.6801,0.6488,0.627,0.6292,0.6186,0.6134,0.622,0.6164,0.6127,0.6127,0.6057,0.5935,0.5827,0.58,0.58,0.58,0.58,0.58,1.8646,1.8514,1.6798,1.6276,1.6617,1.7239,1.7686,1.8008,1.7998,1.8223,1.852,1.8223,1.8516,1.9268,1.9209,0.0,1.8057,1.8057,1.7842,1.75,1.792,1.8135,1.8193,1.8893,1.9282,1.9275,1.8189,1.7861,1.8035,1.7103,1.6763,1.6942,1.4532,1.3429,1.3645,1.3408,1.3585,1.4148,1.4018,1.427,1.4826,1.4959,1.4891,1.4775,1.4826,1.4608,1.4198,1.3959,1.4015,1.432,1.3278,1.2815,1.3192,0.0,0.0,0.0,0.0,0.0,0.0,0.0,0.0,0.0,0.0,0.0,0.0,0.0,0.0,0.9736,1.0418,0.0,1.0653,1.0523,0.0,0.0,0.0,0.9052,0.8819,0.8858,0.8994,0.9195,0.0,0.0,0.9916,0.9958,0.9317,0.753,0.7361,0.7411,0.7427,0.7435,0.732,0.7429,0.7494,0.7529,0.7522,0.7557,0.7431,0.7165,0.6776,0.6588,0.6675,0.6667,0.6757,0.688,0.6793,0.6677,0.6677,0.6475,0.627,0.5962,0.5861,0.5847,0.5861,0.5864,0.5867,1.9141,1.9111,1.8657,1.8325,1.8087,1.8236,1.8178,1.8008,1.8008,1.8042,1.8139,1.8364,1.8789,1.9248,1.8603,1.8344,1.8451,1.8461,1.8403,1.8334,1.8789,1.916,1.9436,1.8995,1.8945,1.9204,1.808,1.7593,1.7634,1.7145,1.707,1.7329,1.6476,1.5827,1.5377,1.5519,1.5514,1.5462,1.5896,1.6497,1.7162,1.722,1.6895,1.6213,1.6596,1.6449,1.5693,1.517,1.4969,1.5038,1.4299,1.3853,1.3734,1.3275,0.0,0.0,0.0,0.0,0.0,0.0,0.0,0.0,0.0,0.8868,0.943,0.0,0.999,0.0,1.085,1.0936,1.0895,1.0561,0.0,0.0,1.0269,1.0196,1.0334,1.0509,1.0539,1.0331,1.0647,1.076,1.0467,1.0598,1.055,0.9961,0.9507,0.9357,0.9514,0.9004,0.8637,0.872,0.8273,0.7886,0.7874,0.7886,0.7862,0.7789,0.7545,0.7385,0.7419,0.731,0.7248,0.7282,0.7248,0.7208,0.72,0.6951,0.6651,0.6563,0.6349,0.619,0.619,0.6184,0.6149,1.9853,1.9891,1.9891,1.9717,1.9473,1.9092,1.8789,1.8584,1.8584,1.8574,1.8594,1.8828,1.9053,1.9248,1.8789,1.8711,1.888,1.8926,1.8926,1.8945,1.9365,1.9687,1.9884,1.9611,1.9627,1.9844,1.9171,1.8857,1.8848,1.8676,1.8676,1.8857,1.8676,1.8314,1.7661,1.6915,1.6535,1.6501,1.7086,1.7592,1.7989,1.7997,1.7715,1.7188,1.7441,1.7257,1.6546,1.6095,1.5964,1.6109,1.5457,1.511,1.5095,1.4671,1.3998,0.0,0.0,0.0,0.0,0.0,0.0,0.0,0.0,0.0,0.0,0.0,1.0835,1.1156,1.1303,1.1329,1.1196,1.0936,1.0844,1.0995,1.0954,1.0952,1.1108,1.1342,1.1467,1.142,1.1751,1.1926,1.1795,1.1879,1.1936,1.1884,1.157,1.1,1.0018,0.9138,0.8622,0.8724,0.8336,0.8012,0.8012,0.8012,0.8012,0.8012,0.7934,0.7851,0.7814,0.7728,0.7649,0.7653,0.7612,0.7529,0.7525,0.7301,0.7071,0.6931,0.6794,0.6572,0.6327,0.63,0.63,2.0772,2.0772,2.0772,2.0772,2.0713,1.9979,1.9561,1.949,1.9453,1.9453,1.9453,1.9453,1.9443,1.949,1.948,1.9453,1.9453,1.9453,1.9453,1.9473,1.9834,2.0,2.0019,2.0419,2.0615,2.0615,2.0664,2.0703,2.0693,2.0752,2.0772,2.0772,2.0772,2.0536,2.0025,1.824,1.742,1.7625,1.8099,1.8359,1.8318,1.831,1.8207,1.7942,1.8014,1.778,1.7198,1.6982,1.7002,1.729,1.6691,1.6442,1.6664,1.6038,1.528,0.0,1.3754,0.0,0.0,0.0,0.0,0.0,0.0,0.0,0.0,1.1438,1.1515,1.1555,1.179,1.1837,1.1575,1.1563,1.1515,1.159,1.1562,1.1603,1.1622,1.1884,1.2138,1.2392,1.2683,1.2958,1.3167,1.3227,1.3273,1.322,1.302,1.2218,1.033,0.9169,0.8593,0.8395,0.8205,0.813,0.8117,0.8105,0.8105,0.8093,0.8113,0.8081,0.8105,0.806,0.8056,0.8056,0.7947,0.7818,0.7757,0.7583,0.7352,0.7183,0.703,0.6845,0.6482,0.6381,0.6354,2.1641,2.1681,2.1631,2.1631,2.1621,2.1465,2.1026,2.0361,2.0361,2.0361,2.0361,2.037,2.0361,2.0361,2.0361,2.0361,2.0361,2.0361,2.0361,2.037,2.0439,2.0439,2.0488,2.0566,2.0615,2.0625,2.0937,2.1103,2.1073,2.1465,2.1641,2.1641,2.1681,2.1498,2.1183,0.0,0.0,0.0,2.0055,2.0128,2.0079,2.0118,1.9766,1.9063,1.9687,0.0,1.8651,1.8326,1.8092,1.8003,1.7692,0.0,0.0,0.0,0.0,0.0,0.0,0.0,0.0,0.0,0.0,0.0,1.2657,1.2378,1.197,1.2036,1.2238,1.2502,1.2362,1.2298,1.2509,1.2278,1.2238,1.2502,1.2536,1.263,1.2832,1.2913,1.2986,1.3033,1.3086,1.3233,1.3467,1.352,1.3613,1.3806,1.3274,1.2638,1.215,1.1009,1.0438,1.0544,0.9409,0.8541,0.8463,0.849,0.8469,0.8463,0.8506,0.8498,0.8446,0.8494,0.8498,0.849,0.8463,0.832,0.8135,0.7823,0.7515,0.7303,0.6996,0.6764,0.6627,0.6617,0.6617,2.1936,2.1936,2.1936,2.1936,0.0,2.1936,2.1681,2.1261,2.1251,2.1221,2.1251,2.1261,2.1261,2.1221,2.1261,2.1251,2.1261,2.1251,2.1261,2.1261,2.1221,2.1251,2.1261,2.1261,2.1221,2.1271,2.1445,2.1553,2.1572,2.1768,2.1936,2.1936,2.1936,2.1834,2.17,2.17,2.1354,2.0728,2.0624,2.0615,2.0615,2.0615,2.0429,2.0106,2.0321,0.0,0.0,0.0,0.0,0.0,0.0,0.0,0.0,1.8807,1.8683,1.7881,1.7045,1.6528,1.6438,1.6174,1.5621,1.4732,1.391,1.3209,1.2599,1.2654,1.2812,1.2991,1.2832,1.2812,1.2991,1.2832,1.2812,1.2959,1.3018,1.3046,1.3193,1.334,1.338,1.3407,1.3547,1.3707,1.3841,1.3861,1.3915,1.4055,1.3701,1.3349,1.3258,1.2039,1.116,1.1262,1.0164,0.9257,0.9218,0.8828,0.8612,0.8612,0.8616,0.8616,0.8616,0.8616,0.8616,0.8616,0.8616,0.8524,0.8241,0.8036,0.7808,0.7465,0.7235,0.7051,0.6909,0.6803,0.6702,2.2109,2.2109,2.21,2.21,2.2109,2.21,2.2109,2.21,2.1943,0.0,0.0,2.1936,2.1936,2.1936,2.1936,2.1936,2.1936,2.1936,2.1936,2.1936,2.1936,2.1936,2.1936,2.1936,2.1936,2.1936,2.1963,2.1992,2.2002,2.207,2.2109,2.21,2.2109,2.2109,2.21,2.2041,2.1724,2.1192,2.0858,2.0723,2.0723,2.0644,2.0693,2.096,2.0642,2.0696,2.1227,2.0712,2.0383,2.0383,2.0626,2.0461,1.9728,1.9886,1.9735,1.9165,1.8555,1.8286,1.8581,1.8667,1.8136,1.6771,1.5335,1.4112,1.33,1.3255,1.3273,1.3313,1.328,1.33,1.3353,1.3367,1.3367,1.336,1.336,1.3373,1.3387,1.3533,1.368,1.3706,1.3921,1.4082,1.4068,1.4075,1.4088,1.4088,1.4046,1.4088,1.3913,1.265,1.152,1.1278,1.0593,1.0164,1.0077,0.9646,0.9043,0.8955,0.8867,0.8784,0.8656,0.8616,0.8616,0.8616,0.8616,0.8476,0.8292,0.8193,0.8025,0.7591,0.7507,0.7415,0.7166,0.6949,0.68,2.2906,2.2916,2.2916,2.2916,2.2916,2.2925,2.2916,2.2857,2.2207,2.1936,2.1936,2.1936,2.1936,2.1936,2.1936,2.1936,2.1936,2.1936,2.1936,2.1936,2.1936,2.1936,2.1936,2.1936,2.1936,2.1914,2.2246,2.2432,2.2461,2.274,2.2916,2.2906,2.2925,2.2916,2.2886,2.2607,2.235,2.2272,2.1502,2.1103,2.1093,2.0771,2.0781,2.1121,2.1111,2.1236,2.1495,2.1099,2.0728,2.0566,2.0442,2.0138,1.9688,1.984,1.9749,1.9267,1.8628,1.8212,1.8258,1.7643,1.7183,1.696,1.6803,1.5991,1.4187,1.3678,1.3572,1.3858,1.3703,1.3646,1.3921,1.3983,1.397,1.3941,1.3955,1.3961,1.3935,1.3968,1.4001,1.4008,1.4055,1.4088,1.4088,1.4088,1.4088,1.4088,1.4088,1.4088,1.3955,1.3179,1.2229,1.1494,1.1192,1.1106,1.1068,1.102,1.0506,0.9816,0.9733,0.9471,0.8828,0.87,0.87,0.8612,0.8612,0.8476,0.8248,0.8201,0.8028,0.7635,0.7551,0.7415,0.7187,0.7041,0.7018,2.3101,2.3101,2.3101,2.3101,2.3101,2.3101,2.3101,2.3071,2.2691,2.2559,2.2559,2.2526,2.2568,2.2568,2.2559,2.2568,2.2568,2.2568,2.2559,2.2568,2.2559,2.2568,2.2559,2.2706,2.2739,2.2801,2.2935,2.3024,2.3044,2.3231,2.3319,2.3319,2.3319,2.3319,2.3309,2.2993,2.2969,2.3174,2.2139,2.1689,2.1873,2.1728,2.1943,2.2598,2.236,2.2535,2.3081,2.2702,2.2436,2.236,2.2475,2.2236,2.1605,2.1629,2.1475,2.1064,2.0505,2.0232,2.0183,1.9433,1.9075,1.9223,1.8676,1.7985,1.7056,1.5675,1.4925,1.503,1.4565,1.4261,1.4398,1.4412,1.4405,1.4279,1.4286,1.4208,1.4124,1.4088,1.4088,1.4088,1.4088,1.4088,1.4088,1.4088,1.4088,1.4088,1.4088,1.4088,1.4088,1.3743,1.3313,1.2875,1.24,1.2095,1.2057,1.1585,1.1154,1.0722,1.0679,1.0289,0.9515,0.9301,0.913,0.87,0.8616,0.8476,0.8292,0.8201,0.8025,0.7812,0.7595,0.7459,0.7323,0.7187,0.7095,2.3101,2.3101,2.3101,2.3101,2.3101,2.3101,2.3101,2.3101,2.3091,2.3101,2.3101,2.3101,2.3101,2.3101,2.3101,2.3091,2.3101,2.3101,2.3135,2.3188,2.3178,2.3222,2.3276,2.3493,2.358,2.358,2.359,2.3547,2.359,2.3547,2.359,2.358,2.358,2.3547,2.3493,2.3276,2.3355,2.3564,2.2666,2.2334,2.2594,2.2568,2.2881,2.3555,2.3408,2.3598,2.43,2.4014,2.3789,2.3799,2.4014,2.3838,2.3266,2.3144,2.2945,2.2676,2.2363,2.2168,2.2168,2.155,2.1291,2.1581,2.0719,2.0195,2.0013,1.8456,1.7074,1.6526,1.578,1.5261,1.512,1.493,1.4782,1.471,1.4544,1.4446,1.4289,1.4213,1.4124,1.4124,1.4088,1.4088,1.4088,1.4088,1.4088,1.4088,1.4088,1.4088,1.4088,1.4088,1.4088,1.3955,1.3476,1.3052,1.296,1.2491,1.1972,1.1714,1.1628,1.1198,1.0506,1.0202,1.0033,0.9476,0.9087,0.8911,0.864,0.8424,0.8248,0.8032,0.7812,0.768,0.7595,0.737,0.7187,2.3101,2.3101,2.3101,2.3101,2.3101,2.3101,2.3101,2.3101,2.3101,2.3101,2.3101,2.3101,2.3101,2.3101,2.3101,2.3101,2.3101,2.3101,2.3232,2.3406,2.346,2.3547,2.3667,2.3754,2.3754,2.3754,2.3797,2.3797,2.3807,2.3797,2.3807,2.3754,2.3754,2.3711,2.3503,2.347,2.3392,2.3159,2.3042,2.3003,2.3013,2.2705,2.2744,2.3247,2.3574,2.3945,2.4443,2.4014,2.3799,2.3769,2.357,2.3325,2.3247,2.3164,2.3135,2.3125,2.311,2.309,2.3081,2.294,2.2863,2.2935,2.2848,2.2722,2.2659,2.1864,2.04,1.8634,1.7485,1.6761,1.634,1.5647,1.5267,1.5399,1.4992,1.4712,1.4735,1.4569,1.4272,1.4088,1.413,1.4088,1.413,1.413,1.4088,1.4088,1.4088,1.4088,1.4088,1.4088,1.4088,1.4088,1.3962,1.3913,1.387,1.3913,1.3307,1.2705,1.2577,1.2149,1.1499,1.1149,1.1025,1.0332,1.025,0.9772,0.9471,0.917,0.8516,0.842,0.8245,0.8069,0.7896,0.7635,0.737,2.3101,2.3101,2.3101,2.3101,2.3101,2.3101,2.3101,2.3101,2.3101,2.3101,2.3101,2.3101,2.3101,2.3101,2.3101,2.3101,2.3101,2.3101,2.3144,2.3276,2.3276,2.3396,2.3624,2.3754,2.3894,2.4024,2.4024,2.4024,2.4024,2.4024,2.411,2.4196,2.411,2.398,2.3924,2.3883,2.3782,2.3703,2.3949,2.4122,2.4067,2.3765,2.3975,2.4619,2.4853,2.501,2.5166,2.4972,2.4988,2.5147,2.4989,2.4782,2.4582,2.4516,2.4352,2.3981,2.3906,2.3906,2.3906,2.3896,2.3851,2.3887,2.3906,2.3906,2.3851,2.357,2.2811,2.157,1.9396,1.7774,1.727,1.6296,1.5662,1.5583,1.5213,1.4888,1.4768,1.4656,1.4531,1.4454,1.4454,1.4412,1.4279,1.4166,1.413,1.4088,1.4088,1.413,1.4088,1.4088,1.4088,1.4088,1.4088,1.4088,1.4088,1.4088,1.387,1.3652,1.3525,1.3222,1.24,1.2143,1.1837,1.0804,1.0636,1.0419,0.9903,0.9733,0.9297,0.9074,0.8504,0.8157,0.7944,0.7683,0.7462,2.3198,2.3101,2.3101,2.3101,2.3101,2.3101,2.3101,2.3135,2.3178,2.3178,2.3222,2.3232,2.3188,2.3232,2.3178,2.3232,2.3232,2.3276,2.3363,2.3363,2.3406,2.3537,2.3764,2.3927,2.411,2.4239,2.4282,2.4292,2.4282,2.4282,2.4378,2.4454,2.4368,2.4239,2.4194,2.4139,2.4162,2.4247,2.4555,2.4834,2.4967,2.4878,2.5043,2.5604,2.5771,2.5781,2.5684,2.5684,2.583,2.61,2.61,2.601,2.5807,2.5682,2.5391,2.4824,2.4738,2.4775,2.4738,2.4775,2.4738,2.4775,2.4729,2.4775,2.4729,2.4729,2.4521,2.3764,2.1364,1.9527,1.8454,1.7296,1.6461,1.6118,1.5734,1.5362,1.5262,1.5105,1.5021,1.4881,1.4852,1.4733,1.4545,1.4363,1.4286,1.4286,1.4292,1.4208,1.4201,1.4159,1.4166,1.413,1.4088,1.4088,1.4088,1.4088,1.4088,1.4088,1.4046,1.3786,1.3222,1.313,1.2699,1.1794,1.1542,1.0895,1.0115,0.9903,0.9864,0.9728,0.9248,0.8508,0.8252,0.79,0.7768,2.3525,2.314,2.311,2.3149,2.311,2.312,2.311,2.314,2.3382,2.346,2.346,2.346,2.3493,2.3503,2.3503,2.3493,2.3503,2.3667,2.3851,2.4034,2.4067,2.4249,2.4464,2.4464,2.4454,2.4464,2.4454,2.4454,2.4497,2.4497,2.4497,2.4507,2.4454,2.4378,2.429,2.4285,2.4297,2.4535,2.4631,2.4942,2.5625,2.5725,2.5691,2.5632,2.5892,2.5955,2.5781,2.5732,2.583,2.61,2.6149,2.6235,2.6408,2.6196,2.5935,2.5673,2.5644,2.5644,2.5615,2.5557,2.5557,2.5586,2.5518,2.5586,2.5499,2.5499,2.5187,2.4436,2.3373,2.1949,2.0311,1.8864,1.7905,1.7316,1.6683,1.6403,1.6425,1.6064,1.5709,1.5345,1.5225,1.5098,1.4783,1.4692,1.4719,1.4684,1.4692,1.467,1.4536,1.446,1.4347,1.424,1.4197,1.4108,1.4102,1.4155,1.4135,1.4208,1.4275,1.4155,1.4102,1.3913,1.3332,1.2747,1.229,1.1511,1.04,0.9859,0.983,0.9786,0.9816,0.934,0.8819,0.842,0.8372,2.4102,2.3965,2.3955,2.3955,2.389,2.3672,2.3555,2.3525,2.3306,2.3319,2.3503,2.3493,2.358,2.3721,2.3894,2.3764,2.3547,2.3711,2.3841,2.3927,2.3937,2.4067,2.4282,2.4325,2.4378,2.4507,2.4507,2.4507,2.4507,2.4507,2.4507,2.4507,2.4507,2.4598,2.48,2.4955,2.51,2.5259,2.5711,2.6046,2.6046,2.6519,2.6635,2.6408,2.6358,2.6304,2.6217,2.6217,2.6314,2.6592,2.6602,2.6651,2.6699,2.6496,2.6304,2.6217,2.6062,2.5965,2.5965,2.5771,2.5684,2.5684,2.5684,2.5684,2.5684,2.5674,2.5538,2.5178,2.4715,2.3636,2.2115,2.0342,1.9159,1.8844,1.796,1.7345,1.7186,1.6699,1.6147,1.6009,1.5848,1.5667,1.5517,1.5416,1.5336,1.5336,1.5329,1.5308,1.5234,1.5097,1.4939,1.4885,1.4774,1.4687,1.4693,1.4469,1.4409,1.4576,1.4663,1.4707,1.4673,1.4626,1.4158,1.3448,1.2951,1.2536,1.1538,1.0474,1.0312,0.9468,0.9498,0.9809,0.9515,0.9117,0.9327,2.4654,2.4654,2.4664,2.4654,2.4625,2.4349,2.423,2.4246,2.4004,2.3939,2.3961,2.3941,2.3948,2.3947,2.411,2.4024,2.3764,2.3937,2.4013,2.4013,2.4013,2.411,2.4292,2.4282,2.4378,2.4464,2.4507,2.4507,2.4507,2.4507,2.4507,2.4507,2.4507,2.4642,2.4939,2.5095,2.5255,2.5567,2.6054,2.6208,2.6151,2.6594,2.678,2.6613,2.6537,2.6499,2.6486,2.6496,2.6651,2.6853,2.689,2.689,2.689,2.6747,2.6602,2.6506,2.6245,2.61,2.6052,2.5878,2.5684,2.5684,2.5684,2.5684,2.5684,2.5684,2.5674,2.5508,2.5273,2.4571,2.3372,2.1961,2.0811,2.0094,1.9096,1.8594,1.8506,1.7741,1.7078,1.658,1.6278,1.6153,1.6116,1.6013,1.591,1.5931,1.5931,1.5887,1.5798,1.562,1.5383,1.5294,1.5095,1.5015,1.5062,1.493,1.4743,1.4863,1.4968,1.5028,1.5082,1.5062,1.4823,1.4114,1.3643,1.3359,1.2609,1.1464,1.0407,0.9438,0.9491,0.9946,0.9842,0.9763,1.0106,2.5229,2.5259,2.5199,2.5233,2.5253,2.5173,2.5189,2.5178,2.5356,2.5127,2.4822,2.4846,2.4642,2.4349,2.4362,2.4237,2.4268,2.4399,2.4411,2.4411,2.4454,2.4464,2.4464,2.4464,2.4464,2.4507,2.4507,2.4507,2.4507,2.4507,2.4507,2.4507,2.4507,2.4559,2.4549,2.4735,2.489,2.5303,2.5561,2.5644,2.5844,2.6092,2.6154,2.6123,2.6419,2.6644,2.6524,2.6544,2.6688,2.69,2.6938,2.69,2.6938,2.689,2.6805,2.6544,2.6294,2.6149,2.61,2.5839,2.5664,2.5596,2.5625,2.5528,2.5508,2.5577,2.5508,2.5137,2.5049,2.469,2.3978,2.3541,2.2619,2.0708,2.0247,2.0103,1.9966,1.9343,1.834,1.7334,1.6862,1.6507,1.6485,1.6477,1.6469,1.6424,1.6454,1.6372,1.6185,1.6012,1.5676,1.5407,1.5337,1.5335,1.537,1.5378,1.5211,1.5142,1.5149,1.5182,1.5197,1.5204,1.5048,1.4479,1.3979,1.3638,1.3106,1.2032,1.1425,1.064,1.0586,1.0524,1.07,1.0837,1.0987,2.6094,2.6094,2.6084,2.6094,2.6044,2.5762,2.5631,2.5591,2.5421,2.5346,2.537,2.5394,2.5347,2.5286,2.5029,2.4885,2.4854,2.4619,2.4507,2.455,2.4507,2.4507,2.4507,2.4507,2.4507,2.4507,2.4507,2.4507,2.4507,2.4507,2.4507,2.4507,2.4507,2.4673,2.4962,2.5306,2.5689,2.6134,2.6475,2.6703,2.6864,2.6864,2.6864,2.6895,2.7019,2.708,2.7051,2.7071,2.7071,2.7177,2.7167,2.7167,2.7177,2.7177,2.7119,2.7023,2.6794,2.6544,2.6312,2.5871,2.5474,2.5272,2.5019,2.4797,2.4873,2.5117,2.5068,2.4736,2.4863,2.4717,2.4014,2.3789,2.3271,2.2274,2.1641,2.123,2.1051,2.0367,1.9683,1.9191,1.8526,1.8115,1.7918,1.7584,1.715,1.7119,1.7073,1.6989,1.6919,1.6653,1.6494,1.6248,1.599,1.569,1.5665,1.5658,1.5571,1.547,1.5398,1.5371,1.5404,1.5378,1.5173,1.4947,1.444,1.3924,1.3385,1.2829,1.2227,1.1922,1.1833,1.1887,1.2025,1.2061,1.2025,2.6784,2.6784,2.6784,2.6794,2.6754,2.6469,2.6357,2.6327,2.6072,2.5998,2.5967,2.5982,2.5904,2.5854,2.5585,2.5482,2.542,2.4962,2.4918,2.507,2.4624,2.4507,2.4507,2.4507,2.4507,2.4507,2.4507,2.4507,2.4507,2.4507,2.4507,2.4507,2.4507,2.4735,2.5158,2.5502,2.5865,2.6345,2.6615,2.6791,2.6791,2.6791,2.6801,2.6801,2.6957,2.704,2.7061,2.7195,2.732,2.732,2.732,2.732,2.732,2.732,2.732,2.7241,2.688,2.654,2.6347,2.5738,2.5302,2.5092,2.4802,2.4664,2.4703,2.494,2.4808,2.467,2.4695,2.4587,2.3945,2.3789,2.3594,2.314,2.2555,2.2104,2.1739,2.1195,2.0548,2.0116,1.9617,1.9376,1.9147,1.8918,1.8373,1.8326,1.8056,1.7831,1.7738,1.7318,1.7059,1.677,1.6479,1.6169,1.5988,1.5906,1.5906,1.5819,1.5732,1.5698,1.5685,1.5685,1.555,1.549,1.5113,1.4615,1.4039,1.3655,1.3155,1.3107,1.287,1.2608,1.2489,1.2657,1.2762,2.7309,2.732,2.7309,2.7262,2.7262,2.7231,2.721,2.7241,2.721,2.6951,2.6662,2.662,2.6484,2.6187,2.6239,2.6222,2.6059,2.5849,2.5957,2.6109,2.553,2.4912,2.455,2.4668,2.4743,2.4711,2.4668,2.47,2.4956,2.504,2.4689,2.4882,2.503,2.5004,2.5609,2.543,2.5975,2.6486,2.6435,2.6543,2.6532,2.6445,2.6445,2.6487,2.6921,2.7167,2.7298,2.7572,2.7584,2.7357,2.732,2.7278,2.7268,2.7268,2.7226,2.7112,2.6531,2.6274,2.5991,2.5528,2.5093,2.4981,2.4891,2.5032,2.4841,2.4764,2.4693,2.4594,2.451,2.4255,2.3873,2.3746,2.356,2.3188,2.296,2.2599,2.1971,2.1784,2.1463,2.0782,2.0367,2.0277,2.0277,2.0141,1.9968,1.9824,1.9276,1.8926,1.8742,1.8249,1.7387,1.7113,1.7099,1.6676,1.644,1.6076,1.6021,1.5974,1.5879,1.5825,1.5825,1.5825,1.5825,1.5778,1.5683,1.5146,1.4841,1.4452,1.4052,1.3766,1.3425,1.2986,1.3089,1.3401,1.3436,2.732,2.732,2.732,2.732,2.732,2.732,2.732,2.732,2.732,2.7226,2.7123,2.7123,2.7441,2.7896,2.7597,2.7841,2.8166,2.7995,2.7676,2.7564,2.7302,2.5999,2.4966,2.5179,2.5453,2.5463,2.5463,2.5799,2.6404,2.6663,2.6716,2.6434,2.6674,2.7004,2.7278,2.7452,2.8018,2.8533,2.888,2.897,2.8958,2.8958,2.9048,2.9071,2.9126,2.9171,2.9239,2.9362,2.8678,2.7404,2.732,2.7143,2.691,2.6869,2.6744,2.6433,2.6129,2.5889,2.567,2.5253,2.4885,2.4645,2.4478,2.4149,2.4159,2.4415,2.4395,2.4221,2.4266,2.4237,2.3747,2.356,2.3418,2.3174,2.3101,2.3003,2.2731,2.2731,2.2599,2.2325,2.1686,2.1364,2.1186,2.0773,2.0413,2.0322,2.0096,1.9832,1.9695,1.9467,1.875,1.8203,1.7924,1.7326,1.6817,1.6407,1.6177,1.6123,1.5981,1.5825,1.5825,1.5825,1.5825,1.5778,1.5778,1.5439,1.5486,1.5365,1.4949,1.4448,1.45,1.4352,1.4371,1.459,1.4208,2.732,2.732,2.732,2.732,2.732,2.732,2.732,2.732,2.732,2.732,2.7404,2.7762,2.8175,2.8645,2.8831,2.9195,2.9709,2.9282,2.9129,2.9233,2.9101,2.7769,2.6285,2.6193,2.6359,2.6318,2.637,2.6742,2.7314,2.764,2.7529,2.7424,2.7552,2.7702,2.787,2.8456,2.8939,2.9389,2.9894,3.0215,3.0215,3.0215,3.017,3.0215,3.0215,3.0146,2.9883,2.9792,2.933,2.8659,2.8516,2.8136,2.7303,2.7193,2.6936,2.6481,2.5933,2.565,2.5725,2.5236,2.4856,2.4881,2.4504,2.4378,2.4528,2.4571,2.4213,2.4102,2.4156,2.3941,2.3626,2.3406,2.3319,2.3276,2.3188,2.3101,2.3101,2.3047,2.3101,2.296,2.2643,2.229,2.228,2.1686,2.1498,2.1364,2.1141,2.097,2.0782,2.0512,2.0104,1.9467,1.9063,1.8688,1.8326,1.7971,1.7318,1.7084,1.6353,1.6157,1.6008,1.5961,1.5825,1.5825,1.5825,1.5825,1.5825,1.5825,1.5602,1.5334,1.5578,1.5504,1.5324,1.505,1.4756,2.732,2.732,2.732,2.732,2.732,2.7309,2.7404,2.7489,2.7536,2.7631,2.7904,2.8538,2.9037,2.9026,2.9965,3.0418,3.0574,3.0341,3.0351,3.0477,3.0368,2.927,2.779,2.7405,2.7365,2.733,2.7342,2.783,2.8298,2.7982,2.7947,2.8304,2.7924,2.7905,2.8579,2.8939,2.9222,2.9989,3.0566,3.0833,3.0857,3.0857,3.0902,3.089,3.0693,3.0334,2.9919,2.9715,2.9802,3.0277,3.0236,2.9319,2.8251,2.804,2.7722,2.7108,2.6216,2.5947,2.627,2.5573,2.5179,2.5675,2.5264,2.5062,2.5558,2.5126,2.4581,2.4529,2.4057,2.3881,2.3697,2.3406,2.3353,2.345,2.3319,2.3144,2.3135,2.3135,2.3101,2.3101,2.3091,2.3091,2.3101,2.3101,2.3003,2.2325,2.2104,2.1917,2.173,2.1498,2.1051,2.0466,2.024,2.0187,1.9923,1.9666,1.8918,1.8319,1.7225,1.6662,1.6426,1.6285,1.5967,1.5825,1.5825,1.5825,1.5825,1.5825,1.5825,1.5812,1.5725,1.5625,1.5484,1.5144,1.4874,2.732,2.732,2.732,2.732,2.732,2.732,2.7762,2.8398,2.8409,2.876,2.9441,2.9818,3.026,3.089,3.1169,3.1713,3.2264,3.213,3.2017,3.117,3.0785,3.0423,2.9649,2.9152,2.8617,2.8533,2.9094,2.9615,2.989,3.0069,3.0269,2.993,2.9633,3.0056,3.0392,3.0391,3.1334,3.2081,3.2321,3.2258,3.2295,3.2307,3.2283,3.2221,3.1853,3.1417,3.1082,3.0959,3.1021,3.0955,3.0513,2.9754,2.8781,2.8555,2.8125,2.7405,2.6922,2.6757,2.6847,2.6655,2.6577,2.67,2.6535,2.6618,2.6689,2.5997,2.5505,2.5337,2.4807,2.4315,2.4024,2.3797,2.3711,2.3667,2.3547,2.3416,2.3363,2.3232,2.3101,2.3101,2.3101,2.3101,2.3101,2.3101,2.3101,2.3057,2.296,2.2818,2.2589,2.2359,2.1952,2.1373,2.132,2.1186,2.0827,2.061,2.0059,1.9368,1.8365,1.7638,1.7397,1.6655,1.6339,1.6055,1.5825,1.5825,1.5825,1.5825,1.5825,1.5825,1.5825,1.5752,1.5585,1.5283,1.4995,2.8222,2.8631,2.8175,2.8222,2.8631,2.8678,2.8945,2.936,2.9406,2.9669,3.0215,3.0633,3.1125,3.1637,3.2089,3.2624,3.2982,3.3111,3.2616,3.1859,3.1474,3.1248,3.1044,3.0794,3.0397,3.0003,3.0126,3.067,3.1163,3.1135,3.0879,3.0909,3.0507,3.0351,3.0947,3.1047,3.1558,3.2319,3.2679,3.278,3.3074,3.3124,3.288,3.2629,3.2127,3.1574,3.1044,3.0994,3.0982,3.0979,3.0833,3.0207,2.9204,2.8974,2.8533,2.7906,2.7273,2.7424,2.7557,2.7395,2.7261,2.773,2.7395,2.7435,2.7395,2.6935,2.6235,2.583,2.5379,2.4925,2.4411,2.397,2.3884,2.3937,2.3764,2.3634,2.358,2.3319,2.3101,2.3101,2.3101,2.3101,2.3101,2.3101,2.3101,2.3101,2.3101,2.296,2.296,2.2775,2.2731,2.2413,2.2369,2.2183,2.173,2.1373,2.097,2.0376,1.9704,1.9109,1.8826,1.7816,1.6756,1.6433,1.6109,1.5825,1.5825,1.5825,1.5825,1.5825,1.5825,1.5825,1.5671,1.5291,1.5109,2.9441,3.0125,2.9268,2.9406,3.0125,3.017,3.0215,3.0396,3.0396,3.0576,3.0756,3.1492,3.1889,3.2033,3.2667,3.3081,3.3124,3.3086,3.2692,3.2164,3.2064,3.1825,3.1609,3.1617,3.1701,3.1562,3.1342,3.1596,3.1684,3.1323,3.1085,3.1135,3.0319,3.0231,3.0493,3.0618,3.1122,3.1976,3.2102,3.2252,3.2604,3.2722,3.2416,3.1913,3.1537,3.1022,3.0608,3.0482,3.0495,3.052,3.0922,3.0471,2.9792,2.9452,2.923,2.8721,2.8091,2.8131,2.8462,2.8131,2.8011,2.8633,2.8051,2.7971,2.8303,2.7879,2.7139,2.6565,2.6121,2.5663,2.4818,2.4519,2.4305,2.4186,2.4024,2.3884,2.3797,2.3493,2.3266,2.3188,2.3144,2.3101,2.3101,2.3101,2.3101,2.3101,2.3101,2.3101,2.3101,2.3091,2.3003,2.296,2.2818,2.2775,2.2369,2.2236,2.1828,2.1427,2.0836,2.043,2.0068,1.9063,1.7956,1.685,1.644,1.6204,1.5967,1.5927,1.5927,1.5872,1.5825,1.5825,1.5618,1.5324,1.5182,3.0034,3.0215,3.0034,3.0079,3.0215,3.0215,3.0711,3.1303,3.1359,3.1845,3.2537,3.2754,3.2754,3.2896,3.2952,3.3124,3.3124,3.3099,3.2792,3.234,3.2252,3.2089,3.2114,3.1825,3.2039,3.2629,3.2541,3.2428,3.2139,3.1625,3.1373,3.1173,3.0369,3.0156,3.0532,3.0645,3.0899,3.154,3.1656,3.1732,3.1883,3.1854,3.1587,3.1122,3.0909,3.0545,3.0093,2.9942,2.993,2.9942,3.0005,2.9939,2.9833,3.0067,2.9928,2.9553,2.9248,2.917,2.9326,2.9365,2.9378,2.9546,2.931,2.9271,2.9349,2.8852,2.8298,2.7817,2.7174,2.6483,2.5663,2.5453,2.5094,2.4743,2.4368,2.4229,2.4153,2.3894,2.3624,2.3493,2.3319,2.3144,2.3188,2.3188,2.3144,2.3144,2.3101,2.3101,2.3101,2.3101,2.3091,2.3047,2.3047,2.3047,2.296,2.2872,2.2687,2.2422,2.1926,2.1561,2.1015,2.0249,1.9293,1.8411,1.7404,1.6763,1.6534,1.6346,1.6116,1.6109,1.5967,1.5825,1.5718,1.5582,1.5187,3.1214,3.1625,3.1125,3.1214,3.1657,3.1713,3.1933,3.2351,3.2394,3.2612,3.2982,3.3124,3.3124,3.3124,3.3124,3.3124,3.3124,3.3124,3.2948,3.2641,3.2378,3.2416,3.2528,3.2077,3.2365,3.2855,3.3086,3.2998,3.2629,3.2102,3.1825,3.1574,3.0746,3.0507,3.0773,3.0563,3.088,3.1297,3.1377,3.1432,3.162,3.1577,3.1218,3.0758,3.057,3.0331,2.9905,2.9779,2.9792,2.9792,2.9792,2.9779,2.988,2.998,3.008,2.9842,2.9779,2.9792,2.9792,2.9804,2.9866,3.0193,3.0218,3.0382,3.0453,3.0208,2.9609,2.8831,2.776,2.6946,2.6535,2.6505,2.6246,2.5883,2.539,2.5052,2.4893,2.4401,2.4186,2.397,2.3754,2.358,2.3319,2.3319,2.3232,2.3188,2.3144,2.3101,2.3091,2.3101,2.3101,2.3101,2.3101,2.3101,2.3101,2.3101,2.3101,2.296,2.2784,2.2422,2.2059,2.1293,2.0836,2.0277,1.9185,1.8095,1.7404,1.7304,1.685,1.6393,1.6305,1.6177,1.6047,1.5788,1.5357,3.2351,3.3025,3.2208,3.2351,3.3025,3.3124,3.3081,3.3124,3.3081,3.3081,3.3124,3.3124,3.3124,3.3124,3.3124,3.3124,3.3124,3.3124,3.3099,3.2955,3.2654,3.2679,3.2805,3.2729,3.2654,3.3023,3.321,3.3154,3.2948,3.2512,3.2323,3.2038,3.1319,3.0966,3.1135,3.0747,3.1002,3.1069,3.1211,3.1316,3.1519,3.1502,3.1189,3.0626,3.0511,3.0284,2.9907,2.983,2.9779,2.9779,2.9779,2.9779,2.9779,2.9779,2.9779,2.9779,2.9779,2.9829,2.9967,2.9993,3.0256,3.0708,3.0771,3.0997,3.1173,3.1091,3.0838,2.974,2.8896,2.8087,2.797,2.7649,2.7469,2.7065,2.6512,2.5986,2.5872,2.5547,2.5232,2.4893,2.4433,2.4013,2.3744,2.3537,2.3493,2.3319,2.3276,2.3135,2.3135,2.3101,2.3101,2.3101,2.3101,2.3101,2.3101,2.3101,2.3101,2.3047,2.3003,2.2828,2.2643,2.2369,2.1961,2.1552,2.123,2.0178,1.9268,1.8357,1.8133,1.7684,1.6998,1.6687,1.6782,1.62,1.55,3.2982,3.3068,3.2939,3.2982,3.3081,3.3124,3.3124,3.3124,3.3124,3.3124,3.3124,3.3124,3.3124,3.3124,3.3124,3.3124,3.3124,3.3124,3.3086,3.2986,3.2898,3.2915,3.3061,3.3043,3.2965,3.3185,3.3326,3.324,3.3139,3.2782,3.2586,3.2409,3.2049,3.1672,3.121,3.0969,3.088,3.065,3.0573,3.0586,3.0676,3.0689,3.0573,3.0433,3.0292,3.0163,3.0023,2.9908,2.9779,2.9779,2.9779,2.9779,2.9779,2.9779,2.9779,2.9779,2.9842,3.0005,3.0369,3.0495,3.0733,3.1185,3.1298,3.1336,3.1524,3.1512,3.1383,3.1295,3.0757,3.0229,2.9484,2.9205,2.8716,2.8064,2.7387,2.7033,2.6864,2.64,2.6133,2.5883,2.5463,2.4669,2.4166,2.3917,2.3711,2.3537,2.3406,2.3309,2.3222,2.3232,2.3101,2.3101,2.3101,2.3101,2.3101,2.3101,2.3101,2.3101,2.3101,2.3101,2.296,2.2828,2.2916,2.2545,2.2271,2.1774,2.0593,1.9869,1.9559,1.8964,1.8234,1.7948,1.7794,1.697,1.6136,3.3124,3.3124,3.3124,3.3124,3.3124,3.3124,3.3124,3.3124,3.3124,3.3124,3.3124,3.3124,3.3124,3.3124,3.3124,3.3124,3.3124,3.3124,3.2965,3.2861,3.2866,3.2895,3.2971,3.2996,3.306,3.3403,3.3513,3.3556,3.3411,3.3284,3.3126,3.273,3.2327,3.1752,3.1408,3.1036,3.0804,3.07,3.0698,3.0672,3.0609,3.0571,3.052,3.0394,3.0216,3.0139,3.0075,2.9908,2.9779,2.9779,2.9779,2.9779,2.988,3.0055,3.0256,3.0281,3.057,3.0683,3.0658,3.0909,3.1323,3.17,3.1888,3.2014,3.2164,3.2039,3.1851,3.1851,3.1549,3.1107,3.0572,3.0198,2.9702,2.9072,2.8293,2.8025,2.7718,2.7221,2.6853,2.6648,2.6442,2.5746,2.5041,2.4594,2.4219,2.3754,2.3667,2.358,2.3493,2.345,2.3276,2.3101,2.3101,2.3101,2.3101,2.3101,2.3101,2.3101,2.3101,2.3101,2.3101,2.3091,2.3101,2.3101,2.2818,2.2236,2.1606,2.1195,2.0737,2.0096,1.9459,1.9268,1.9061,1.8664,1.7733,3.3124,3.3124,3.3124,3.3124,3.3124,3.3124,3.3124,3.3124,3.3124,3.3124,3.3124,3.3124,3.3124,3.3124,3.3124,3.3124,3.3124,3.3167,3.3,3.2849,3.2819,3.3008,3.3155,3.3158,3.3325,3.3713,3.3768,3.381,3.381,3.3775,3.3637,3.3206,3.3073,3.2492,3.1926,3.1539,3.1254,3.0824,3.0874,3.0874,3.0811,3.0773,3.0685,3.0533,3.0381,3.0228,3.0203,3.0075,2.996,2.9972,2.9895,2.9958,3.0185,3.0383,3.0645,3.0821,3.1223,3.1399,3.1323,3.1461,3.1863,3.2215,3.2441,3.2566,3.2885,3.2629,3.2428,3.2428,3.2177,3.1662,3.1107,3.0931,3.0448,2.9873,2.9266,2.901,2.874,2.8251,2.8011,2.8011,2.7718,2.7028,2.6329,2.5558,2.485,2.4143,2.3884,2.3884,2.3754,2.3667,2.3537,2.3363,2.3276,2.3276,2.3232,2.3232,2.3188,2.3101,2.3101,2.3101,2.3101,2.3101,2.3101,2.3101,2.3101,2.2872,2.2325,2.2104,2.1872,2.1373,2.0962,2.0602,2.0318,1.9882,1.9122,3.3124,3.3124,3.3124,3.3124,3.3124,3.3124,3.3124,3.3124,3.3124,3.3124,3.3124,3.3124,3.3124,3.3124,3.3111,3.3111,3.3124,3.327,3.3271,3.3331,3.3534,3.3546,3.3579,3.3579,3.3665,3.3797,3.3937,3.4034,3.4118,3.4189,3.4121,3.4014,3.3734,3.3714,3.3167,3.2293,3.1694,3.1198,3.1052,3.0986,3.0949,3.0949,3.0949,3.0911,3.0773,3.066,3.0622,3.0419,3.0292,3.0267,3.0215,3.0289,3.0566,3.0853,3.1103,3.1468,3.1905,3.2093,3.2106,3.2102,3.2416,3.2805,3.2968,3.293,3.3086,3.3111,3.3048,3.293,3.2734,3.2416,3.1989,3.1625,3.0984,3.0278,2.9696,2.9532,2.9365,2.9404,2.9209,2.9326,2.8831,2.7931,2.7395,2.6577,2.5841,2.5137,2.4519,2.4466,2.4013,2.3841,2.3797,2.3667,2.3537,2.3503,2.346,2.3373,2.3276,2.3188,2.3144,2.3144,2.3101,2.3101,2.3101,2.3101,2.3101,2.3101,2.3091,2.2731,2.2511,2.2643,2.2369,2.1784,2.1122,2.0544,1.9764,3.3124,3.3124,3.3124,3.3124,3.3124,3.3124,3.3124,3.3124,3.3124,3.3124,3.3124,3.3124,3.3124,3.3111,3.324,3.327,3.3313,3.3471,3.3462,3.3486,3.3663,3.3801,3.3804,3.3949,3.4134,3.4147,3.423,3.4285,3.4314,3.4356,3.4356,3.429,3.4177,3.3535,3.3025,3.2659,3.1967,3.1562,3.1182,3.0999,3.1024,3.1024,3.1024,3.0986,3.0811,3.0698,3.066,3.0482,3.0406,3.0433,3.0521,3.0813,3.1117,3.1453,3.1817,3.212,3.2571,3.2798,3.2806,3.2802,3.2867,3.2998,3.3111,3.3124,3.3124,3.3124,3.3124,3.3111,3.3086,3.2667,3.1788,3.1461,3.1072,3.0382,2.9967,2.9829,2.9779,2.9779,2.974,2.9573,2.9079,2.8383,2.7931,2.7545,2.6864,2.6163,2.5547,2.4967,2.4509,2.4057,2.4013,2.3927,2.3797,2.3721,2.3677,2.3537,2.3363,2.3276,2.3242,2.3144,2.3135,2.3101,2.3101,2.3101,2.3101,2.3101,2.3101,2.3101,2.3047,2.2916,2.2872,2.2687,2.1992,2.1225,2.0552,3.3111,3.3197,3.3197,3.3167,3.3124,3.3124,3.3124,3.3124,3.3124,3.3124,3.3124,3.3124,3.3167,3.324,3.3313,3.3428,3.3513,3.3687,3.3663,3.3762,3.3939,3.4025,3.4056,3.4162,3.4314,3.4397,3.4397,3.4397,3.4356,3.4397,3.4592,3.4639,3.4388,3.3991,3.3313,3.2659,3.2215,3.1758,3.1471,3.1266,3.1325,3.1123,3.1222,3.1222,3.1048,3.0811,3.0851,3.0866,3.0919,3.101,3.1176,3.1415,3.1811,3.2217,3.2644,3.292,3.3132,3.3386,3.327,3.3197,3.3068,3.3124,3.3124,3.3124,3.3124,3.3124,3.3124,3.3056,3.2918,3.2428,3.1449,3.121,3.0796,3.008,2.9917,2.9779,2.9779,2.9779,2.9779,2.9702,2.9248,2.8961,2.887,2.8502,2.7718,2.6905,2.5913,2.5421,2.5094,2.4605,2.4239,2.4153,2.4024,2.3937,2.3894,2.3711,2.3537,2.3416,2.3329,2.3232,2.3178,2.3135,2.3101,2.3101,2.3101,2.3101,2.3101,2.3101,2.3101,2.3101,2.3003,2.296,2.2737,2.2006,2.1532,3.3197,3.3398,3.3398,3.3283,3.3167,3.3124,3.3111,3.3154,3.3167,3.3154,3.3154,3.3154,3.324,3.3356,3.3471,3.3598,3.3797,3.4021,3.4176,3.4241,3.4441,3.4441,3.4384,3.4437,3.4481,3.4439,3.4551,3.4675,3.4634,3.4827,3.5142,3.5467,3.5493,3.5197,3.4406,3.3824,3.3,3.2058,3.2003,3.2059,3.1917,3.1579,3.1713,3.1823,3.1773,3.1567,3.166,3.202,3.2102,3.2004,3.2463,3.2684,3.2841,3.2995,3.327,3.3386,3.342,3.3368,3.3167,3.3124,3.3167,3.3124,3.3124,3.3124,3.3124,3.3124,3.3124,3.3056,3.2667,3.2089,3.1461,3.0959,3.0432,3.0018,2.9854,2.9779,2.9779,2.9779,2.9779,2.9779,2.9779,2.974,2.9702,2.9456,2.8633,2.7637,2.6483,2.583,2.5589,2.5179,2.4733,2.4325,2.4196,2.4196,2.411,2.3937,2.3764,2.359,2.346,2.3363,2.3266,2.3222,2.3178,2.3144,2.3101,2.3101,2.3101,2.3101,2.3101,2.3101,2.3101,2.3028,2.2964,2.2775,2.2254,3.3386,3.3586,3.3598,3.3556,3.3513,3.3484,3.3471,3.3471,3.3513,3.3471,3.3471,3.3526,3.3513,3.3641,3.381,3.3949,3.4105,3.4922,3.5125,3.4936,3.515,3.5101,3.4989,3.4792,3.4758,3.5114,3.5264,3.5561,3.6148,3.5883,3.6068,3.6464,3.6557,3.6332,3.5983,3.5492,3.4802,3.4063,3.3647,3.3247,3.2852,3.2605,3.2561,3.286,3.2927,3.2965,3.3019,3.3492,3.3642,3.3459,3.3919,3.4165,3.3923,3.3891,3.4275,3.4079,3.3907,3.3738,3.3569,3.3471,3.3368,3.3283,3.3124,3.3167,3.3124,3.3124,3.3124,3.2986,3.252,3.198,3.1461,3.0934,3.0419,2.9967,2.9779,2.9779,2.9779,2.9779,2.9779,2.9779,2.9779,2.9779,2.9779,2.9779,2.917,2.8831,2.7799,2.6648,2.6163,2.5746,2.5295,2.47,2.4411,2.4411,2.4315,2.4186,2.4067,2.3894,2.3764,2.3624,2.3493,2.3363,2.3266,2.3222,2.3178,2.3101,2.3101,2.3101,2.3101,2.3101,2.3101,2.3101,2.3042,2.2955,2.2755,3.3641,3.381,3.3852,3.3894,3.3924,3.3755,3.3713,3.3713,3.3713,3.3713,3.367,3.367,3.3755,3.3924,3.4301,3.4634,3.4758,3.5629,3.6085,3.5883,3.6034,3.6007,3.5778,3.5478,3.5723,3.6016,3.6162,3.6385,3.6724,3.6855,3.7049,3.7333,3.7601,3.7791,3.751,3.6893,3.5797,3.505,3.4449,3.412,3.3755,3.3571,3.3635,3.3981,3.4235,3.4464,3.4691,3.5034,3.5428,3.5325,3.5463,3.5758,3.5318,3.5251,3.5588,3.5128,3.4841,3.48,3.4692,3.4637,3.4609,3.4457,3.37,3.324,3.3197,3.324,3.324,3.3051,3.2533,3.2041,3.1536,3.0966,3.0361,2.9908,2.9856,2.9856,2.9895,2.9895,2.9818,2.9818,2.9792,2.9792,2.9779,2.9779,2.9573,2.9456,2.9209,2.8087,2.694,2.6453,2.6038,2.5516,2.5073,2.5062,2.485,2.4529,2.4358,2.4239,2.411,2.4013,2.3711,2.358,2.344,2.3353,2.3319,2.3276,2.3144,2.3101,2.3144,2.3101,2.3101,2.3101,2.3101,2.3033,2.2988,3.3894,3.4118,3.4118,3.4243,3.4356,3.4163,3.3953,3.3827,3.3869,3.3953,3.3924,3.4066,3.4275,3.4454,3.5074,3.548,3.5816,3.6596,3.68,3.6959,3.7041,3.699,3.6979,3.6844,3.6884,3.6915,3.7039,3.7102,3.7049,3.7396,3.7767,3.8188,3.8723,3.887,3.8539,3.7881,3.665,3.5888,3.5682,3.5259,3.4804,3.4593,3.5,3.5408,3.5784,3.5969,3.6196,3.655,3.6883,3.7028,3.7201,3.7476,3.7456,3.7299,3.6985,3.661,3.6322,3.6203,3.5974,3.5948,3.5824,3.5398,3.4408,3.3775,3.3683,3.3814,3.3649,3.3261,3.2695,3.2192,3.1652,3.0913,3.0228,3.0037,2.996,2.996,3.0037,2.9998,2.9895,2.9818,2.983,2.9792,2.9779,2.9779,2.993,2.9952,2.9845,2.9603,2.8517,2.747,2.7051,2.6607,2.6205,2.5861,2.5579,2.5348,2.4978,2.4935,2.4647,2.4476,2.4133,2.3841,2.3711,2.3624,2.358,2.345,2.3319,2.3188,2.3144,2.3144,2.3091,2.3101,2.3101,2.3091,2.3037,3.4105,3.4314,3.4314,3.4675,3.5345,3.5789,3.5682,3.5251,3.5709,3.5975,3.5975,3.5975,3.5815,3.6148,3.6371,3.6489,3.6855,3.7289,3.7533,3.7802,3.813,3.8243,3.817,3.7989,3.8058,3.8183,3.8227,3.8191,3.859,3.8634,3.862,3.9119,3.928,3.9388,3.9228,3.8892,3.7804,3.7103,3.7038,3.6549,3.6212,3.6123,3.6659,3.7096,3.7641,3.785,3.8399,3.9052,3.9361,3.9141,3.975,3.9892,3.8505,3.8845,3.8871,3.765,3.7408,3.7242,3.6822,3.671,3.6676,3.6368,3.5413,3.5342,3.5144,3.4778,3.4304,3.3424,3.2796,3.221,3.1587,3.0854,3.0381,3.0267,3.019,3.019,3.0228,3.0152,3.0062,3.0085,3.0046,3.0057,3.0019,3.0005,3.0156,3.0294,3.0353,3.0333,3.0016,2.8988,2.8241,2.7801,2.7254,2.6948,2.6723,2.6505,2.6008,2.5589,2.539,2.5062,2.4647,2.4358,2.4057,2.397,2.4003,2.3797,2.346,2.345,2.3604,2.3222,2.3135,2.3091,2.3091,2.3135,2.3125,3.4675,3.5291,3.5032,3.5372,3.6241,3.7078,3.7102,3.6766,3.6869,3.6894,3.6894,3.6855,3.6894,3.6894,3.7179,3.7424,3.7501,3.8225,3.8602,3.8716,3.9206,3.9386,3.9291,3.9322,3.9668,3.9733,3.9694,3.9653,3.9785,3.9478,3.9388,3.9352,3.9388,3.9403,3.9352,3.919,3.877,3.8331,3.8127,3.7868,3.7659,3.7644,3.8242,3.8497,3.911,3.9649,4.0098,4.0741,4.0753,4.0615,4.1255,4.116,4.0155,4.0534,4.0455,3.9431,3.9402,3.9257,3.8967,3.8567,3.7991,3.7382,3.6845,3.6693,3.608,3.5468,3.4362,3.3344,3.2791,3.2215,3.1487,3.0868,3.0675,3.0495,3.0457,3.0457,3.0381,3.0305,3.033,3.0392,3.0441,3.0437,3.0423,3.0383,3.047,3.0771,3.0934,3.0957,3.0835,3.0378,2.971,2.9221,2.8564,2.7994,2.7807,2.7551,2.6974,2.655,2.637,2.5966,2.5359,2.502,2.4925,2.4754,2.4541,2.437,2.4284,2.4155,2.4188,2.381,2.3517,2.3527,2.344,2.3178,2.3178,3.548,3.6816,3.6162,3.636,3.7049,3.791,3.8277,3.8188,3.7563,3.7112,3.7204,3.7165,3.7281,3.7601,3.8023,3.8263,3.8412,3.8922,3.9171,3.9412,3.9906,4.0218,4.0568,4.1003,4.0931,4.1255,4.1197,4.0636,4.0375,4.0142,3.9903,3.9553,3.9723,3.9783,3.9657,3.9627,3.926,3.8796,3.8916,3.8886,3.8212,3.8482,3.917,3.8856,3.92,3.9649,3.9843,4.0232,4.0756,4.1175,4.1549,4.1765,4.1912,4.1873,4.156,4.1322,4.1086,4.0759,4.0425,3.9987,3.9505,3.9028,3.8715,3.776,3.6693,3.5892,3.4785,3.3596,3.2972,3.2208,3.1445,3.1046,3.0826,3.0879,3.0944,3.1112,3.1229,3.1126,3.1073,3.1109,3.1107,3.1102,3.1069,3.1095,3.1115,3.1364,3.1474,3.1499,3.1625,3.1455,3.0957,3.0434,2.9898,2.9277,2.9044,2.8681,2.79,2.7493,2.7365,2.6905,2.6329,2.6038,2.5819,2.5704,2.5579,2.5484,2.5347,2.5263,2.5062,2.4606,2.4327,2.4079,2.3864,2.3767,2.344,3.6529,3.6972,3.7386,3.772,3.7985,3.876,3.9083,3.9119,3.8907,3.8708,3.8797,3.8745,3.8708,3.8671,3.8833,3.901,3.9156,3.9192,3.9352,3.9612,4.0127,4.0651,4.107,4.1384,4.1722,4.1871,4.1737,4.1392,4.1025,4.0876,4.0861,4.0861,4.0771,4.0546,4.0119,4.0068,3.9753,3.914,3.9454,3.9334,3.8527,3.8886,3.9439,3.9664,4.0083,4.0262,4.0516,4.092,4.1175,4.1399,4.1908,4.2432,4.2961,4.288,4.2596,4.2276,4.2051,4.1632,4.098,4.0516,3.9918,3.9095,3.8381,3.7603,3.684,3.6187,3.5315,3.4182,3.3227,3.2434,3.1746,3.145,3.1196,3.1393,3.1499,3.1798,3.2085,3.198,3.1848,3.1832,3.1829,3.1796,3.1815,3.182,3.1827,3.1883,3.1951,3.2114,3.2453,3.2466,3.1897,3.1451,3.1192,3.0707,3.0325,2.9914,2.9205,2.8681,2.8517,2.7958,2.7296,2.7017,2.6771,2.6782,2.67,2.6554,2.6472,2.6431,2.6152,2.5621,2.5284,2.5115,2.5189,2.5136,2.4402,3.7319,3.8032,3.8523,3.8738,3.8811,3.9228,3.9388,3.9388,3.9388,3.9388,3.9388,3.9388,3.9388,3.9388,3.9388,3.9388,3.9388,3.9388,3.9388,3.9612,4.0217,4.0711,4.1175,4.1698,4.2102,4.2336,4.2066,4.1796,4.1587,4.1392,4.1347,4.1543,4.1498,4.1175,4.0628,4.0426,4.0083,3.9418,3.9858,3.9499,3.8871,3.9454,3.9723,4.0083,4.0068,4.0277,4.0442,4.0726,4.0935,4.125,4.1826,4.2366,4.2836,4.306,4.2895,4.2575,4.2246,4.1961,4.1085,4.0412,3.9903,3.914,3.8467,3.7842,3.7292,3.6646,3.6014,3.5036,3.5036,3.4296,3.3567,3.3122,3.2796,3.2804,3.2435,3.2319,3.2424,3.2371,3.2446,3.2583,3.2618,3.2677,3.2679,3.2688,3.268,3.2651,3.2693,3.2583,3.2948,3.3124,3.2629,3.2277,3.1951,3.1549,3.1023,3.0804,3.0595,3.0146,2.9686,2.8944,2.8258,2.795,2.773,2.773,2.7689,2.7689,2.7597,2.7516,2.7098,2.6565,2.6318,2.6141,2.6307,2.6431,2.5891,3.8107,3.9337,3.9388,3.9388,3.9388,3.9388,3.9388,3.9388,3.9388,3.9388,3.9388,3.9388,3.9388,3.9388,3.9388,3.9388,3.9388,3.9388,3.9388,3.9843,4.0487,4.0771,4.1324,4.2028,4.2396,4.2659,4.2623,4.2346,4.2084,4.2031,4.2069,4.1957,4.1641,4.134,4.0904,4.0521,4.0156,3.9661,3.9652,3.9556,3.967,3.9948,3.9813,3.9553,3.9388,3.9388,3.9619,3.9858,4.0232,4.0651,4.1294,4.2006,4.253,4.2851,4.2761,4.2515,4.2381,4.1931,4.1205,4.0591,4.0038,3.9424,3.8826,3.8317,3.7774,3.7362,3.6769,3.6532,3.6532,3.587,3.5085,3.4589,3.4242,3.3937,3.3395,3.2987,3.3013,3.3027,3.3193,3.3394,3.3429,3.353,3.3489,3.3467,3.3433,3.3386,3.3313,3.3197,3.3124,3.3124,3.2923,3.2734,3.2503,3.2131,3.1779,3.1537,3.1417,3.1201,3.0629,2.9884,2.9291,2.908,2.8851,2.8673,2.8633,2.8593,2.8633,2.8593,2.8091,2.7597,2.7342,2.7261,2.7545,2.7626,2.7424,3.909,3.9388,3.9388,3.9388,3.9388,3.9388,3.9388,3.9388,3.9388,3.9388,3.9388,3.9388,3.9388,3.9388,3.9388,3.9388,3.9388,3.9388,3.9828,4.0292,4.0329,4.0613,4.1063,4.1738,4.2481,4.2911,4.3298,4.3421,4.2878,4.2982,4.3331,4.3379,4.2613,4.2123,4.1475,4.0986,4.0338,3.9871,3.9732,3.9783,3.9589,3.9667,3.9529,3.9403,3.9388,3.9388,3.9448,3.9529,3.9589,3.9843,4.0412,4.1309,4.2006,4.2417,4.244,4.2231,4.2141,4.1602,4.0905,4.0427,3.9873,3.9514,3.908,3.908,3.876,3.8775,3.8328,3.8123,3.7737,3.6469,3.5744,3.5436,3.5106,3.4817,3.4379,3.4272,3.4188,3.4202,3.4252,3.4247,3.4204,3.4103,3.3891,3.3882,3.3797,3.3696,3.3484,3.3356,3.3326,3.324,3.3167,3.3036,3.2991,3.3011,3.2797,3.2202,3.1997,3.1876,3.1571,3.0817,3.035,3.0308,3.0055,2.9571,2.944,2.9417,2.9456,2.9287,2.9248,2.8791,2.8462,2.8383,2.8661,2.8712,2.8422]}]]